<?xml version="1.0" encoding="UTF-8" standalone="no" ?>
<gpx xmlns="http://www.topografix.com/GPX/1/1" xmlns:xsi="http://www.w3.org/2001/XMLSchema-instance" xsi:schemaLocation="http://www.topografix.com/GPX/1/1 http://www.topografix.com/GPX/1/1/gpx.xsd" version="1.1" creator="VisuGPX - https://www.visugpx.com">
  <metadata>
    <name>R23 Km - 3 août 2019</name>
    <desc><![CDATA[comment ...]]></desc>
  </metadata>
  <trk>
    <name><![CDATA[R23 Km - 3 août 2019]]></name>
    <desc><![CDATA[comment ...]]></desc>
    <trkseg>
      <trkpt lat="47.73371" lon="0.45405">
        <ele>66</ele>
        <time>2019-08-03T09:33:20Z</time>
      </trkpt>
      <trkpt lat="47.73371" lon="0.45405">
        <ele>66</ele>
        <time>2019-08-03T09:33:21Z</time>
      </trkpt>
      <trkpt lat="47.73373" lon="0.45401">
        <ele>66</ele>
        <time>2019-08-03T09:33:27Z</time>
      </trkpt>
      <trkpt lat="47.73375" lon="0.45397">
        <ele>66</ele>
        <time>2019-08-03T09:33:30Z</time>
      </trkpt>
      <trkpt lat="47.73378" lon="0.45395">
        <ele>65</ele>
        <time>2019-08-03T09:33:33Z</time>
      </trkpt>
      <trkpt lat="47.73378" lon="0.4539">
        <ele>66</ele>
        <time>2019-08-03T09:33:40Z</time>
      </trkpt>
      <trkpt lat="47.73378" lon="0.45385">
        <ele>66</ele>
        <time>2019-08-03T09:33:43Z</time>
      </trkpt>
      <trkpt lat="47.73373" lon="0.45377">
        <ele>65</ele>
        <time>2019-08-03T09:33:48Z</time>
      </trkpt>
      <trkpt lat="47.73368" lon="0.4537">
        <ele>65</ele>
        <time>2019-08-03T09:33:54Z</time>
      </trkpt>
      <trkpt lat="47.73366" lon="0.45365">
        <ele>65</ele>
        <time>2019-08-03T09:33:57Z</time>
      </trkpt>
      <trkpt lat="47.73364" lon="0.45361">
        <ele>66</ele>
        <time>2019-08-03T09:34:00Z</time>
      </trkpt>
      <trkpt lat="47.7336" lon="0.45354">
        <ele>66</ele>
        <time>2019-08-03T09:34:05Z</time>
      </trkpt>
      <trkpt lat="47.73358" lon="0.45349">
        <ele>66</ele>
        <time>2019-08-03T09:34:08Z</time>
      </trkpt>
      <trkpt lat="47.73359" lon="0.45345">
        <ele>66</ele>
        <time>2019-08-03T09:34:11Z</time>
      </trkpt>
      <trkpt lat="47.73351" lon="0.45336">
        <ele>67</ele>
        <time>2019-08-03T09:34:20Z</time>
      </trkpt>
      <trkpt lat="47.73348" lon="0.45335">
        <ele>68</ele>
        <time>2019-08-03T09:34:31Z</time>
      </trkpt>
      <trkpt lat="47.73345" lon="0.45335">
        <ele>68</ele>
        <time>2019-08-03T09:34:33Z</time>
      </trkpt>
      <trkpt lat="47.73342" lon="0.45336">
        <ele>68</ele>
        <time>2019-08-03T09:34:35Z</time>
      </trkpt>
      <trkpt lat="47.73339" lon="0.45341">
        <ele>69</ele>
        <time>2019-08-03T09:34:38Z</time>
      </trkpt>
      <trkpt lat="47.73315" lon="0.45378">
        <ele>74</ele>
        <time>2019-08-03T09:35:09Z</time>
      </trkpt>
      <trkpt lat="47.73307" lon="0.45389">
        <ele>72</ele>
        <time>2019-08-03T09:35:18Z</time>
      </trkpt>
      <trkpt lat="47.73299" lon="0.454">
        <ele>70</ele>
        <time>2019-08-03T09:35:26Z</time>
      </trkpt>
      <trkpt lat="47.73296" lon="0.45404">
        <ele>70</ele>
        <time>2019-08-03T09:35:30Z</time>
      </trkpt>
      <trkpt lat="47.73291" lon="0.45412">
        <ele>71</ele>
        <time>2019-08-03T09:35:37Z</time>
      </trkpt>
      <trkpt lat="47.73287" lon="0.45414">
        <ele>70</ele>
        <time>2019-08-03T09:35:39Z</time>
      </trkpt>
      <trkpt lat="47.73285" lon="0.45416">
        <ele>68</ele>
        <time>2019-08-03T09:35:41Z</time>
      </trkpt>
      <trkpt lat="47.73282" lon="0.4542">
        <ele>66</ele>
        <time>2019-08-03T09:35:44Z</time>
      </trkpt>
      <trkpt lat="47.73278" lon="0.45422">
        <ele>67</ele>
        <time>2019-08-03T09:35:47Z</time>
      </trkpt>
      <trkpt lat="47.73275" lon="0.45423">
        <ele>67</ele>
        <time>2019-08-03T09:35:49Z</time>
      </trkpt>
      <trkpt lat="47.73267" lon="0.45428">
        <ele>68</ele>
        <time>2019-08-03T09:35:54Z</time>
      </trkpt>
      <trkpt lat="47.73265" lon="0.45431">
        <ele>68</ele>
        <time>2019-08-03T09:35:57Z</time>
      </trkpt>
      <trkpt lat="47.73262" lon="0.45432">
        <ele>69</ele>
        <time>2019-08-03T09:35:59Z</time>
      </trkpt>
      <trkpt lat="47.73259" lon="0.45434">
        <ele>69</ele>
        <time>2019-08-03T09:36:02Z</time>
      </trkpt>
      <trkpt lat="47.73256" lon="0.45437">
        <ele>69</ele>
        <time>2019-08-03T09:36:05Z</time>
      </trkpt>
      <trkpt lat="47.73249" lon="0.45444">
        <ele>68</ele>
        <time>2019-08-03T09:36:13Z</time>
      </trkpt>
      <trkpt lat="47.73247" lon="0.45449">
        <ele>67</ele>
        <time>2019-08-03T09:36:22Z</time>
      </trkpt>
      <trkpt lat="47.73248" lon="0.4545">
        <ele>68</ele>
        <time>2019-08-03T09:36:30Z</time>
      </trkpt>
      <trkpt lat="47.73252" lon="0.4545">
        <ele>68</ele>
        <time>2019-08-03T09:36:33Z</time>
      </trkpt>
      <trkpt lat="47.73253" lon="0.45455">
        <ele>69</ele>
        <time>2019-08-03T09:36:36Z</time>
      </trkpt>
      <trkpt lat="47.73254" lon="0.45461">
        <ele>69</ele>
        <time>2019-08-03T09:36:40Z</time>
      </trkpt>
      <trkpt lat="47.73257" lon="0.45464">
        <ele>69</ele>
        <time>2019-08-03T09:36:43Z</time>
      </trkpt>
      <trkpt lat="47.73262" lon="0.45473">
        <ele>68</ele>
        <time>2019-08-03T09:36:49Z</time>
      </trkpt>
      <trkpt lat="47.73266" lon="0.45482">
        <ele>68</ele>
        <time>2019-08-03T09:36:55Z</time>
      </trkpt>
      <trkpt lat="47.73271" lon="0.45487">
        <ele>68</ele>
        <time>2019-08-03T09:36:59Z</time>
      </trkpt>
      <trkpt lat="47.73298" lon="0.45533">
        <ele>63</ele>
        <time>2019-08-03T09:37:28Z</time>
      </trkpt>
      <trkpt lat="47.73301" lon="0.45537">
        <ele>63</ele>
        <time>2019-08-03T09:37:31Z</time>
      </trkpt>
      <trkpt lat="47.73317" lon="0.45561">
        <ele>65</ele>
        <time>2019-08-03T09:37:49Z</time>
      </trkpt>
      <trkpt lat="47.73324" lon="0.45573">
        <ele>65</ele>
        <time>2019-08-03T09:37:58Z</time>
      </trkpt>
      <trkpt lat="47.73326" lon="0.45578">
        <ele>66</ele>
        <time>2019-08-03T09:38:01Z</time>
      </trkpt>
      <trkpt lat="47.7333" lon="0.45581">
        <ele>64</ele>
        <time>2019-08-03T09:38:04Z</time>
      </trkpt>
      <trkpt lat="47.73332" lon="0.45584">
        <ele>64</ele>
        <time>2019-08-03T09:38:06Z</time>
      </trkpt>
      <trkpt lat="47.73337" lon="0.4559">
        <ele>66</ele>
        <time>2019-08-03T09:38:12Z</time>
      </trkpt>
      <trkpt lat="47.7334" lon="0.45595">
        <ele>66</ele>
        <time>2019-08-03T09:38:15Z</time>
      </trkpt>
      <trkpt lat="47.7335" lon="0.45614">
        <ele>66</ele>
        <time>2019-08-03T09:38:27Z</time>
      </trkpt>
      <trkpt lat="47.73357" lon="0.45618">
        <ele>64</ele>
        <time>2019-08-03T09:38:38Z</time>
      </trkpt>
      <trkpt lat="47.7336" lon="0.45619">
        <ele>65</ele>
        <time>2019-08-03T09:38:41Z</time>
      </trkpt>
      <trkpt lat="47.73363" lon="0.45619">
        <ele>66</ele>
        <time>2019-08-03T09:38:45Z</time>
      </trkpt>
      <trkpt lat="47.73368" lon="0.45619">
        <ele>66</ele>
        <time>2019-08-03T09:39:03Z</time>
      </trkpt>
      <trkpt lat="47.7337" lon="0.45622">
        <ele>67</ele>
        <time>2019-08-03T09:39:06Z</time>
      </trkpt>
      <trkpt lat="47.73373" lon="0.45625">
        <ele>66</ele>
        <time>2019-08-03T09:39:08Z</time>
      </trkpt>
      <trkpt lat="47.73376" lon="0.45629">
        <ele>66</ele>
        <time>2019-08-03T09:39:11Z</time>
      </trkpt>
      <trkpt lat="47.73381" lon="0.45635">
        <ele>65</ele>
        <time>2019-08-03T09:39:15Z</time>
      </trkpt>
      <trkpt lat="47.73391" lon="0.45641">
        <ele>64</ele>
        <time>2019-08-03T09:39:24Z</time>
      </trkpt>
      <trkpt lat="47.73394" lon="0.4564">
        <ele>64</ele>
        <time>2019-08-03T09:39:27Z</time>
      </trkpt>
      <trkpt lat="47.73411" lon="0.45639">
        <ele>66</ele>
        <time>2019-08-03T09:39:41Z</time>
      </trkpt>
      <trkpt lat="47.7343" lon="0.45638">
        <ele>67</ele>
        <time>2019-08-03T09:39:52Z</time>
      </trkpt>
      <trkpt lat="47.73434" lon="0.45638">
        <ele>67</ele>
        <time>2019-08-03T09:39:56Z</time>
      </trkpt>
      <trkpt lat="47.73442" lon="0.45639">
        <ele>68</ele>
        <time>2019-08-03T09:40:02Z</time>
      </trkpt>
      <trkpt lat="47.73449" lon="0.45639">
        <ele>69</ele>
        <time>2019-08-03T09:40:08Z</time>
      </trkpt>
      <trkpt lat="47.73456" lon="0.45633">
        <ele>68</ele>
        <time>2019-08-03T09:40:14Z</time>
      </trkpt>
      <trkpt lat="47.73464" lon="0.45624">
        <ele>68</ele>
        <time>2019-08-03T09:40:22Z</time>
      </trkpt>
      <trkpt lat="47.73469" lon="0.45619">
        <ele>68</ele>
        <time>2019-08-03T09:40:28Z</time>
      </trkpt>
      <trkpt lat="47.73473" lon="0.45619">
        <ele>68</ele>
        <time>2019-08-03T09:40:32Z</time>
      </trkpt>
      <trkpt lat="47.73475" lon="0.45624">
        <ele>67</ele>
        <time>2019-08-03T09:40:35Z</time>
      </trkpt>
      <trkpt lat="47.73476" lon="0.45635">
        <ele>67</ele>
        <time>2019-08-03T09:40:40Z</time>
      </trkpt>
      <trkpt lat="47.73479" lon="0.45643">
        <ele>68</ele>
        <time>2019-08-03T09:40:46Z</time>
      </trkpt>
      <trkpt lat="47.73481" lon="0.45648">
        <ele>66</ele>
        <time>2019-08-03T09:40:50Z</time>
      </trkpt>
      <trkpt lat="47.73486" lon="0.4567">
        <ele>72</ele>
        <time>2019-08-03T09:41:05Z</time>
      </trkpt>
      <trkpt lat="47.73485" lon="0.45675">
        <ele>73</ele>
        <time>2019-08-03T09:41:09Z</time>
      </trkpt>
      <trkpt lat="47.73487" lon="0.45689">
        <ele>73</ele>
        <time>2019-08-03T09:41:16Z</time>
      </trkpt>
      <trkpt lat="47.73486" lon="0.45705">
        <ele>75</ele>
        <time>2019-08-03T09:41:27Z</time>
      </trkpt>
      <trkpt lat="47.73489" lon="0.45726">
        <ele>76</ele>
        <time>2019-08-03T09:41:39Z</time>
      </trkpt>
      <trkpt lat="47.73489" lon="0.4573">
        <ele>78</ele>
        <time>2019-08-03T09:41:42Z</time>
      </trkpt>
      <trkpt lat="47.73488" lon="0.45735">
        <ele>81</ele>
        <time>2019-08-03T09:41:48Z</time>
      </trkpt>
      <trkpt lat="47.73493" lon="0.45785">
        <ele>79</ele>
        <time>2019-08-03T09:42:13Z</time>
      </trkpt>
      <trkpt lat="47.73492" lon="0.45789">
        <ele>79</ele>
        <time>2019-08-03T09:42:15Z</time>
      </trkpt>
      <trkpt lat="47.73492" lon="0.45793">
        <ele>79</ele>
        <time>2019-08-03T09:42:17Z</time>
      </trkpt>
      <trkpt lat="47.73491" lon="0.45803">
        <ele>81</ele>
        <time>2019-08-03T09:42:23Z</time>
      </trkpt>
      <trkpt lat="47.73493" lon="0.45809">
        <ele>81</ele>
        <time>2019-08-03T09:42:26Z</time>
      </trkpt>
      <trkpt lat="47.73492" lon="0.4582">
        <ele>81</ele>
        <time>2019-08-03T09:42:31Z</time>
      </trkpt>
      <trkpt lat="47.73494" lon="0.45845">
        <ele>84</ele>
        <time>2019-08-03T09:42:48Z</time>
      </trkpt>
      <trkpt lat="47.73493" lon="0.45857">
        <ele>86</ele>
        <time>2019-08-03T09:44:03Z</time>
      </trkpt>
      <trkpt lat="47.73495" lon="0.45866">
        <ele>88</ele>
        <time>2019-08-03T09:44:09Z</time>
      </trkpt>
      <trkpt lat="47.73496" lon="0.45874">
        <ele>90</ele>
        <time>2019-08-03T09:44:14Z</time>
      </trkpt>
      <trkpt lat="47.73496" lon="0.45885">
        <ele>90</ele>
        <time>2019-08-03T09:44:20Z</time>
      </trkpt>
      <trkpt lat="47.73497" lon="0.4589">
        <ele>91</ele>
        <time>2019-08-03T09:44:23Z</time>
      </trkpt>
      <trkpt lat="47.73498" lon="0.45897">
        <ele>91</ele>
        <time>2019-08-03T09:44:26Z</time>
      </trkpt>
      <trkpt lat="47.73499" lon="0.45913">
        <ele>90</ele>
        <time>2019-08-03T09:44:34Z</time>
      </trkpt>
      <trkpt lat="47.73502" lon="0.45919">
        <ele>88</ele>
        <time>2019-08-03T09:44:38Z</time>
      </trkpt>
      <trkpt lat="47.73502" lon="0.45925">
        <ele>88</ele>
        <time>2019-08-03T09:44:44Z</time>
      </trkpt>
      <trkpt lat="47.73501" lon="0.45933">
        <ele>87</ele>
        <time>2019-08-03T09:44:49Z</time>
      </trkpt>
      <trkpt lat="47.73502" lon="0.45947">
        <ele>89</ele>
        <time>2019-08-03T09:45:05Z</time>
      </trkpt>
      <trkpt lat="47.73504" lon="0.45954">
        <ele>89</ele>
        <time>2019-08-03T09:45:10Z</time>
      </trkpt>
      <trkpt lat="47.73506" lon="0.4597">
        <ele>86</ele>
        <time>2019-08-03T09:45:20Z</time>
      </trkpt>
      <trkpt lat="47.73506" lon="0.45977">
        <ele>84</ele>
        <time>2019-08-03T09:45:25Z</time>
      </trkpt>
      <trkpt lat="47.73508" lon="0.45985">
        <ele>84</ele>
        <time>2019-08-03T09:45:30Z</time>
      </trkpt>
      <trkpt lat="47.73505" lon="0.45999">
        <ele>87</ele>
        <time>2019-08-03T09:45:38Z</time>
      </trkpt>
      <trkpt lat="47.73494" lon="0.46026">
        <ele>92</ele>
        <time>2019-08-03T09:46:00Z</time>
      </trkpt>
      <trkpt lat="47.73489" lon="0.46041">
        <ele>94</ele>
        <time>2019-08-03T09:46:14Z</time>
      </trkpt>
      <trkpt lat="47.73483" lon="0.46053">
        <ele>98</ele>
        <time>2019-08-03T09:46:19Z</time>
      </trkpt>
      <trkpt lat="47.73478" lon="0.46065">
        <ele>101</ele>
        <time>2019-08-03T09:46:26Z</time>
      </trkpt>
      <trkpt lat="47.73468" lon="0.46085">
        <ele>102</ele>
        <time>2019-08-03T09:46:54Z</time>
      </trkpt>
      <trkpt lat="47.73464" lon="0.46098">
        <ele>103</ele>
        <time>2019-08-03T09:47:04Z</time>
      </trkpt>
      <trkpt lat="47.73458" lon="0.46122">
        <ele>106</ele>
        <time>2019-08-03T09:47:23Z</time>
      </trkpt>
      <trkpt lat="47.73453" lon="0.46136">
        <ele>108</ele>
        <time>2019-08-03T09:47:32Z</time>
      </trkpt>
      <trkpt lat="47.73451" lon="0.46149">
        <ele>108</ele>
        <time>2019-08-03T09:47:41Z</time>
      </trkpt>
      <trkpt lat="47.73447" lon="0.4616">
        <ele>108</ele>
        <time>2019-08-03T09:47:54Z</time>
      </trkpt>
      <trkpt lat="47.73438" lon="0.46196">
        <ele>114</ele>
        <time>2019-08-03T09:48:20Z</time>
      </trkpt>
      <trkpt lat="47.73414" lon="0.46236">
        <ele>118</ele>
        <time>2019-08-03T09:48:51Z</time>
      </trkpt>
      <trkpt lat="47.73405" lon="0.46259">
        <ele>119</ele>
        <time>2019-08-03T09:49:07Z</time>
      </trkpt>
      <trkpt lat="47.73404" lon="0.46265">
        <ele>120</ele>
        <time>2019-08-03T09:49:10Z</time>
      </trkpt>
      <trkpt lat="47.73402" lon="0.46281">
        <ele>122</ele>
        <time>2019-08-03T09:49:19Z</time>
      </trkpt>
      <trkpt lat="47.73399" lon="0.46297">
        <ele>121</ele>
        <time>2019-08-03T09:49:28Z</time>
      </trkpt>
      <trkpt lat="47.73399" lon="0.46303">
        <ele>122</ele>
        <time>2019-08-03T09:49:31Z</time>
      </trkpt>
      <trkpt lat="47.73399" lon="0.46308">
        <ele>121</ele>
        <time>2019-08-03T09:49:34Z</time>
      </trkpt>
      <trkpt lat="47.73399" lon="0.46323">
        <ele>122</ele>
        <time>2019-08-03T09:49:43Z</time>
      </trkpt>
      <trkpt lat="47.73397" lon="0.46329">
        <ele>122</ele>
        <time>2019-08-03T09:49:46Z</time>
      </trkpt>
      <trkpt lat="47.73397" lon="0.46334">
        <ele>122</ele>
        <time>2019-08-03T09:49:49Z</time>
      </trkpt>
      <trkpt lat="47.73397" lon="0.4634">
        <ele>123</ele>
        <time>2019-08-03T09:49:53Z</time>
      </trkpt>
      <trkpt lat="47.73396" lon="0.46351">
        <ele>123</ele>
        <time>2019-08-03T09:49:58Z</time>
      </trkpt>
      <trkpt lat="47.73395" lon="0.46355">
        <ele>123</ele>
        <time>2019-08-03T09:50:00Z</time>
      </trkpt>
      <trkpt lat="47.73394" lon="0.46361">
        <ele>123</ele>
        <time>2019-08-03T09:50:03Z</time>
      </trkpt>
      <trkpt lat="47.73395" lon="0.46371">
        <ele>123</ele>
        <time>2019-08-03T09:50:10Z</time>
      </trkpt>
      <trkpt lat="47.73399" lon="0.4639">
        <ele>125</ele>
        <time>2019-08-03T09:50:22Z</time>
      </trkpt>
      <trkpt lat="47.73405" lon="0.46425">
        <ele>128</ele>
        <time>2019-08-03T09:50:42Z</time>
      </trkpt>
      <trkpt lat="47.73412" lon="0.46444">
        <ele>126</ele>
        <time>2019-08-03T09:50:51Z</time>
      </trkpt>
      <trkpt lat="47.73411" lon="0.46451">
        <ele>126</ele>
        <time>2019-08-03T09:50:54Z</time>
      </trkpt>
      <trkpt lat="47.73412" lon="0.46467">
        <ele>125</ele>
        <time>2019-08-03T09:51:02Z</time>
      </trkpt>
      <trkpt lat="47.73414" lon="0.46493">
        <ele>125</ele>
        <time>2019-08-03T09:51:11Z</time>
      </trkpt>
      <trkpt lat="47.73416" lon="0.46496">
        <ele>126</ele>
        <time>2019-08-03T09:51:13Z</time>
      </trkpt>
      <trkpt lat="47.73433" lon="0.46561">
        <ele>127</ele>
        <time>2019-08-03T09:51:49Z</time>
      </trkpt>
      <trkpt lat="47.73439" lon="0.46603">
        <ele>124</ele>
        <time>2019-08-03T09:52:12Z</time>
      </trkpt>
      <trkpt lat="47.7344" lon="0.46617">
        <ele>124</ele>
        <time>2019-08-03T09:52:22Z</time>
      </trkpt>
      <trkpt lat="47.73445" lon="0.46628">
        <ele>124</ele>
        <time>2019-08-03T09:52:31Z</time>
      </trkpt>
      <trkpt lat="47.7345" lon="0.46639">
        <ele>125</ele>
        <time>2019-08-03T09:52:38Z</time>
      </trkpt>
      <trkpt lat="47.73456" lon="0.46651">
        <ele>125</ele>
        <time>2019-08-03T09:52:46Z</time>
      </trkpt>
      <trkpt lat="47.73459" lon="0.46665">
        <ele>126</ele>
        <time>2019-08-03T09:52:55Z</time>
      </trkpt>
      <trkpt lat="47.73465" lon="0.46677">
        <ele>126</ele>
        <time>2019-08-03T09:53:01Z</time>
      </trkpt>
      <trkpt lat="47.73468" lon="0.46682">
        <ele>127</ele>
        <time>2019-08-03T09:53:04Z</time>
      </trkpt>
      <trkpt lat="47.73479" lon="0.46719">
        <ele>127</ele>
        <time>2019-08-03T09:53:23Z</time>
      </trkpt>
      <trkpt lat="47.73485" lon="0.46727">
        <ele>126</ele>
        <time>2019-08-03T09:53:29Z</time>
      </trkpt>
      <trkpt lat="47.73495" lon="0.46746">
        <ele>127</ele>
        <time>2019-08-03T09:53:41Z</time>
      </trkpt>
      <trkpt lat="47.73496" lon="0.46752">
        <ele>128</ele>
        <time>2019-08-03T09:54:44Z</time>
      </trkpt>
      <trkpt lat="47.73504" lon="0.46763">
        <ele>126</ele>
        <time>2019-08-03T09:54:54Z</time>
      </trkpt>
      <trkpt lat="47.73505" lon="0.46768">
        <ele>126</ele>
        <time>2019-08-03T09:54:57Z</time>
      </trkpt>
      <trkpt lat="47.7352" lon="0.46808">
        <ele>128</ele>
        <time>2019-08-03T09:55:21Z</time>
      </trkpt>
      <trkpt lat="47.73521" lon="0.46814">
        <ele>128</ele>
        <time>2019-08-03T09:55:24Z</time>
      </trkpt>
      <trkpt lat="47.73523" lon="0.4682">
        <ele>127</ele>
        <time>2019-08-03T09:55:27Z</time>
      </trkpt>
      <trkpt lat="47.73525" lon="0.46824">
        <ele>127</ele>
        <time>2019-08-03T09:55:30Z</time>
      </trkpt>
      <trkpt lat="47.73529" lon="0.46834">
        <ele>126</ele>
        <time>2019-08-03T09:55:35Z</time>
      </trkpt>
      <trkpt lat="47.73541" lon="0.46855">
        <ele>126</ele>
        <time>2019-08-03T09:55:50Z</time>
      </trkpt>
      <trkpt lat="47.7355" lon="0.46889">
        <ele>130</ele>
        <time>2019-08-03T09:56:11Z</time>
      </trkpt>
      <trkpt lat="47.73552" lon="0.46893">
        <ele>130</ele>
        <time>2019-08-03T09:56:14Z</time>
      </trkpt>
      <trkpt lat="47.73554" lon="0.46897">
        <ele>129</ele>
        <time>2019-08-03T09:56:18Z</time>
      </trkpt>
      <trkpt lat="47.73554" lon="0.46902">
        <ele>129</ele>
        <time>2019-08-03T09:56:21Z</time>
      </trkpt>
      <trkpt lat="47.73557" lon="0.46912">
        <ele>129</ele>
        <time>2019-08-03T09:56:25Z</time>
      </trkpt>
      <trkpt lat="47.73567" lon="0.46928">
        <ele>130</ele>
        <time>2019-08-03T09:56:37Z</time>
      </trkpt>
      <trkpt lat="47.73569" lon="0.46933">
        <ele>130</ele>
        <time>2019-08-03T09:56:40Z</time>
      </trkpt>
      <trkpt lat="47.73571" lon="0.46937">
        <ele>129</ele>
        <time>2019-08-03T09:56:42Z</time>
      </trkpt>
      <trkpt lat="47.73573" lon="0.46944">
        <ele>128</ele>
        <time>2019-08-03T09:56:44Z</time>
      </trkpt>
      <trkpt lat="47.73585" lon="0.46964">
        <ele>128</ele>
        <time>2019-08-03T09:56:56Z</time>
      </trkpt>
      <trkpt lat="47.73591" lon="0.46978">
        <ele>127</ele>
        <time>2019-08-03T09:57:05Z</time>
      </trkpt>
      <trkpt lat="47.73599" lon="0.46994">
        <ele>126</ele>
        <time>2019-08-03T09:57:13Z</time>
      </trkpt>
      <trkpt lat="47.73602" lon="0.47002">
        <ele>124</ele>
        <time>2019-08-03T09:57:17Z</time>
      </trkpt>
      <trkpt lat="47.73617" lon="0.47031">
        <ele>125</ele>
        <time>2019-08-03T09:57:37Z</time>
      </trkpt>
      <trkpt lat="47.73622" lon="0.4704">
        <ele>126</ele>
        <time>2019-08-03T09:57:43Z</time>
      </trkpt>
      <trkpt lat="47.73623" lon="0.47045">
        <ele>126</ele>
        <time>2019-08-03T09:57:46Z</time>
      </trkpt>
      <trkpt lat="47.73623" lon="0.47052">
        <ele>125</ele>
        <time>2019-08-03T09:57:49Z</time>
      </trkpt>
      <trkpt lat="47.73622" lon="0.47057">
        <ele>125</ele>
        <time>2019-08-03T09:57:51Z</time>
      </trkpt>
      <trkpt lat="47.73617" lon="0.47063">
        <ele>125</ele>
        <time>2019-08-03T09:57:55Z</time>
      </trkpt>
      <trkpt lat="47.73601" lon="0.47073">
        <ele>127</ele>
        <time>2019-08-03T09:58:09Z</time>
      </trkpt>
      <trkpt lat="47.73594" lon="0.47084">
        <ele>127</ele>
        <time>2019-08-03T09:58:17Z</time>
      </trkpt>
      <trkpt lat="47.73585" lon="0.47097">
        <ele>128</ele>
        <time>2019-08-03T09:58:30Z</time>
      </trkpt>
      <trkpt lat="47.73585" lon="0.47107">
        <ele>129</ele>
        <time>2019-08-03T09:58:36Z</time>
      </trkpt>
      <trkpt lat="47.73586" lon="0.47112">
        <ele>129</ele>
        <time>2019-08-03T09:58:39Z</time>
      </trkpt>
      <trkpt lat="47.73584" lon="0.4717">
        <ele>126</ele>
        <time>2019-08-03T09:59:09Z</time>
      </trkpt>
      <trkpt lat="47.73584" lon="0.47179">
        <ele>126</ele>
        <time>2019-08-03T09:59:15Z</time>
      </trkpt>
      <trkpt lat="47.73583" lon="0.47185">
        <ele>125</ele>
        <time>2019-08-03T09:59:18Z</time>
      </trkpt>
      <trkpt lat="47.73583" lon="0.47206">
        <ele>126</ele>
        <time>2019-08-03T09:59:32Z</time>
      </trkpt>
      <trkpt lat="47.73586" lon="0.47221">
        <ele>127</ele>
        <time>2019-08-03T09:59:35Z</time>
      </trkpt>
      <trkpt lat="47.73589" lon="0.47255">
        <ele>127</ele>
        <time>2019-08-03T09:59:57Z</time>
      </trkpt>
      <trkpt lat="47.73591" lon="0.47271">
        <ele>127</ele>
        <time>2019-08-03T10:00:00Z</time>
      </trkpt>
      <trkpt lat="47.73594" lon="0.47293">
        <ele>131</ele>
        <time>2019-08-03T10:04:38Z</time>
      </trkpt>
      <trkpt lat="47.73598" lon="0.47293">
        <ele>131</ele>
        <time>2019-08-03T10:04:41Z</time>
      </trkpt>
      <trkpt lat="47.73604" lon="0.47292">
        <ele>130</ele>
        <time>2019-08-03T10:04:44Z</time>
      </trkpt>
      <trkpt lat="47.73649" lon="0.47305">
        <ele>128</ele>
        <time>2019-08-03T10:05:17Z</time>
      </trkpt>
      <trkpt lat="47.73663" lon="0.47306">
        <ele>127</ele>
        <time>2019-08-03T10:05:30Z</time>
      </trkpt>
      <trkpt lat="47.73696" lon="0.47303">
        <ele>126</ele>
        <time>2019-08-03T10:05:54Z</time>
      </trkpt>
      <trkpt lat="47.73706" lon="0.47304">
        <ele>127</ele>
        <time>2019-08-03T10:06:01Z</time>
      </trkpt>
      <trkpt lat="47.73735" lon="0.473">
        <ele>124</ele>
        <time>2019-08-03T10:06:21Z</time>
      </trkpt>
      <trkpt lat="47.73741" lon="0.47303">
        <ele>125</ele>
        <time>2019-08-03T10:06:25Z</time>
      </trkpt>
      <trkpt lat="47.73763" lon="0.47298">
        <ele>123</ele>
        <time>2019-08-03T10:06:42Z</time>
      </trkpt>
      <trkpt lat="47.73767" lon="0.47295">
        <ele>123</ele>
        <time>2019-08-03T10:06:45Z</time>
      </trkpt>
      <trkpt lat="47.73775" lon="0.47289">
        <ele>124</ele>
        <time>2019-08-03T10:06:51Z</time>
      </trkpt>
      <trkpt lat="47.73783" lon="0.47281">
        <ele>125</ele>
        <time>2019-08-03T10:06:59Z</time>
      </trkpt>
      <trkpt lat="47.73807" lon="0.47265">
        <ele>124</ele>
        <time>2019-08-03T10:07:18Z</time>
      </trkpt>
      <trkpt lat="47.7381" lon="0.47263">
        <ele>123</ele>
        <time>2019-08-03T10:07:20Z</time>
      </trkpt>
      <trkpt lat="47.73824" lon="0.47267">
        <ele>124</ele>
        <time>2019-08-03T10:07:31Z</time>
      </trkpt>
      <trkpt lat="47.7385" lon="0.47295">
        <ele>122</ele>
        <time>2019-08-03T10:07:59Z</time>
      </trkpt>
      <trkpt lat="47.73891" lon="0.47312">
        <ele>123</ele>
        <time>2019-08-03T10:08:30Z</time>
      </trkpt>
      <trkpt lat="47.73931" lon="0.47329">
        <ele>124</ele>
        <time>2019-08-03T10:09:01Z</time>
      </trkpt>
      <trkpt lat="47.73968" lon="0.47346">
        <ele>126</ele>
        <time>2019-08-03T10:09:33Z</time>
      </trkpt>
      <trkpt lat="47.73977" lon="0.47355">
        <ele>125</ele>
        <time>2019-08-03T10:09:42Z</time>
      </trkpt>
      <trkpt lat="47.7398" lon="0.47358">
        <ele>125</ele>
        <time>2019-08-03T10:09:45Z</time>
      </trkpt>
      <trkpt lat="47.74017" lon="0.47392">
        <ele>128</ele>
        <time>2019-08-03T10:10:17Z</time>
      </trkpt>
      <trkpt lat="47.7404" lon="0.47413">
        <ele>128</ele>
        <time>2019-08-03T10:10:36Z</time>
      </trkpt>
      <trkpt lat="47.74051" lon="0.47419">
        <ele>129</ele>
        <time>2019-08-03T10:10:45Z</time>
      </trkpt>
      <trkpt lat="47.74059" lon="0.47427">
        <ele>128</ele>
        <time>2019-08-03T10:10:53Z</time>
      </trkpt>
      <trkpt lat="47.74065" lon="0.47431">
        <ele>128</ele>
        <time>2019-08-03T10:10:57Z</time>
      </trkpt>
      <trkpt lat="47.74069" lon="0.47434">
        <ele>127</ele>
        <time>2019-08-03T10:10:59Z</time>
      </trkpt>
      <trkpt lat="47.74075" lon="0.4744">
        <ele>128</ele>
        <time>2019-08-03T10:11:05Z</time>
      </trkpt>
      <trkpt lat="47.74098" lon="0.4746">
        <ele>124</ele>
        <time>2019-08-03T10:11:26Z</time>
      </trkpt>
      <trkpt lat="47.74114" lon="0.47472">
        <ele>127</ele>
        <time>2019-08-03T10:11:40Z</time>
      </trkpt>
      <trkpt lat="47.7412" lon="0.47479">
        <ele>126</ele>
        <time>2019-08-03T10:11:45Z</time>
      </trkpt>
      <trkpt lat="47.74122" lon="0.47481">
        <ele>126</ele>
        <time>2019-08-03T10:11:47Z</time>
      </trkpt>
      <trkpt lat="47.74142" lon="0.47503">
        <ele>126</ele>
        <time>2019-08-03T10:12:03Z</time>
      </trkpt>
      <trkpt lat="47.74144" lon="0.47507">
        <ele>126</ele>
        <time>2019-08-03T10:12:06Z</time>
      </trkpt>
      <trkpt lat="47.74146" lon="0.47511">
        <ele>127</ele>
        <time>2019-08-03T10:12:08Z</time>
      </trkpt>
      <trkpt lat="47.74149" lon="0.47513">
        <ele>127</ele>
        <time>2019-08-03T10:12:10Z</time>
      </trkpt>
      <trkpt lat="47.7415" lon="0.47509">
        <ele>126</ele>
        <time>2019-08-03T10:12:36Z</time>
      </trkpt>
      <trkpt lat="47.74174" lon="0.47539">
        <ele>121</ele>
        <time>2019-08-03T10:13:06Z</time>
      </trkpt>
      <trkpt lat="47.74182" lon="0.47549">
        <ele>120</ele>
        <time>2019-08-03T10:13:13Z</time>
      </trkpt>
      <trkpt lat="47.74195" lon="0.47559">
        <ele>124</ele>
        <time>2019-08-03T10:13:27Z</time>
      </trkpt>
      <trkpt lat="47.74204" lon="0.47569">
        <ele>125</ele>
        <time>2019-08-03T10:13:36Z</time>
      </trkpt>
      <trkpt lat="47.74207" lon="0.4757">
        <ele>125</ele>
        <time>2019-08-03T10:13:39Z</time>
      </trkpt>
      <trkpt lat="47.74241" lon="0.47595">
        <ele>127</ele>
        <time>2019-08-03T10:14:09Z</time>
      </trkpt>
      <trkpt lat="47.74255" lon="0.47604">
        <ele>129</ele>
        <time>2019-08-03T10:14:20Z</time>
      </trkpt>
      <trkpt lat="47.74259" lon="0.47605">
        <ele>128</ele>
        <time>2019-08-03T10:14:23Z</time>
      </trkpt>
      <trkpt lat="47.74273" lon="0.47618">
        <ele>129</ele>
        <time>2019-08-03T10:14:36Z</time>
      </trkpt>
      <trkpt lat="47.74283" lon="0.47623">
        <ele>129</ele>
        <time>2019-08-03T10:14:44Z</time>
      </trkpt>
      <trkpt lat="47.74301" lon="0.47639">
        <ele>129</ele>
        <time>2019-08-03T10:15:00Z</time>
      </trkpt>
      <trkpt lat="47.74341" lon="0.47656">
        <ele>127</ele>
        <time>2019-08-03T10:15:32Z</time>
      </trkpt>
      <trkpt lat="47.74344" lon="0.47657">
        <ele>128</ele>
        <time>2019-08-03T10:15:36Z</time>
      </trkpt>
      <trkpt lat="47.74347" lon="0.4766">
        <ele>128</ele>
        <time>2019-08-03T10:15:39Z</time>
      </trkpt>
      <trkpt lat="47.74351" lon="0.47663">
        <ele>127</ele>
        <time>2019-08-03T10:15:41Z</time>
      </trkpt>
      <trkpt lat="47.74354" lon="0.47664">
        <ele>127</ele>
        <time>2019-08-03T10:15:43Z</time>
      </trkpt>
      <trkpt lat="47.74374" lon="0.47677">
        <ele>126</ele>
        <time>2019-08-03T10:15:57Z</time>
      </trkpt>
      <trkpt lat="47.74377" lon="0.4768">
        <ele>126</ele>
        <time>2019-08-03T10:16:00Z</time>
      </trkpt>
      <trkpt lat="47.74387" lon="0.47686">
        <ele>126</ele>
        <time>2019-08-03T10:16:07Z</time>
      </trkpt>
      <trkpt lat="47.74401" lon="0.47692">
        <ele>128</ele>
        <time>2019-08-03T10:16:18Z</time>
      </trkpt>
      <trkpt lat="47.744" lon="0.47682">
        <ele>128</ele>
        <time>2019-08-03T10:16:25Z</time>
      </trkpt>
      <trkpt lat="47.74396" lon="0.47674">
        <ele>128</ele>
        <time>2019-08-03T10:16:31Z</time>
      </trkpt>
      <trkpt lat="47.74393" lon="0.47664">
        <ele>128</ele>
        <time>2019-08-03T10:16:40Z</time>
      </trkpt>
      <trkpt lat="47.74388" lon="0.47651">
        <ele>128</ele>
        <time>2019-08-03T10:16:48Z</time>
      </trkpt>
      <trkpt lat="47.74387" lon="0.47646">
        <ele>129</ele>
        <time>2019-08-03T10:16:53Z</time>
      </trkpt>
      <trkpt lat="47.74377" lon="0.47626">
        <ele>129</ele>
        <time>2019-08-03T10:17:04Z</time>
      </trkpt>
      <trkpt lat="47.74377" lon="0.47622">
        <ele>130</ele>
        <time>2019-08-03T10:17:06Z</time>
      </trkpt>
      <trkpt lat="47.74375" lon="0.47611">
        <ele>130</ele>
        <time>2019-08-03T10:17:10Z</time>
      </trkpt>
      <trkpt lat="47.74371" lon="0.47598">
        <ele>131</ele>
        <time>2019-08-03T10:17:19Z</time>
      </trkpt>
      <trkpt lat="47.74366" lon="0.47582">
        <ele>129</ele>
        <time>2019-08-03T10:17:27Z</time>
      </trkpt>
      <trkpt lat="47.74364" lon="0.47568">
        <ele>128</ele>
        <time>2019-08-03T10:17:33Z</time>
      </trkpt>
      <trkpt lat="47.74351" lon="0.47516">
        <ele>130</ele>
        <time>2019-08-03T10:18:00Z</time>
      </trkpt>
      <trkpt lat="47.7434" lon="0.47493">
        <ele>128</ele>
        <time>2019-08-03T10:18:14Z</time>
      </trkpt>
      <trkpt lat="47.74338" lon="0.47481">
        <ele>129</ele>
        <time>2019-08-03T10:18:20Z</time>
      </trkpt>
      <trkpt lat="47.74336" lon="0.47467">
        <ele>131</ele>
        <time>2019-08-03T10:18:26Z</time>
      </trkpt>
      <trkpt lat="47.74336" lon="0.47461">
        <ele>131</ele>
        <time>2019-08-03T10:18:29Z</time>
      </trkpt>
      <trkpt lat="47.74336" lon="0.47425">
        <ele>131</ele>
        <time>2019-08-03T10:18:45Z</time>
      </trkpt>
      <trkpt lat="47.74338" lon="0.47419">
        <ele>130</ele>
        <time>2019-08-03T10:18:47Z</time>
      </trkpt>
      <trkpt lat="47.74342" lon="0.47381">
        <ele>126</ele>
        <time>2019-08-03T10:19:04Z</time>
      </trkpt>
      <trkpt lat="47.74349" lon="0.4734">
        <ele>128</ele>
        <time>2019-08-03T10:19:25Z</time>
      </trkpt>
      <trkpt lat="47.74349" lon="0.4733">
        <ele>129</ele>
        <time>2019-08-03T10:19:30Z</time>
      </trkpt>
      <trkpt lat="47.74349" lon="0.47324">
        <ele>129</ele>
        <time>2019-08-03T10:19:33Z</time>
      </trkpt>
      <trkpt lat="47.74349" lon="0.47319">
        <ele>130</ele>
        <time>2019-08-03T10:19:36Z</time>
      </trkpt>
      <trkpt lat="47.74347" lon="0.47315">
        <ele>130</ele>
        <time>2019-08-03T10:19:39Z</time>
      </trkpt>
      <trkpt lat="47.74352" lon="0.47294">
        <ele>129</ele>
        <time>2019-08-03T10:19:52Z</time>
      </trkpt>
      <trkpt lat="47.74359" lon="0.47281">
        <ele>127</ele>
        <time>2019-08-03T10:20:00Z</time>
      </trkpt>
      <trkpt lat="47.74369" lon="0.47267">
        <ele>129</ele>
        <time>2019-08-03T10:20:11Z</time>
      </trkpt>
      <trkpt lat="47.74373" lon="0.47263">
        <ele>130</ele>
        <time>2019-08-03T10:20:14Z</time>
      </trkpt>
      <trkpt lat="47.74384" lon="0.47255">
        <ele>131</ele>
        <time>2019-08-03T10:20:23Z</time>
      </trkpt>
      <trkpt lat="47.74392" lon="0.47241">
        <ele>131</ele>
        <time>2019-08-03T10:20:32Z</time>
      </trkpt>
      <trkpt lat="47.74395" lon="0.47239">
        <ele>131</ele>
        <time>2019-08-03T10:20:34Z</time>
      </trkpt>
      <trkpt lat="47.74403" lon="0.47228">
        <ele>132</ele>
        <time>2019-08-03T10:20:40Z</time>
      </trkpt>
      <trkpt lat="47.74408" lon="0.47214">
        <ele>132</ele>
        <time>2019-08-03T10:20:47Z</time>
      </trkpt>
      <trkpt lat="47.7441" lon="0.47212">
        <ele>132</ele>
        <time>2019-08-03T10:20:50Z</time>
      </trkpt>
      <trkpt lat="47.74419" lon="0.4721">
        <ele>132</ele>
        <time>2019-08-03T10:20:56Z</time>
      </trkpt>
      <trkpt lat="47.74422" lon="0.47206">
        <ele>132</ele>
        <time>2019-08-03T10:21:00Z</time>
      </trkpt>
      <trkpt lat="47.74437" lon="0.47193">
        <ele>131</ele>
        <time>2019-08-03T10:21:12Z</time>
      </trkpt>
      <trkpt lat="47.74441" lon="0.47192">
        <ele>131</ele>
        <time>2019-08-03T10:21:15Z</time>
      </trkpt>
      <trkpt lat="47.74444" lon="0.47191">
        <ele>131</ele>
        <time>2019-08-03T10:21:17Z</time>
      </trkpt>
      <trkpt lat="47.74459" lon="0.47174">
        <ele>131</ele>
        <time>2019-08-03T10:21:29Z</time>
      </trkpt>
      <trkpt lat="47.74464" lon="0.47167">
        <ele>130</ele>
        <time>2019-08-03T10:21:34Z</time>
      </trkpt>
      <trkpt lat="47.74468" lon="0.47164">
        <ele>130</ele>
        <time>2019-08-03T10:21:37Z</time>
      </trkpt>
      <trkpt lat="47.74475" lon="0.47165">
        <ele>130</ele>
        <time>2019-08-03T10:21:42Z</time>
      </trkpt>
      <trkpt lat="47.74492" lon="0.47149">
        <ele>127</ele>
        <time>2019-08-03T10:21:57Z</time>
      </trkpt>
      <trkpt lat="47.74497" lon="0.47139">
        <ele>128</ele>
        <time>2019-08-03T10:22:03Z</time>
      </trkpt>
      <trkpt lat="47.74504" lon="0.47136">
        <ele>129</ele>
        <time>2019-08-03T10:22:09Z</time>
      </trkpt>
      <trkpt lat="47.74516" lon="0.47134">
        <ele>127</ele>
        <time>2019-08-03T10:22:17Z</time>
      </trkpt>
      <trkpt lat="47.74531" lon="0.47123">
        <ele>128</ele>
        <time>2019-08-03T10:22:27Z</time>
      </trkpt>
      <trkpt lat="47.74533" lon="0.4712">
        <ele>127</ele>
        <time>2019-08-03T10:22:29Z</time>
      </trkpt>
      <trkpt lat="47.74539" lon="0.47115">
        <ele>126</ele>
        <time>2019-08-03T10:22:35Z</time>
      </trkpt>
      <trkpt lat="47.74547" lon="0.47115">
        <ele>124</ele>
        <time>2019-08-03T10:22:40Z</time>
      </trkpt>
      <trkpt lat="47.74552" lon="0.47113">
        <ele>124</ele>
        <time>2019-08-03T10:22:44Z</time>
      </trkpt>
      <trkpt lat="47.74558" lon="0.47105">
        <ele>126</ele>
        <time>2019-08-03T10:22:49Z</time>
      </trkpt>
      <trkpt lat="47.74568" lon="0.47103">
        <ele>126</ele>
        <time>2019-08-03T10:22:55Z</time>
      </trkpt>
      <trkpt lat="47.74575" lon="0.47099">
        <ele>127</ele>
        <time>2019-08-03T10:23:00Z</time>
      </trkpt>
      <trkpt lat="47.74611" lon="0.47075">
        <ele>121</ele>
        <time>2019-08-03T10:23:30Z</time>
      </trkpt>
      <trkpt lat="47.74622" lon="0.47065">
        <ele>121</ele>
        <time>2019-08-03T10:23:39Z</time>
      </trkpt>
      <trkpt lat="47.74624" lon="0.47058">
        <ele>121</ele>
        <time>2019-08-03T10:23:43Z</time>
      </trkpt>
      <trkpt lat="47.74629" lon="0.47057">
        <ele>122</ele>
        <time>2019-08-03T10:23:46Z</time>
      </trkpt>
      <trkpt lat="47.74634" lon="0.47054">
        <ele>124</ele>
        <time>2019-08-03T10:23:50Z</time>
      </trkpt>
      <trkpt lat="47.74636" lon="0.4705">
        <ele>124</ele>
        <time>2019-08-03T10:23:53Z</time>
      </trkpt>
      <trkpt lat="47.74646" lon="0.47047">
        <ele>123</ele>
        <time>2019-08-03T10:23:59Z</time>
      </trkpt>
      <trkpt lat="47.74657" lon="0.47041">
        <ele>122</ele>
        <time>2019-08-03T10:24:08Z</time>
      </trkpt>
      <trkpt lat="47.7467" lon="0.47034">
        <ele>119</ele>
        <time>2019-08-03T10:24:17Z</time>
      </trkpt>
      <trkpt lat="47.74672" lon="0.47031">
        <ele>117</ele>
        <time>2019-08-03T10:24:19Z</time>
      </trkpt>
      <trkpt lat="47.7468" lon="0.47018">
        <ele>114</ele>
        <time>2019-08-03T10:24:28Z</time>
      </trkpt>
      <trkpt lat="47.7469" lon="0.47">
        <ele>115</ele>
        <time>2019-08-03T10:24:38Z</time>
      </trkpt>
      <trkpt lat="47.74692" lon="0.46995">
        <ele>115</ele>
        <time>2019-08-03T10:24:41Z</time>
      </trkpt>
      <trkpt lat="47.74696" lon="0.46977">
        <ele>114</ele>
        <time>2019-08-03T10:24:49Z</time>
      </trkpt>
      <trkpt lat="47.74701" lon="0.46969">
        <ele>109</ele>
        <time>2019-08-03T10:24:58Z</time>
      </trkpt>
      <trkpt lat="47.74704" lon="0.46965">
        <ele>107</ele>
        <time>2019-08-03T10:25:02Z</time>
      </trkpt>
      <trkpt lat="47.74706" lon="0.4696">
        <ele>107</ele>
        <time>2019-08-03T10:25:05Z</time>
      </trkpt>
      <trkpt lat="47.74713" lon="0.46941">
        <ele>106</ele>
        <time>2019-08-03T10:25:13Z</time>
      </trkpt>
      <trkpt lat="47.74719" lon="0.46939">
        <ele>105</ele>
        <time>2019-08-03T10:25:17Z</time>
      </trkpt>
      <trkpt lat="47.74721" lon="0.46934">
        <ele>104</ele>
        <time>2019-08-03T10:25:20Z</time>
      </trkpt>
      <trkpt lat="47.74724" lon="0.46928">
        <ele>105</ele>
        <time>2019-08-03T10:25:24Z</time>
      </trkpt>
      <trkpt lat="47.74729" lon="0.46916">
        <ele>103</ele>
        <time>2019-08-03T10:25:32Z</time>
      </trkpt>
      <trkpt lat="47.74733" lon="0.46911">
        <ele>102</ele>
        <time>2019-08-03T10:25:36Z</time>
      </trkpt>
      <trkpt lat="47.74742" lon="0.4689">
        <ele>96</ele>
        <time>2019-08-03T10:25:47Z</time>
      </trkpt>
      <trkpt lat="47.74745" lon="0.46873">
        <ele>97</ele>
        <time>2019-08-03T10:25:54Z</time>
      </trkpt>
      <trkpt lat="47.74752" lon="0.46868">
        <ele>99</ele>
        <time>2019-08-03T10:26:01Z</time>
      </trkpt>
      <trkpt lat="47.74755" lon="0.46868">
        <ele>98</ele>
        <time>2019-08-03T10:26:04Z</time>
      </trkpt>
      <trkpt lat="47.74758" lon="0.46867">
        <ele>97</ele>
        <time>2019-08-03T10:26:06Z</time>
      </trkpt>
      <trkpt lat="47.74768" lon="0.46852">
        <ele>97</ele>
        <time>2019-08-03T10:26:16Z</time>
      </trkpt>
      <trkpt lat="47.74771" lon="0.46845">
        <ele>96</ele>
        <time>2019-08-03T10:26:19Z</time>
      </trkpt>
      <trkpt lat="47.74774" lon="0.46839">
        <ele>96</ele>
        <time>2019-08-03T10:26:22Z</time>
      </trkpt>
      <trkpt lat="47.74782" lon="0.46833">
        <ele>98</ele>
        <time>2019-08-03T10:26:29Z</time>
      </trkpt>
      <trkpt lat="47.74786" lon="0.46833">
        <ele>98</ele>
        <time>2019-08-03T10:26:32Z</time>
      </trkpt>
      <trkpt lat="47.74791" lon="0.46833">
        <ele>96</ele>
        <time>2019-08-03T10:26:35Z</time>
      </trkpt>
      <trkpt lat="47.74806" lon="0.46832">
        <ele>92</ele>
        <time>2019-08-03T10:26:43Z</time>
      </trkpt>
      <trkpt lat="47.74808" lon="0.46828">
        <ele>96</ele>
        <time>2019-08-03T10:26:46Z</time>
      </trkpt>
      <trkpt lat="47.74811" lon="0.46824">
        <ele>97</ele>
        <time>2019-08-03T10:26:48Z</time>
      </trkpt>
      <trkpt lat="47.74815" lon="0.46823">
        <ele>99</ele>
        <time>2019-08-03T10:26:51Z</time>
      </trkpt>
      <trkpt lat="47.74825" lon="0.46819">
        <ele>100</ele>
        <time>2019-08-03T10:27:00Z</time>
      </trkpt>
      <trkpt lat="47.74832" lon="0.46819">
        <ele>98</ele>
        <time>2019-08-03T10:27:07Z</time>
      </trkpt>
      <trkpt lat="47.74852" lon="0.46803">
        <ele>100</ele>
        <time>2019-08-03T10:27:21Z</time>
      </trkpt>
      <trkpt lat="47.74856" lon="0.46792">
        <ele>100</ele>
        <time>2019-08-03T10:27:28Z</time>
      </trkpt>
      <trkpt lat="47.74855" lon="0.46779">
        <ele>102</ele>
        <time>2019-08-03T10:27:37Z</time>
      </trkpt>
      <trkpt lat="47.7485" lon="0.46766">
        <ele>99</ele>
        <time>2019-08-03T10:27:45Z</time>
      </trkpt>
      <trkpt lat="47.74843" lon="0.46758">
        <ele>95</ele>
        <time>2019-08-03T10:27:54Z</time>
      </trkpt>
      <trkpt lat="47.74835" lon="0.46754">
        <ele>97</ele>
        <time>2019-08-03T10:28:02Z</time>
      </trkpt>
      <trkpt lat="47.74826" lon="0.4675">
        <ele>101</ele>
        <time>2019-08-03T10:28:09Z</time>
      </trkpt>
      <trkpt lat="47.74819" lon="0.46739">
        <ele>102</ele>
        <time>2019-08-03T10:28:16Z</time>
      </trkpt>
      <trkpt lat="47.74808" lon="0.46717">
        <ele>100</ele>
        <time>2019-08-03T10:28:29Z</time>
      </trkpt>
      <trkpt lat="47.74807" lon="0.467">
        <ele>96</ele>
        <time>2019-08-03T10:28:53Z</time>
      </trkpt>
      <trkpt lat="47.74799" lon="0.46687">
        <ele>93</ele>
        <time>2019-08-03T10:28:58Z</time>
      </trkpt>
      <trkpt lat="47.74788" lon="0.46667">
        <ele>87</ele>
        <time>2019-08-03T10:29:09Z</time>
      </trkpt>
      <trkpt lat="47.74782" lon="0.46656">
        <ele>84</ele>
        <time>2019-08-03T10:29:15Z</time>
      </trkpt>
      <trkpt lat="47.74778" lon="0.46644">
        <ele>80</ele>
        <time>2019-08-03T10:29:23Z</time>
      </trkpt>
      <trkpt lat="47.74778" lon="0.46636">
        <ele>85</ele>
        <time>2019-08-03T10:29:45Z</time>
      </trkpt>
      <trkpt lat="47.74778" lon="0.46636">
        <ele>86</ele>
        <time>2019-08-03T10:32:50Z</time>
      </trkpt>
      <trkpt lat="47.74765" lon="0.46624">
        <ele>88</ele>
        <time>2019-08-03T10:33:04Z</time>
      </trkpt>
      <trkpt lat="47.74762" lon="0.4662">
        <ele>90</ele>
        <time>2019-08-03T10:33:08Z</time>
      </trkpt>
      <trkpt lat="47.74759" lon="0.46613">
        <ele>89</ele>
        <time>2019-08-03T10:33:12Z</time>
      </trkpt>
      <trkpt lat="47.7474" lon="0.46579">
        <ele>85</ele>
        <time>2019-08-03T10:33:32Z</time>
      </trkpt>
      <trkpt lat="47.74735" lon="0.46572">
        <ele>85</ele>
        <time>2019-08-03T10:33:36Z</time>
      </trkpt>
      <trkpt lat="47.74728" lon="0.4656">
        <ele>87</ele>
        <time>2019-08-03T10:33:45Z</time>
      </trkpt>
      <trkpt lat="47.74719" lon="0.46554">
        <ele>88</ele>
        <time>2019-08-03T10:33:51Z</time>
      </trkpt>
      <trkpt lat="47.74699" lon="0.46522">
        <ele>89</ele>
        <time>2019-08-03T10:34:11Z</time>
      </trkpt>
      <trkpt lat="47.74689" lon="0.46499">
        <ele>87</ele>
        <time>2019-08-03T10:34:23Z</time>
      </trkpt>
      <trkpt lat="47.74681" lon="0.46492">
        <ele>87</ele>
        <time>2019-08-03T10:34:31Z</time>
      </trkpt>
      <trkpt lat="47.74666" lon="0.46474">
        <ele>88</ele>
        <time>2019-08-03T10:34:47Z</time>
      </trkpt>
      <trkpt lat="47.74645" lon="0.46447">
        <ele>88</ele>
        <time>2019-08-03T10:35:08Z</time>
      </trkpt>
      <trkpt lat="47.7463" lon="0.46426">
        <ele>80</ele>
        <time>2019-08-03T10:35:22Z</time>
      </trkpt>
      <trkpt lat="47.7462" lon="0.4642">
        <ele>81</ele>
        <time>2019-08-03T10:35:27Z</time>
      </trkpt>
      <trkpt lat="47.74612" lon="0.46412">
        <ele>79</ele>
        <time>2019-08-03T10:35:32Z</time>
      </trkpt>
      <trkpt lat="47.74594" lon="0.46412">
        <ele>76</ele>
        <time>2019-08-03T10:35:52Z</time>
      </trkpt>
      <trkpt lat="47.74583" lon="0.46408">
        <ele>80</ele>
        <time>2019-08-03T10:35:58Z</time>
      </trkpt>
      <trkpt lat="47.74555" lon="0.46361">
        <ele>79</ele>
        <time>2019-08-03T10:36:29Z</time>
      </trkpt>
      <trkpt lat="47.74546" lon="0.4635">
        <ele>76</ele>
        <time>2019-08-03T10:36:37Z</time>
      </trkpt>
      <trkpt lat="47.74543" lon="0.46347">
        <ele>76</ele>
        <time>2019-08-03T10:36:40Z</time>
      </trkpt>
      <trkpt lat="47.74542" lon="0.46343">
        <ele>77</ele>
        <time>2019-08-03T10:36:43Z</time>
      </trkpt>
      <trkpt lat="47.74539" lon="0.46337">
        <ele>78</ele>
        <time>2019-08-03T10:36:46Z</time>
      </trkpt>
      <trkpt lat="47.74536" lon="0.46329">
        <ele>80</ele>
        <time>2019-08-03T10:36:50Z</time>
      </trkpt>
      <trkpt lat="47.74533" lon="0.4632">
        <ele>81</ele>
        <time>2019-08-03T10:36:55Z</time>
      </trkpt>
      <trkpt lat="47.74532" lon="0.46315">
        <ele>82</ele>
        <time>2019-08-03T10:36:59Z</time>
      </trkpt>
      <trkpt lat="47.74528" lon="0.46295">
        <ele>82</ele>
        <time>2019-08-03T10:37:09Z</time>
      </trkpt>
      <trkpt lat="47.74526" lon="0.46261">
        <ele>82</ele>
        <time>2019-08-03T10:37:25Z</time>
      </trkpt>
      <trkpt lat="47.74527" lon="0.46256">
        <ele>82</ele>
        <time>2019-08-03T10:37:27Z</time>
      </trkpt>
      <trkpt lat="47.74526" lon="0.4625">
        <ele>81</ele>
        <time>2019-08-03T10:37:29Z</time>
      </trkpt>
      <trkpt lat="47.74525" lon="0.46246">
        <ele>81</ele>
        <time>2019-08-03T10:37:30Z</time>
      </trkpt>
      <trkpt lat="47.74523" lon="0.46241">
        <ele>81</ele>
        <time>2019-08-03T10:37:33Z</time>
      </trkpt>
      <trkpt lat="47.74523" lon="0.46235">
        <ele>82</ele>
        <time>2019-08-03T10:37:36Z</time>
      </trkpt>
      <trkpt lat="47.74527" lon="0.46177">
        <ele>85</ele>
        <time>2019-08-03T10:38:05Z</time>
      </trkpt>
      <trkpt lat="47.74526" lon="0.4616">
        <ele>83</ele>
        <time>2019-08-03T10:38:29Z</time>
      </trkpt>
      <trkpt lat="47.74529" lon="0.46146">
        <ele>81</ele>
        <time>2019-08-03T10:38:38Z</time>
      </trkpt>
      <trkpt lat="47.74529" lon="0.46135">
        <ele>79</ele>
        <time>2019-08-03T10:38:45Z</time>
      </trkpt>
      <trkpt lat="47.74528" lon="0.46131">
        <ele>79</ele>
        <time>2019-08-03T10:38:47Z</time>
      </trkpt>
      <trkpt lat="47.74529" lon="0.46126">
        <ele>79</ele>
        <time>2019-08-03T10:38:50Z</time>
      </trkpt>
      <trkpt lat="47.74529" lon="0.4612">
        <ele>79</ele>
        <time>2019-08-03T10:38:53Z</time>
      </trkpt>
      <trkpt lat="47.74523" lon="0.46059">
        <ele>76</ele>
        <time>2019-08-03T10:39:25Z</time>
      </trkpt>
      <trkpt lat="47.74515" lon="0.46032">
        <ele>74</ele>
        <time>2019-08-03T10:39:38Z</time>
      </trkpt>
      <trkpt lat="47.74513" lon="0.46028">
        <ele>73</ele>
        <time>2019-08-03T10:39:41Z</time>
      </trkpt>
      <trkpt lat="47.74512" lon="0.46023">
        <ele>73</ele>
        <time>2019-08-03T10:39:43Z</time>
      </trkpt>
      <trkpt lat="47.74487" lon="0.45981">
        <ele>76</ele>
        <time>2019-08-03T10:40:10Z</time>
      </trkpt>
      <trkpt lat="47.74484" lon="0.45977">
        <ele>76</ele>
        <time>2019-08-03T10:40:13Z</time>
      </trkpt>
      <trkpt lat="47.74482" lon="0.45973">
        <ele>74</ele>
        <time>2019-08-03T10:40:16Z</time>
      </trkpt>
      <trkpt lat="47.74471" lon="0.45953">
        <ele>75</ele>
        <time>2019-08-03T10:40:28Z</time>
      </trkpt>
      <trkpt lat="47.74468" lon="0.45945">
        <ele>76</ele>
        <time>2019-08-03T10:40:32Z</time>
      </trkpt>
      <trkpt lat="47.74459" lon="0.45929">
        <ele>77</ele>
        <time>2019-08-03T10:40:43Z</time>
      </trkpt>
      <trkpt lat="47.74451" lon="0.45901">
        <ele>77</ele>
        <time>2019-08-03T10:40:58Z</time>
      </trkpt>
      <trkpt lat="47.7445" lon="0.45896">
        <ele>76</ele>
        <time>2019-08-03T10:41:01Z</time>
      </trkpt>
      <trkpt lat="47.74428" lon="0.45844">
        <ele>72</ele>
        <time>2019-08-03T10:41:31Z</time>
      </trkpt>
      <trkpt lat="47.74403" lon="0.45799">
        <ele>77</ele>
        <time>2019-08-03T10:41:59Z</time>
      </trkpt>
      <trkpt lat="47.74402" lon="0.45796">
        <ele>78</ele>
        <time>2019-08-03T10:42:01Z</time>
      </trkpt>
      <trkpt lat="47.74399" lon="0.4579">
        <ele>77</ele>
        <time>2019-08-03T10:42:04Z</time>
      </trkpt>
      <trkpt lat="47.7439" lon="0.45785">
        <ele>76</ele>
        <time>2019-08-03T10:42:10Z</time>
      </trkpt>
      <trkpt lat="47.74387" lon="0.45781">
        <ele>78</ele>
        <time>2019-08-03T10:42:13Z</time>
      </trkpt>
      <trkpt lat="47.74385" lon="0.45778">
        <ele>79</ele>
        <time>2019-08-03T10:42:16Z</time>
      </trkpt>
      <trkpt lat="47.74379" lon="0.45761">
        <ele>80</ele>
        <time>2019-08-03T10:42:28Z</time>
      </trkpt>
      <trkpt lat="47.74374" lon="0.45753">
        <ele>84</ele>
        <time>2019-08-03T10:42:34Z</time>
      </trkpt>
      <trkpt lat="47.74372" lon="0.45748">
        <ele>85</ele>
        <time>2019-08-03T10:42:37Z</time>
      </trkpt>
      <trkpt lat="47.7437" lon="0.45735">
        <ele>84</ele>
        <time>2019-08-03T10:42:44Z</time>
      </trkpt>
      <trkpt lat="47.7437" lon="0.45718">
        <ele>76</ele>
        <time>2019-08-03T10:42:50Z</time>
      </trkpt>
      <trkpt lat="47.74371" lon="0.45713">
        <ele>73</ele>
        <time>2019-08-03T10:42:53Z</time>
      </trkpt>
      <trkpt lat="47.74374" lon="0.4571">
        <ele>72</ele>
        <time>2019-08-03T10:43:00Z</time>
      </trkpt>
      <trkpt lat="47.7438" lon="0.45707">
        <ele>72</ele>
        <time>2019-08-03T10:43:06Z</time>
      </trkpt>
      <trkpt lat="47.74387" lon="0.45706">
        <ele>73</ele>
        <time>2019-08-03T10:43:13Z</time>
      </trkpt>
      <trkpt lat="47.74387" lon="0.457">
        <ele>74</ele>
        <time>2019-08-03T10:43:24Z</time>
      </trkpt>
      <trkpt lat="47.74391" lon="0.457">
        <ele>75</ele>
        <time>2019-08-03T10:43:30Z</time>
      </trkpt>
      <trkpt lat="47.74409" lon="0.45711">
        <ele>79</ele>
        <time>2019-08-03T10:43:47Z</time>
      </trkpt>
      <trkpt lat="47.74412" lon="0.45712">
        <ele>79</ele>
        <time>2019-08-03T10:43:51Z</time>
      </trkpt>
      <trkpt lat="47.74416" lon="0.45713">
        <ele>79</ele>
        <time>2019-08-03T10:43:54Z</time>
      </trkpt>
      <trkpt lat="47.74419" lon="0.45713">
        <ele>79</ele>
        <time>2019-08-03T10:43:57Z</time>
      </trkpt>
      <trkpt lat="47.74427" lon="0.4572">
        <ele>80</ele>
        <time>2019-08-03T10:44:09Z</time>
      </trkpt>
      <trkpt lat="47.74444" lon="0.45728">
        <ele>89</ele>
        <time>2019-08-03T10:44:36Z</time>
      </trkpt>
      <trkpt lat="47.74457" lon="0.45749">
        <ele>94</ele>
        <time>2019-08-03T10:44:49Z</time>
      </trkpt>
      <trkpt lat="47.74463" lon="0.4576">
        <ele>96</ele>
        <time>2019-08-03T10:44:58Z</time>
      </trkpt>
      <trkpt lat="47.74471" lon="0.45765">
        <ele>100</ele>
        <time>2019-08-03T10:45:25Z</time>
      </trkpt>
      <trkpt lat="47.74479" lon="0.4577">
        <ele>105</ele>
        <time>2019-08-03T10:45:32Z</time>
      </trkpt>
      <trkpt lat="47.74487" lon="0.45763">
        <ele>109</ele>
        <time>2019-08-03T10:45:44Z</time>
      </trkpt>
      <trkpt lat="47.74497" lon="0.45772">
        <ele>112</ele>
        <time>2019-08-03T10:45:51Z</time>
      </trkpt>
      <trkpt lat="47.74515" lon="0.45781">
        <ele>113</ele>
        <time>2019-08-03T10:46:11Z</time>
      </trkpt>
      <trkpt lat="47.74524" lon="0.4578">
        <ele>117</ele>
        <time>2019-08-03T10:46:26Z</time>
      </trkpt>
      <trkpt lat="47.74531" lon="0.4579">
        <ele>122</ele>
        <time>2019-08-03T10:46:36Z</time>
      </trkpt>
      <trkpt lat="47.74539" lon="0.45792">
        <ele>119</ele>
        <time>2019-08-03T10:46:43Z</time>
      </trkpt>
      <trkpt lat="47.74547" lon="0.45791">
        <ele>116</ele>
        <time>2019-08-03T10:46:49Z</time>
      </trkpt>
      <trkpt lat="47.74549" lon="0.45786">
        <ele>116</ele>
        <time>2019-08-03T10:46:54Z</time>
      </trkpt>
      <trkpt lat="47.74554" lon="0.45789">
        <ele>116</ele>
        <time>2019-08-03T10:46:57Z</time>
      </trkpt>
      <trkpt lat="47.74575" lon="0.45788">
        <ele>116</ele>
        <time>2019-08-03T10:47:15Z</time>
      </trkpt>
      <trkpt lat="47.74579" lon="0.45788">
        <ele>115</ele>
        <time>2019-08-03T10:47:18Z</time>
      </trkpt>
      <trkpt lat="47.7459" lon="0.45794">
        <ele>115</ele>
        <time>2019-08-03T10:47:28Z</time>
      </trkpt>
      <trkpt lat="47.7459" lon="0.458">
        <ele>114</ele>
        <time>2019-08-03T10:47:43Z</time>
      </trkpt>
      <trkpt lat="47.74591" lon="0.45804">
        <ele>115</ele>
        <time>2019-08-03T10:47:46Z</time>
      </trkpt>
      <trkpt lat="47.74599" lon="0.4582">
        <ele>118</ele>
        <time>2019-08-03T10:48:00Z</time>
      </trkpt>
      <trkpt lat="47.74603" lon="0.45825">
        <ele>120</ele>
        <time>2019-08-03T10:48:03Z</time>
      </trkpt>
      <trkpt lat="47.74607" lon="0.45862">
        <ele>126</ele>
        <time>2019-08-03T10:48:30Z</time>
      </trkpt>
      <trkpt lat="47.74609" lon="0.45866">
        <ele>125</ele>
        <time>2019-08-03T10:48:32Z</time>
      </trkpt>
      <trkpt lat="47.74611" lon="0.45869">
        <ele>125</ele>
        <time>2019-08-03T10:48:34Z</time>
      </trkpt>
      <trkpt lat="47.74629" lon="0.45879">
        <ele>124</ele>
        <time>2019-08-03T10:49:12Z</time>
      </trkpt>
      <trkpt lat="47.74645" lon="0.45895">
        <ele>125</ele>
        <time>2019-08-03T10:49:43Z</time>
      </trkpt>
      <trkpt lat="47.74659" lon="0.45918">
        <ele>123</ele>
        <time>2019-08-03T10:49:56Z</time>
      </trkpt>
      <trkpt lat="47.74676" lon="0.45962">
        <ele>120</ele>
        <time>2019-08-03T10:50:21Z</time>
      </trkpt>
      <trkpt lat="47.74684" lon="0.45973">
        <ele>122</ele>
        <time>2019-08-03T10:50:30Z</time>
      </trkpt>
      <trkpt lat="47.74688" lon="0.45976">
        <ele>122</ele>
        <time>2019-08-03T10:50:34Z</time>
      </trkpt>
      <trkpt lat="47.74706" lon="0.46003">
        <ele>120</ele>
        <time>2019-08-03T10:50:56Z</time>
      </trkpt>
      <trkpt lat="47.74729" lon="0.46023">
        <ele>124</ele>
        <time>2019-08-03T10:51:19Z</time>
      </trkpt>
      <trkpt lat="47.74733" lon="0.46023">
        <ele>125</ele>
        <time>2019-08-03T10:51:22Z</time>
      </trkpt>
      <trkpt lat="47.74763" lon="0.4604">
        <ele>129</ele>
        <time>2019-08-03T10:51:48Z</time>
      </trkpt>
      <trkpt lat="47.74766" lon="0.46045">
        <ele>127</ele>
        <time>2019-08-03T10:51:51Z</time>
      </trkpt>
      <trkpt lat="47.74769" lon="0.46054">
        <ele>124</ele>
        <time>2019-08-03T10:51:56Z</time>
      </trkpt>
      <trkpt lat="47.74775" lon="0.4606">
        <ele>123</ele>
        <time>2019-08-03T10:52:01Z</time>
      </trkpt>
      <trkpt lat="47.74777" lon="0.46065">
        <ele>123</ele>
        <time>2019-08-03T10:52:04Z</time>
      </trkpt>
      <trkpt lat="47.74783" lon="0.46071">
        <ele>124</ele>
        <time>2019-08-03T10:52:10Z</time>
      </trkpt>
      <trkpt lat="47.74786" lon="0.46075">
        <ele>124</ele>
        <time>2019-08-03T10:52:13Z</time>
      </trkpt>
      <trkpt lat="47.74788" lon="0.46078">
        <ele>125</ele>
        <time>2019-08-03T10:52:15Z</time>
      </trkpt>
      <trkpt lat="47.7479" lon="0.46083">
        <ele>125</ele>
        <time>2019-08-03T10:52:18Z</time>
      </trkpt>
      <trkpt lat="47.74796" lon="0.46091">
        <ele>124</ele>
        <time>2019-08-03T10:52:24Z</time>
      </trkpt>
      <trkpt lat="47.74798" lon="0.46094">
        <ele>124</ele>
        <time>2019-08-03T10:52:29Z</time>
      </trkpt>
      <trkpt lat="47.74801" lon="0.46094">
        <ele>124</ele>
        <time>2019-08-03T10:52:34Z</time>
      </trkpt>
      <trkpt lat="47.74842" lon="0.4613">
        <ele>124</ele>
        <time>2019-08-03T10:53:04Z</time>
      </trkpt>
      <trkpt lat="47.74859" lon="0.46141">
        <ele>126</ele>
        <time>2019-08-03T10:53:21Z</time>
      </trkpt>
      <trkpt lat="47.74862" lon="0.46141">
        <ele>125</ele>
        <time>2019-08-03T10:53:23Z</time>
      </trkpt>
      <trkpt lat="47.74869" lon="0.46144">
        <ele>127</ele>
        <time>2019-08-03T10:53:29Z</time>
      </trkpt>
      <trkpt lat="47.74878" lon="0.46154">
        <ele>128</ele>
        <time>2019-08-03T10:53:38Z</time>
      </trkpt>
      <trkpt lat="47.74904" lon="0.46158">
        <ele>129</ele>
        <time>2019-08-03T10:54:00Z</time>
      </trkpt>
      <trkpt lat="47.74908" lon="0.46159">
        <ele>129</ele>
        <time>2019-08-03T10:54:03Z</time>
      </trkpt>
      <trkpt lat="47.74911" lon="0.46161">
        <ele>128</ele>
        <time>2019-08-03T10:54:06Z</time>
      </trkpt>
      <trkpt lat="47.74922" lon="0.46164">
        <ele>129</ele>
        <time>2019-08-03T10:54:16Z</time>
      </trkpt>
      <trkpt lat="47.74926" lon="0.46165">
        <ele>129</ele>
        <time>2019-08-03T10:54:18Z</time>
      </trkpt>
      <trkpt lat="47.74929" lon="0.46165">
        <ele>128</ele>
        <time>2019-08-03T10:54:20Z</time>
      </trkpt>
      <trkpt lat="47.74933" lon="0.46163">
        <ele>128</ele>
        <time>2019-08-03T10:54:22Z</time>
      </trkpt>
      <trkpt lat="47.74936" lon="0.46164">
        <ele>128</ele>
        <time>2019-08-03T10:54:25Z</time>
      </trkpt>
      <trkpt lat="47.74939" lon="0.46168">
        <ele>128</ele>
        <time>2019-08-03T10:54:27Z</time>
      </trkpt>
      <trkpt lat="47.74942" lon="0.46172">
        <ele>127</ele>
        <time>2019-08-03T10:54:29Z</time>
      </trkpt>
      <trkpt lat="47.74949" lon="0.46173">
        <ele>125</ele>
        <time>2019-08-03T10:54:33Z</time>
      </trkpt>
      <trkpt lat="47.74952" lon="0.46171">
        <ele>124</ele>
        <time>2019-08-03T10:54:36Z</time>
      </trkpt>
      <trkpt lat="47.74956" lon="0.46172">
        <ele>125</ele>
        <time>2019-08-03T10:54:39Z</time>
      </trkpt>
      <trkpt lat="47.74959" lon="0.46172">
        <ele>126</ele>
        <time>2019-08-03T10:54:42Z</time>
      </trkpt>
      <trkpt lat="47.74962" lon="0.4617">
        <ele>126</ele>
        <time>2019-08-03T10:54:45Z</time>
      </trkpt>
      <trkpt lat="47.74965" lon="0.46168">
        <ele>126</ele>
        <time>2019-08-03T10:54:48Z</time>
      </trkpt>
      <trkpt lat="47.74984" lon="0.4617">
        <ele>128</ele>
        <time>2019-08-03T10:55:02Z</time>
      </trkpt>
      <trkpt lat="47.74998" lon="0.46167">
        <ele>130</ele>
        <time>2019-08-03T10:55:14Z</time>
      </trkpt>
      <trkpt lat="47.7501" lon="0.46167">
        <ele>130</ele>
        <time>2019-08-03T10:55:24Z</time>
      </trkpt>
      <trkpt lat="47.75014" lon="0.46166">
        <ele>130</ele>
        <time>2019-08-03T10:55:27Z</time>
      </trkpt>
      <trkpt lat="47.75017" lon="0.46165">
        <ele>130</ele>
        <time>2019-08-03T10:55:30Z</time>
      </trkpt>
      <trkpt lat="47.75021" lon="0.46165">
        <ele>130</ele>
        <time>2019-08-03T10:55:33Z</time>
      </trkpt>
      <trkpt lat="47.75023" lon="0.46168">
        <ele>130</ele>
        <time>2019-08-03T10:55:38Z</time>
      </trkpt>
      <trkpt lat="47.75026" lon="0.46168">
        <ele>131</ele>
        <time>2019-08-03T10:56:06Z</time>
      </trkpt>
      <trkpt lat="47.75043" lon="0.46177">
        <ele>131</ele>
        <time>2019-08-03T10:56:21Z</time>
      </trkpt>
      <trkpt lat="47.75047" lon="0.46179">
        <ele>131</ele>
        <time>2019-08-03T10:56:24Z</time>
      </trkpt>
      <trkpt lat="47.75057" lon="0.46187">
        <ele>131</ele>
        <time>2019-08-03T10:56:33Z</time>
      </trkpt>
      <trkpt lat="47.75073" lon="0.462">
        <ele>131</ele>
        <time>2019-08-03T10:56:51Z</time>
      </trkpt>
      <trkpt lat="47.751" lon="0.46212">
        <ele>129</ele>
        <time>2019-08-03T10:57:13Z</time>
      </trkpt>
      <trkpt lat="47.75103" lon="0.46213">
        <ele>129</ele>
        <time>2019-08-03T10:57:16Z</time>
      </trkpt>
      <trkpt lat="47.75106" lon="0.46216">
        <ele>129</ele>
        <time>2019-08-03T10:57:18Z</time>
      </trkpt>
      <trkpt lat="47.75133" lon="0.46222">
        <ele>130</ele>
        <time>2019-08-03T10:57:38Z</time>
      </trkpt>
      <trkpt lat="47.75136" lon="0.46224">
        <ele>129</ele>
        <time>2019-08-03T10:57:40Z</time>
      </trkpt>
      <trkpt lat="47.7514" lon="0.46226">
        <ele>129</ele>
        <time>2019-08-03T10:57:43Z</time>
      </trkpt>
      <trkpt lat="47.75143" lon="0.46227">
        <ele>129</ele>
        <time>2019-08-03T10:57:45Z</time>
      </trkpt>
      <trkpt lat="47.75165" lon="0.46233">
        <ele>129</ele>
        <time>2019-08-03T10:58:02Z</time>
      </trkpt>
      <trkpt lat="47.75194" lon="0.46234">
        <ele>128</ele>
        <time>2019-08-03T10:58:27Z</time>
      </trkpt>
      <trkpt lat="47.75205" lon="0.46236">
        <ele>129</ele>
        <time>2019-08-03T10:58:35Z</time>
      </trkpt>
      <trkpt lat="47.75218" lon="0.46239">
        <ele>129</ele>
        <time>2019-08-03T10:58:46Z</time>
      </trkpt>
      <trkpt lat="47.75222" lon="0.4624">
        <ele>129</ele>
        <time>2019-08-03T10:58:49Z</time>
      </trkpt>
      <trkpt lat="47.75237" lon="0.46242">
        <ele>131</ele>
        <time>2019-08-03T10:59:02Z</time>
      </trkpt>
      <trkpt lat="47.75243" lon="0.46246">
        <ele>131</ele>
        <time>2019-08-03T10:59:06Z</time>
      </trkpt>
      <trkpt lat="47.75267" lon="0.46254">
        <ele>131</ele>
        <time>2019-08-03T10:59:23Z</time>
      </trkpt>
      <trkpt lat="47.7527" lon="0.46255">
        <ele>131</ele>
        <time>2019-08-03T10:59:25Z</time>
      </trkpt>
      <trkpt lat="47.75291" lon="0.46244">
        <ele>130</ele>
        <time>2019-08-03T10:59:43Z</time>
      </trkpt>
      <trkpt lat="47.75295" lon="0.46242">
        <ele>130</ele>
        <time>2019-08-03T10:59:46Z</time>
      </trkpt>
      <trkpt lat="47.75302" lon="0.46238">
        <ele>129</ele>
        <time>2019-08-03T10:59:52Z</time>
      </trkpt>
      <trkpt lat="47.75305" lon="0.46237">
        <ele>129</ele>
        <time>2019-08-03T10:59:56Z</time>
      </trkpt>
      <trkpt lat="47.75311" lon="0.46242">
        <ele>129</ele>
        <time>2019-08-03T11:00:04Z</time>
      </trkpt>
      <trkpt lat="47.7531" lon="0.4624">
        <ele>129</ele>
        <time>2019-08-03T11:02:39Z</time>
      </trkpt>
      <trkpt lat="47.75341" lon="0.462">
        <ele>132</ele>
        <time>2019-08-03T11:03:10Z</time>
      </trkpt>
      <trkpt lat="47.75351" lon="0.46181">
        <ele>131</ele>
        <time>2019-08-03T11:03:23Z</time>
      </trkpt>
      <trkpt lat="47.75358" lon="0.46164">
        <ele>130</ele>
        <time>2019-08-03T11:03:33Z</time>
      </trkpt>
      <trkpt lat="47.75359" lon="0.4616">
        <ele>130</ele>
        <time>2019-08-03T11:03:36Z</time>
      </trkpt>
      <trkpt lat="47.75362" lon="0.4615">
        <ele>129</ele>
        <time>2019-08-03T11:03:43Z</time>
      </trkpt>
      <trkpt lat="47.75363" lon="0.46144">
        <ele>129</ele>
        <time>2019-08-03T11:03:46Z</time>
      </trkpt>
      <trkpt lat="47.75366" lon="0.46128">
        <ele>129</ele>
        <time>2019-08-03T11:03:54Z</time>
      </trkpt>
      <trkpt lat="47.75368" lon="0.46125">
        <ele>128</ele>
        <time>2019-08-03T11:03:57Z</time>
      </trkpt>
      <trkpt lat="47.75374" lon="0.46085">
        <ele>128</ele>
        <time>2019-08-03T11:04:17Z</time>
      </trkpt>
      <trkpt lat="47.75377" lon="0.46076">
        <ele>124</ele>
        <time>2019-08-03T11:04:23Z</time>
      </trkpt>
      <trkpt lat="47.75379" lon="0.46072">
        <ele>123</ele>
        <time>2019-08-03T11:04:26Z</time>
      </trkpt>
      <trkpt lat="47.75381" lon="0.46067">
        <ele>123</ele>
        <time>2019-08-03T11:04:29Z</time>
      </trkpt>
      <trkpt lat="47.75383" lon="0.46057">
        <ele>124</ele>
        <time>2019-08-03T11:04:34Z</time>
      </trkpt>
      <trkpt lat="47.75389" lon="0.46042">
        <ele>124</ele>
        <time>2019-08-03T11:04:43Z</time>
      </trkpt>
      <trkpt lat="47.75392" lon="0.4601">
        <ele>126</ele>
        <time>2019-08-03T11:05:00Z</time>
      </trkpt>
      <trkpt lat="47.75393" lon="0.45985">
        <ele>125</ele>
        <time>2019-08-03T11:05:10Z</time>
      </trkpt>
      <trkpt lat="47.75393" lon="0.4597">
        <ele>126</ele>
        <time>2019-08-03T11:05:19Z</time>
      </trkpt>
      <trkpt lat="47.75393" lon="0.45965">
        <ele>126</ele>
        <time>2019-08-03T11:05:22Z</time>
      </trkpt>
      <trkpt lat="47.75385" lon="0.45908">
        <ele>129</ele>
        <time>2019-08-03T11:05:53Z</time>
      </trkpt>
      <trkpt lat="47.75388" lon="0.45897">
        <ele>127</ele>
        <time>2019-08-03T11:05:57Z</time>
      </trkpt>
      <trkpt lat="47.75387" lon="0.45892">
        <ele>127</ele>
        <time>2019-08-03T11:05:59Z</time>
      </trkpt>
      <trkpt lat="47.75387" lon="0.45887">
        <ele>128</ele>
        <time>2019-08-03T11:06:01Z</time>
      </trkpt>
      <trkpt lat="47.75392" lon="0.45874">
        <ele>128</ele>
        <time>2019-08-03T11:06:08Z</time>
      </trkpt>
      <trkpt lat="47.75397" lon="0.45866">
        <ele>130</ele>
        <time>2019-08-03T11:06:15Z</time>
      </trkpt>
      <trkpt lat="47.75406" lon="0.45863">
        <ele>130</ele>
        <time>2019-08-03T11:06:23Z</time>
      </trkpt>
      <trkpt lat="47.75429" lon="0.45857">
        <ele>129</ele>
        <time>2019-08-03T11:06:39Z</time>
      </trkpt>
      <trkpt lat="47.75436" lon="0.45858">
        <ele>128</ele>
        <time>2019-08-03T11:06:43Z</time>
      </trkpt>
      <trkpt lat="47.75474" lon="0.45837">
        <ele>127</ele>
        <time>2019-08-03T11:07:14Z</time>
      </trkpt>
      <trkpt lat="47.75508" lon="0.45823">
        <ele>123</ele>
        <time>2019-08-03T11:07:40Z</time>
      </trkpt>
      <trkpt lat="47.75517" lon="0.45815">
        <ele>122</ele>
        <time>2019-08-03T11:07:48Z</time>
      </trkpt>
      <trkpt lat="47.7552" lon="0.45813">
        <ele>122</ele>
        <time>2019-08-03T11:07:51Z</time>
      </trkpt>
      <trkpt lat="47.75523" lon="0.4581">
        <ele>122</ele>
        <time>2019-08-03T11:07:54Z</time>
      </trkpt>
      <trkpt lat="47.75527" lon="0.45807">
        <ele>122</ele>
        <time>2019-08-03T11:07:57Z</time>
      </trkpt>
      <trkpt lat="47.7553" lon="0.45808">
        <ele>122</ele>
        <time>2019-08-03T11:08:00Z</time>
      </trkpt>
      <trkpt lat="47.75532" lon="0.45812">
        <ele>122</ele>
        <time>2019-08-03T11:08:03Z</time>
      </trkpt>
      <trkpt lat="47.75532" lon="0.45817">
        <ele>123</ele>
        <time>2019-08-03T11:08:11Z</time>
      </trkpt>
      <trkpt lat="47.75533" lon="0.45826">
        <ele>125</ele>
        <time>2019-08-03T11:08:17Z</time>
      </trkpt>
      <trkpt lat="47.75533" lon="0.45842">
        <ele>127</ele>
        <time>2019-08-03T11:08:26Z</time>
      </trkpt>
      <trkpt lat="47.75534" lon="0.45893">
        <ele>129</ele>
        <time>2019-08-03T11:09:00Z</time>
      </trkpt>
      <trkpt lat="47.75533" lon="0.45898">
        <ele>129</ele>
        <time>2019-08-03T11:09:03Z</time>
      </trkpt>
      <trkpt lat="47.75532" lon="0.4591">
        <ele>128</ele>
        <time>2019-08-03T11:09:10Z</time>
      </trkpt>
      <trkpt lat="47.75532" lon="0.45921">
        <ele>127</ele>
        <time>2019-08-03T11:09:16Z</time>
      </trkpt>
      <trkpt lat="47.75531" lon="0.45935">
        <ele>127</ele>
        <time>2019-08-03T11:09:24Z</time>
      </trkpt>
      <trkpt lat="47.75534" lon="0.45944">
        <ele>128</ele>
        <time>2019-08-03T11:09:32Z</time>
      </trkpt>
      <trkpt lat="47.75536" lon="0.45948">
        <ele>129</ele>
        <time>2019-08-03T11:09:35Z</time>
      </trkpt>
      <trkpt lat="47.75538" lon="0.45952">
        <ele>128</ele>
        <time>2019-08-03T11:09:40Z</time>
      </trkpt>
      <trkpt lat="47.7554" lon="0.45956">
        <ele>128</ele>
        <time>2019-08-03T11:09:44Z</time>
      </trkpt>
      <trkpt lat="47.75543" lon="0.4596">
        <ele>128</ele>
        <time>2019-08-03T11:09:48Z</time>
      </trkpt>
      <trkpt lat="47.7555" lon="0.4597">
        <ele>133</ele>
        <time>2019-08-03T11:10:03Z</time>
      </trkpt>
      <trkpt lat="47.75552" lon="0.45973">
        <ele>134</ele>
        <time>2019-08-03T11:10:05Z</time>
      </trkpt>
      <trkpt lat="47.75557" lon="0.45975">
        <ele>134</ele>
        <time>2019-08-03T11:10:07Z</time>
      </trkpt>
      <trkpt lat="47.75566" lon="0.4599">
        <ele>138</ele>
        <time>2019-08-03T11:10:21Z</time>
      </trkpt>
      <trkpt lat="47.75569" lon="0.45991">
        <ele>139</ele>
        <time>2019-08-03T11:10:25Z</time>
      </trkpt>
      <trkpt lat="47.75576" lon="0.45992">
        <ele>142</ele>
        <time>2019-08-03T11:10:30Z</time>
      </trkpt>
      <trkpt lat="47.75579" lon="0.45994">
        <ele>140</ele>
        <time>2019-08-03T11:10:38Z</time>
      </trkpt>
      <trkpt lat="47.75581" lon="0.45999">
        <ele>140</ele>
        <time>2019-08-03T11:10:41Z</time>
      </trkpt>
      <trkpt lat="47.75591" lon="0.46004">
        <ele>141</ele>
        <time>2019-08-03T11:10:49Z</time>
      </trkpt>
      <trkpt lat="47.75592" lon="0.46009">
        <ele>141</ele>
        <time>2019-08-03T11:10:52Z</time>
      </trkpt>
      <trkpt lat="47.75604" lon="0.46021">
        <ele>137</ele>
        <time>2019-08-03T11:11:03Z</time>
      </trkpt>
      <trkpt lat="47.75607" lon="0.46025">
        <ele>137</ele>
        <time>2019-08-03T11:11:06Z</time>
      </trkpt>
      <trkpt lat="47.75608" lon="0.4603">
        <ele>135</ele>
        <time>2019-08-03T11:11:11Z</time>
      </trkpt>
      <trkpt lat="47.75609" lon="0.46035">
        <ele>134</ele>
        <time>2019-08-03T11:11:21Z</time>
      </trkpt>
      <trkpt lat="47.75617" lon="0.4604">
        <ele>134</ele>
        <time>2019-08-03T11:11:28Z</time>
      </trkpt>
      <trkpt lat="47.75638" lon="0.46075">
        <ele>132</ele>
        <time>2019-08-03T11:11:49Z</time>
      </trkpt>
      <trkpt lat="47.75641" lon="0.46079">
        <ele>129</ele>
        <time>2019-08-03T11:12:18Z</time>
      </trkpt>
      <trkpt lat="47.75644" lon="0.46078">
        <ele>128</ele>
        <time>2019-08-03T11:12:28Z</time>
      </trkpt>
      <trkpt lat="47.75646" lon="0.46081">
        <ele>129</ele>
        <time>2019-08-03T11:12:31Z</time>
      </trkpt>
      <trkpt lat="47.75665" lon="0.46091">
        <ele>133</ele>
        <time>2019-08-03T11:12:55Z</time>
      </trkpt>
      <trkpt lat="47.75685" lon="0.46115">
        <ele>131</ele>
        <time>2019-08-03T11:13:12Z</time>
      </trkpt>
      <trkpt lat="47.75696" lon="0.46134">
        <ele>131</ele>
        <time>2019-08-03T11:13:29Z</time>
      </trkpt>
      <trkpt lat="47.75698" lon="0.46138">
        <ele>131</ele>
        <time>2019-08-03T11:13:32Z</time>
      </trkpt>
      <trkpt lat="47.757" lon="0.46141">
        <ele>131</ele>
        <time>2019-08-03T11:13:35Z</time>
      </trkpt>
      <trkpt lat="47.75704" lon="0.46145">
        <ele>132</ele>
        <time>2019-08-03T11:13:39Z</time>
      </trkpt>
      <trkpt lat="47.75712" lon="0.46161">
        <ele>132</ele>
        <time>2019-08-03T11:13:48Z</time>
      </trkpt>
      <trkpt lat="47.75714" lon="0.46165">
        <ele>132</ele>
        <time>2019-08-03T11:13:51Z</time>
      </trkpt>
      <trkpt lat="47.75716" lon="0.46169">
        <ele>132</ele>
        <time>2019-08-03T11:13:54Z</time>
      </trkpt>
      <trkpt lat="47.75721" lon="0.46175">
        <ele>132</ele>
        <time>2019-08-03T11:13:59Z</time>
      </trkpt>
      <trkpt lat="47.75734" lon="0.46197">
        <ele>133</ele>
        <time>2019-08-03T11:14:21Z</time>
      </trkpt>
      <trkpt lat="47.75738" lon="0.4621">
        <ele>132</ele>
        <time>2019-08-03T11:14:27Z</time>
      </trkpt>
      <trkpt lat="47.7574" lon="0.46214">
        <ele>132</ele>
        <time>2019-08-03T11:14:32Z</time>
      </trkpt>
      <trkpt lat="47.75744" lon="0.46227">
        <ele>133</ele>
        <time>2019-08-03T11:14:40Z</time>
      </trkpt>
      <trkpt lat="47.75745" lon="0.46232">
        <ele>132</ele>
        <time>2019-08-03T11:14:43Z</time>
      </trkpt>
      <trkpt lat="47.75746" lon="0.46237">
        <ele>131</ele>
        <time>2019-08-03T11:14:48Z</time>
      </trkpt>
      <trkpt lat="47.75753" lon="0.46256">
        <ele>131</ele>
        <time>2019-08-03T11:15:02Z</time>
      </trkpt>
      <trkpt lat="47.75757" lon="0.46264">
        <ele>131</ele>
        <time>2019-08-03T11:15:07Z</time>
      </trkpt>
      <trkpt lat="47.75763" lon="0.46278">
        <ele>130</ele>
        <time>2019-08-03T11:15:14Z</time>
      </trkpt>
      <trkpt lat="47.75768" lon="0.46286">
        <ele>132</ele>
        <time>2019-08-03T11:15:19Z</time>
      </trkpt>
      <trkpt lat="47.7577" lon="0.4629">
        <ele>133</ele>
        <time>2019-08-03T11:15:22Z</time>
      </trkpt>
      <trkpt lat="47.75791" lon="0.46324">
        <ele>132</ele>
        <time>2019-08-03T11:15:46Z</time>
      </trkpt>
      <trkpt lat="47.75794" lon="0.46328">
        <ele>133</ele>
        <time>2019-08-03T11:15:49Z</time>
      </trkpt>
      <trkpt lat="47.75821" lon="0.46368">
        <ele>129</ele>
        <time>2019-08-03T11:16:21Z</time>
      </trkpt>
      <trkpt lat="47.75823" lon="0.46371">
        <ele>130</ele>
        <time>2019-08-03T11:16:24Z</time>
      </trkpt>
      <trkpt lat="47.75828" lon="0.46387">
        <ele>127</ele>
        <time>2019-08-03T11:16:29Z</time>
      </trkpt>
      <trkpt lat="47.75829" lon="0.46391">
        <ele>127</ele>
        <time>2019-08-03T11:16:31Z</time>
      </trkpt>
      <trkpt lat="47.7584" lon="0.46402">
        <ele>127</ele>
        <time>2019-08-03T11:16:42Z</time>
      </trkpt>
      <trkpt lat="47.75873" lon="0.46435">
        <ele>130</ele>
        <time>2019-08-03T11:17:13Z</time>
      </trkpt>
      <trkpt lat="47.75903" lon="0.4647">
        <ele>128</ele>
        <time>2019-08-03T11:17:41Z</time>
      </trkpt>
      <trkpt lat="47.75906" lon="0.46473">
        <ele>128</ele>
        <time>2019-08-03T11:17:44Z</time>
      </trkpt>
      <trkpt lat="47.75934" lon="0.46492">
        <ele>130</ele>
        <time>2019-08-03T11:18:10Z</time>
      </trkpt>
      <trkpt lat="47.75952" lon="0.46502">
        <ele>129</ele>
        <time>2019-08-03T11:18:25Z</time>
      </trkpt>
      <trkpt lat="47.75957" lon="0.46508">
        <ele>128</ele>
        <time>2019-08-03T11:18:29Z</time>
      </trkpt>
      <trkpt lat="47.75961" lon="0.4651">
        <ele>128</ele>
        <time>2019-08-03T11:18:32Z</time>
      </trkpt>
      <trkpt lat="47.7597" lon="0.46518">
        <ele>127</ele>
        <time>2019-08-03T11:18:40Z</time>
      </trkpt>
      <trkpt lat="47.7599" lon="0.46531">
        <ele>129</ele>
        <time>2019-08-03T11:19:02Z</time>
      </trkpt>
      <trkpt lat="47.75993" lon="0.46534">
        <ele>128</ele>
        <time>2019-08-03T11:19:04Z</time>
      </trkpt>
      <trkpt lat="47.76031" lon="0.46547">
        <ele>129</ele>
        <time>2019-08-03T11:19:35Z</time>
      </trkpt>
      <trkpt lat="47.76038" lon="0.46548">
        <ele>129</ele>
        <time>2019-08-03T11:19:41Z</time>
      </trkpt>
      <trkpt lat="47.76041" lon="0.46549">
        <ele>129</ele>
        <time>2019-08-03T11:19:44Z</time>
      </trkpt>
      <trkpt lat="47.76048" lon="0.46553">
        <ele>130</ele>
        <time>2019-08-03T11:19:50Z</time>
      </trkpt>
      <trkpt lat="47.76051" lon="0.46554">
        <ele>129</ele>
        <time>2019-08-03T11:19:53Z</time>
      </trkpt>
      <trkpt lat="47.76055" lon="0.46557">
        <ele>127</ele>
        <time>2019-08-03T11:19:56Z</time>
      </trkpt>
      <trkpt lat="47.76062" lon="0.46562">
        <ele>126</ele>
        <time>2019-08-03T11:20:01Z</time>
      </trkpt>
      <trkpt lat="47.76069" lon="0.46566">
        <ele>128</ele>
        <time>2019-08-03T11:20:08Z</time>
      </trkpt>
      <trkpt lat="47.76072" lon="0.46567">
        <ele>129</ele>
        <time>2019-08-03T11:20:11Z</time>
      </trkpt>
      <trkpt lat="47.76076" lon="0.46569">
        <ele>128</ele>
        <time>2019-08-03T11:20:13Z</time>
      </trkpt>
      <trkpt lat="47.76079" lon="0.46568">
        <ele>129</ele>
        <time>2019-08-03T11:20:15Z</time>
      </trkpt>
      <trkpt lat="47.76082" lon="0.46569">
        <ele>129</ele>
        <time>2019-08-03T11:20:18Z</time>
      </trkpt>
      <trkpt lat="47.76085" lon="0.46573">
        <ele>129</ele>
        <time>2019-08-03T11:20:21Z</time>
      </trkpt>
      <trkpt lat="47.7609" lon="0.46582">
        <ele>129</ele>
        <time>2019-08-03T11:20:26Z</time>
      </trkpt>
      <trkpt lat="47.76109" lon="0.46593">
        <ele>130</ele>
        <time>2019-08-03T11:20:43Z</time>
      </trkpt>
      <trkpt lat="47.76113" lon="0.466">
        <ele>129</ele>
        <time>2019-08-03T11:20:49Z</time>
      </trkpt>
      <trkpt lat="47.76116" lon="0.4661">
        <ele>128</ele>
        <time>2019-08-03T11:20:55Z</time>
      </trkpt>
      <trkpt lat="47.76117" lon="0.46616">
        <ele>128</ele>
        <time>2019-08-03T11:20:58Z</time>
      </trkpt>
      <trkpt lat="47.76118" lon="0.4662">
        <ele>128</ele>
        <time>2019-08-03T11:21:01Z</time>
      </trkpt>
      <trkpt lat="47.76119" lon="0.46637">
        <ele>130</ele>
        <time>2019-08-03T11:21:10Z</time>
      </trkpt>
      <trkpt lat="47.7612" lon="0.46645">
        <ele>131</ele>
        <time>2019-08-03T11:21:16Z</time>
      </trkpt>
      <trkpt lat="47.76121" lon="0.4665">
        <ele>131</ele>
        <time>2019-08-03T11:21:18Z</time>
      </trkpt>
      <trkpt lat="47.76121" lon="0.46708">
        <ele>130</ele>
        <time>2019-08-03T11:21:48Z</time>
      </trkpt>
      <trkpt lat="47.76124" lon="0.46763">
        <ele>132</ele>
        <time>2019-08-03T11:22:18Z</time>
      </trkpt>
      <trkpt lat="47.76124" lon="0.46768">
        <ele>133</ele>
        <time>2019-08-03T11:22:21Z</time>
      </trkpt>
      <trkpt lat="47.76125" lon="0.46827">
        <ele>133</ele>
        <time>2019-08-03T11:22:53Z</time>
      </trkpt>
      <trkpt lat="47.76125" lon="0.46832">
        <ele>133</ele>
        <time>2019-08-03T11:22:55Z</time>
      </trkpt>
      <trkpt lat="47.76125" lon="0.46837">
        <ele>133</ele>
        <time>2019-08-03T11:22:57Z</time>
      </trkpt>
      <trkpt lat="47.76128" lon="0.46873">
        <ele>132</ele>
        <time>2019-08-03T11:23:15Z</time>
      </trkpt>
      <trkpt lat="47.76132" lon="0.46881">
        <ele>132</ele>
        <time>2019-08-03T11:23:20Z</time>
      </trkpt>
      <trkpt lat="47.76136" lon="0.46891">
        <ele>131</ele>
        <time>2019-08-03T11:23:26Z</time>
      </trkpt>
      <trkpt lat="47.76146" lon="0.46896">
        <ele>130</ele>
        <time>2019-08-03T11:23:35Z</time>
      </trkpt>
      <trkpt lat="47.7616" lon="0.46896">
        <ele>133</ele>
        <time>2019-08-03T11:23:47Z</time>
      </trkpt>
      <trkpt lat="47.76167" lon="0.46893">
        <ele>134</ele>
        <time>2019-08-03T11:23:53Z</time>
      </trkpt>
      <trkpt lat="47.76171" lon="0.46891">
        <ele>134</ele>
        <time>2019-08-03T11:23:56Z</time>
      </trkpt>
      <trkpt lat="47.76178" lon="0.46893">
        <ele>135</ele>
        <time>2019-08-03T11:24:02Z</time>
      </trkpt>
      <trkpt lat="47.76188" lon="0.46894">
        <ele>137</ele>
        <time>2019-08-03T11:24:12Z</time>
      </trkpt>
      <trkpt lat="47.76195" lon="0.46894">
        <ele>137</ele>
        <time>2019-08-03T11:24:18Z</time>
      </trkpt>
      <trkpt lat="47.76205" lon="0.46898">
        <ele>137</ele>
        <time>2019-08-03T11:24:25Z</time>
      </trkpt>
      <trkpt lat="47.76216" lon="0.46901">
        <ele>135</ele>
        <time>2019-08-03T11:24:33Z</time>
      </trkpt>
      <trkpt lat="47.76229" lon="0.46908">
        <ele>134</ele>
        <time>2019-08-03T11:24:43Z</time>
      </trkpt>
      <trkpt lat="47.76235" lon="0.46919">
        <ele>133</ele>
        <time>2019-08-03T11:24:48Z</time>
      </trkpt>
      <trkpt lat="47.76244" lon="0.46929">
        <ele>132</ele>
        <time>2019-08-03T11:24:58Z</time>
      </trkpt>
      <trkpt lat="47.76248" lon="0.46937">
        <ele>131</ele>
        <time>2019-08-03T11:25:04Z</time>
      </trkpt>
      <trkpt lat="47.76254" lon="0.46944">
        <ele>131</ele>
        <time>2019-08-03T11:25:11Z</time>
      </trkpt>
      <trkpt lat="47.76257" lon="0.46949">
        <ele>132</ele>
        <time>2019-08-03T11:25:14Z</time>
      </trkpt>
      <trkpt lat="47.76259" lon="0.46953">
        <ele>132</ele>
        <time>2019-08-03T11:25:16Z</time>
      </trkpt>
      <trkpt lat="47.76286" lon="0.46993">
        <ele>131</ele>
        <time>2019-08-03T11:25:46Z</time>
      </trkpt>
      <trkpt lat="47.76291" lon="0.47005">
        <ele>131</ele>
        <time>2019-08-03T11:25:53Z</time>
      </trkpt>
      <trkpt lat="47.76303" lon="0.47024">
        <ele>131</ele>
        <time>2019-08-03T11:26:08Z</time>
      </trkpt>
      <trkpt lat="47.76307" lon="0.47027">
        <ele>131</ele>
        <time>2019-08-03T11:26:11Z</time>
      </trkpt>
      <trkpt lat="47.76333" lon="0.47073">
        <ele>133</ele>
        <time>2019-08-03T11:26:43Z</time>
      </trkpt>
      <trkpt lat="47.76337" lon="0.47077">
        <ele>133</ele>
        <time>2019-08-03T11:26:46Z</time>
      </trkpt>
      <trkpt lat="47.76344" lon="0.4709">
        <ele>135</ele>
        <time>2019-08-03T11:26:55Z</time>
      </trkpt>
      <trkpt lat="47.76347" lon="0.47093">
        <ele>135</ele>
        <time>2019-08-03T11:26:58Z</time>
      </trkpt>
      <trkpt lat="47.76355" lon="0.47106">
        <ele>136</ele>
        <time>2019-08-03T11:27:07Z</time>
      </trkpt>
      <trkpt lat="47.76362" lon="0.47119">
        <ele>136</ele>
        <time>2019-08-03T11:27:16Z</time>
      </trkpt>
      <trkpt lat="47.76364" lon="0.47122">
        <ele>136</ele>
        <time>2019-08-03T11:27:19Z</time>
      </trkpt>
      <trkpt lat="47.76369" lon="0.47131">
        <ele>136</ele>
        <time>2019-08-03T11:27:24Z</time>
      </trkpt>
      <trkpt lat="47.76376" lon="0.47148">
        <ele>133</ele>
        <time>2019-08-03T11:27:36Z</time>
      </trkpt>
      <trkpt lat="47.76378" lon="0.47158">
        <ele>133</ele>
        <time>2019-08-03T11:28:11Z</time>
      </trkpt>
      <trkpt lat="47.7639" lon="0.47175">
        <ele>133</ele>
        <time>2019-08-03T11:28:22Z</time>
      </trkpt>
      <trkpt lat="47.76393" lon="0.47178">
        <ele>133</ele>
        <time>2019-08-03T11:28:25Z</time>
      </trkpt>
      <trkpt lat="47.76402" lon="0.47194">
        <ele>134</ele>
        <time>2019-08-03T11:28:35Z</time>
      </trkpt>
      <trkpt lat="47.76433" lon="0.47239">
        <ele>137</ele>
        <time>2019-08-03T11:29:05Z</time>
      </trkpt>
      <trkpt lat="47.76439" lon="0.47247">
        <ele>135</ele>
        <time>2019-08-03T11:29:11Z</time>
      </trkpt>
      <trkpt lat="47.76443" lon="0.47252">
        <ele>135</ele>
        <time>2019-08-03T11:29:14Z</time>
      </trkpt>
      <trkpt lat="47.76455" lon="0.47281">
        <ele>107</ele>
        <time>2019-08-03T11:29:36Z</time>
      </trkpt>
      <trkpt lat="47.76455" lon="0.47286">
        <ele>129</ele>
        <time>2019-08-03T11:29:40Z</time>
      </trkpt>
      <trkpt lat="47.76463" lon="0.47303">
        <ele>125</ele>
        <time>2019-08-03T11:29:52Z</time>
      </trkpt>
      <trkpt lat="47.76466" lon="0.47307">
        <ele>125</ele>
        <time>2019-08-03T11:29:55Z</time>
      </trkpt>
      <trkpt lat="47.7647" lon="0.47315">
        <ele>127</ele>
        <time>2019-08-03T11:29:59Z</time>
      </trkpt>
      <trkpt lat="47.76473" lon="0.47317">
        <ele>124</ele>
        <time>2019-08-03T11:30:04Z</time>
      </trkpt>
      <trkpt lat="47.76476" lon="0.47315">
        <ele>125</ele>
        <time>2019-08-03T11:30:07Z</time>
      </trkpt>
      <trkpt lat="47.76483" lon="0.47308">
        <ele>128</ele>
        <time>2019-08-03T11:30:13Z</time>
      </trkpt>
      <trkpt lat="47.76486" lon="0.47305">
        <ele>128</ele>
        <time>2019-08-03T11:30:16Z</time>
      </trkpt>
      <trkpt lat="47.76488" lon="0.47301">
        <ele>129</ele>
        <time>2019-08-03T11:30:19Z</time>
      </trkpt>
      <trkpt lat="47.76491" lon="0.47297">
        <ele>129</ele>
        <time>2019-08-03T11:30:21Z</time>
      </trkpt>
      <trkpt lat="47.76494" lon="0.47295">
        <ele>129</ele>
        <time>2019-08-03T11:30:23Z</time>
      </trkpt>
      <trkpt lat="47.76495" lon="0.47289">
        <ele>129</ele>
        <time>2019-08-03T11:30:27Z</time>
      </trkpt>
      <trkpt lat="47.765" lon="0.47283">
        <ele>130</ele>
        <time>2019-08-03T11:30:34Z</time>
      </trkpt>
      <trkpt lat="47.76501" lon="0.47278">
        <ele>130</ele>
        <time>2019-08-03T11:30:37Z</time>
      </trkpt>
      <trkpt lat="47.76501" lon="0.47273">
        <ele>130</ele>
        <time>2019-08-03T11:30:40Z</time>
      </trkpt>
      <trkpt lat="47.76514" lon="0.47255">
        <ele>134</ele>
        <time>2019-08-03T11:30:54Z</time>
      </trkpt>
      <trkpt lat="47.76517" lon="0.47245">
        <ele>134</ele>
        <time>2019-08-03T11:31:01Z</time>
      </trkpt>
      <trkpt lat="47.7652" lon="0.47243">
        <ele>134</ele>
        <time>2019-08-03T11:31:04Z</time>
      </trkpt>
      <trkpt lat="47.76531" lon="0.47222">
        <ele>136</ele>
        <time>2019-08-03T11:31:20Z</time>
      </trkpt>
      <trkpt lat="47.76533" lon="0.47217">
        <ele>135</ele>
        <time>2019-08-03T11:31:23Z</time>
      </trkpt>
      <trkpt lat="47.76535" lon="0.47213">
        <ele>135</ele>
        <time>2019-08-03T11:31:26Z</time>
      </trkpt>
      <trkpt lat="47.76535" lon="0.47208">
        <ele>135</ele>
        <time>2019-08-03T11:31:28Z</time>
      </trkpt>
      <trkpt lat="47.76531" lon="0.47205">
        <ele>134</ele>
        <time>2019-08-03T11:31:30Z</time>
      </trkpt>
      <trkpt lat="47.7653" lon="0.472">
        <ele>134</ele>
        <time>2019-08-03T11:31:33Z</time>
      </trkpt>
      <trkpt lat="47.76529" lon="0.47189">
        <ele>136</ele>
        <time>2019-08-03T11:31:39Z</time>
      </trkpt>
      <trkpt lat="47.76527" lon="0.47163">
        <ele>137</ele>
        <time>2019-08-03T11:31:55Z</time>
      </trkpt>
      <trkpt lat="47.76527" lon="0.47157">
        <ele>137</ele>
        <time>2019-08-03T11:31:58Z</time>
      </trkpt>
      <trkpt lat="47.76525" lon="0.4715">
        <ele>138</ele>
        <time>2019-08-03T11:32:00Z</time>
      </trkpt>
      <trkpt lat="47.76525" lon="0.47145">
        <ele>138</ele>
        <time>2019-08-03T11:32:02Z</time>
      </trkpt>
      <trkpt lat="47.76527" lon="0.47139">
        <ele>138</ele>
        <time>2019-08-03T11:32:04Z</time>
      </trkpt>
      <trkpt lat="47.76527" lon="0.47134">
        <ele>138</ele>
        <time>2019-08-03T11:32:08Z</time>
      </trkpt>
      <trkpt lat="47.76524" lon="0.47126">
        <ele>138</ele>
        <time>2019-08-03T11:32:12Z</time>
      </trkpt>
      <trkpt lat="47.76522" lon="0.47111">
        <ele>139</ele>
        <time>2019-08-03T11:32:20Z</time>
      </trkpt>
      <trkpt lat="47.76525" lon="0.47109">
        <ele>139</ele>
        <time>2019-08-03T11:32:24Z</time>
      </trkpt>
      <trkpt lat="47.76527" lon="0.47104">
        <ele>139</ele>
        <time>2019-08-03T11:32:27Z</time>
      </trkpt>
      <trkpt lat="47.76531" lon="0.4709">
        <ele>136</ele>
        <time>2019-08-03T11:32:34Z</time>
      </trkpt>
      <trkpt lat="47.76534" lon="0.47086">
        <ele>136</ele>
        <time>2019-08-03T11:32:37Z</time>
      </trkpt>
      <trkpt lat="47.76537" lon="0.47082">
        <ele>137</ele>
        <time>2019-08-03T11:32:41Z</time>
      </trkpt>
      <trkpt lat="47.76539" lon="0.47077">
        <ele>137</ele>
        <time>2019-08-03T11:32:44Z</time>
      </trkpt>
      <trkpt lat="47.76542" lon="0.47068">
        <ele>137</ele>
        <time>2019-08-03T11:32:48Z</time>
      </trkpt>
      <trkpt lat="47.76549" lon="0.47063">
        <ele>138</ele>
        <time>2019-08-03T11:32:52Z</time>
      </trkpt>
      <trkpt lat="47.7655" lon="0.47057">
        <ele>138</ele>
        <time>2019-08-03T11:32:55Z</time>
      </trkpt>
      <trkpt lat="47.76552" lon="0.47052">
        <ele>137</ele>
        <time>2019-08-03T11:32:58Z</time>
      </trkpt>
      <trkpt lat="47.76558" lon="0.47046">
        <ele>138</ele>
        <time>2019-08-03T11:33:02Z</time>
      </trkpt>
      <trkpt lat="47.76559" lon="0.47041">
        <ele>138</ele>
        <time>2019-08-03T11:33:05Z</time>
      </trkpt>
      <trkpt lat="47.76556" lon="0.4703">
        <ele>137</ele>
        <time>2019-08-03T11:33:11Z</time>
      </trkpt>
      <trkpt lat="47.76561" lon="0.47023">
        <ele>137</ele>
        <time>2019-08-03T11:33:15Z</time>
      </trkpt>
      <trkpt lat="47.76562" lon="0.47003">
        <ele>137</ele>
        <time>2019-08-03T11:33:25Z</time>
      </trkpt>
      <trkpt lat="47.76567" lon="0.46995">
        <ele>136</ele>
        <time>2019-08-03T11:33:32Z</time>
      </trkpt>
      <trkpt lat="47.76571" lon="0.4698">
        <ele>137</ele>
        <time>2019-08-03T11:33:40Z</time>
      </trkpt>
      <trkpt lat="47.76572" lon="0.46976">
        <ele>137</ele>
        <time>2019-08-03T11:33:42Z</time>
      </trkpt>
      <trkpt lat="47.76572" lon="0.46972">
        <ele>138</ele>
        <time>2019-08-03T11:33:44Z</time>
      </trkpt>
      <trkpt lat="47.76584" lon="0.46963">
        <ele>136</ele>
        <time>2019-08-03T11:33:50Z</time>
      </trkpt>
      <trkpt lat="47.76585" lon="0.46958">
        <ele>136</ele>
        <time>2019-08-03T11:33:53Z</time>
      </trkpt>
      <trkpt lat="47.76584" lon="0.46948">
        <ele>135</ele>
        <time>2019-08-03T11:33:58Z</time>
      </trkpt>
      <trkpt lat="47.76584" lon="0.46943">
        <ele>135</ele>
        <time>2019-08-03T11:34:00Z</time>
      </trkpt>
      <trkpt lat="47.76594" lon="0.46906">
        <ele>132</ele>
        <time>2019-08-03T11:34:22Z</time>
      </trkpt>
      <trkpt lat="47.76597" lon="0.46902">
        <ele>131</ele>
        <time>2019-08-03T11:34:26Z</time>
      </trkpt>
      <trkpt lat="47.76607" lon="0.46885">
        <ele>131</ele>
        <time>2019-08-03T11:34:37Z</time>
      </trkpt>
      <trkpt lat="47.76607" lon="0.46881">
        <ele>131</ele>
        <time>2019-08-03T11:34:39Z</time>
      </trkpt>
      <trkpt lat="47.76608" lon="0.46876">
        <ele>132</ele>
        <time>2019-08-03T11:34:42Z</time>
      </trkpt>
      <trkpt lat="47.76607" lon="0.46871">
        <ele>132</ele>
        <time>2019-08-03T11:35:00Z</time>
      </trkpt>
      <trkpt lat="47.7661" lon="0.46868">
        <ele>132</ele>
        <time>2019-08-03T11:35:03Z</time>
      </trkpt>
      <trkpt lat="47.76619" lon="0.46849">
        <ele>130</ele>
        <time>2019-08-03T11:35:14Z</time>
      </trkpt>
      <trkpt lat="47.7662" lon="0.46839">
        <ele>132</ele>
        <time>2019-08-03T11:35:18Z</time>
      </trkpt>
      <trkpt lat="47.76632" lon="0.46813">
        <ele>132</ele>
        <time>2019-08-03T11:35:34Z</time>
      </trkpt>
      <trkpt lat="47.76634" lon="0.46809">
        <ele>131</ele>
        <time>2019-08-03T11:35:37Z</time>
      </trkpt>
      <trkpt lat="47.76645" lon="0.46791">
        <ele>127</ele>
        <time>2019-08-03T11:35:49Z</time>
      </trkpt>
      <trkpt lat="47.76646" lon="0.46786">
        <ele>128</ele>
        <time>2019-08-03T11:35:52Z</time>
      </trkpt>
      <trkpt lat="47.76651" lon="0.46779">
        <ele>128</ele>
        <time>2019-08-03T11:35:58Z</time>
      </trkpt>
      <trkpt lat="47.76655" lon="0.46771">
        <ele>128</ele>
        <time>2019-08-03T11:36:03Z</time>
      </trkpt>
      <trkpt lat="47.76659" lon="0.46756">
        <ele>128</ele>
        <time>2019-08-03T11:36:11Z</time>
      </trkpt>
      <trkpt lat="47.76661" lon="0.46753">
        <ele>128</ele>
        <time>2019-08-03T11:36:13Z</time>
      </trkpt>
      <trkpt lat="47.76664" lon="0.46749">
        <ele>128</ele>
        <time>2019-08-03T11:36:15Z</time>
      </trkpt>
      <trkpt lat="47.76667" lon="0.46746">
        <ele>128</ele>
        <time>2019-08-03T11:36:16Z</time>
      </trkpt>
      <trkpt lat="47.7668" lon="0.46743">
        <ele>128</ele>
        <time>2019-08-03T11:36:20Z</time>
      </trkpt>
      <trkpt lat="47.7668" lon="0.46739">
        <ele>127</ele>
        <time>2019-08-03T11:36:35Z</time>
      </trkpt>
      <trkpt lat="47.76688" lon="0.4674">
        <ele>129</ele>
        <time>2019-08-03T11:36:48Z</time>
      </trkpt>
      <trkpt lat="47.76696" lon="0.46737">
        <ele>128</ele>
        <time>2019-08-03T11:36:54Z</time>
      </trkpt>
      <trkpt lat="47.7672" lon="0.46742">
        <ele>122</ele>
        <time>2019-08-03T11:37:11Z</time>
      </trkpt>
      <trkpt lat="47.76724" lon="0.46743">
        <ele>122</ele>
        <time>2019-08-03T11:37:14Z</time>
      </trkpt>
      <trkpt lat="47.76726" lon="0.46743">
        <ele>121</ele>
        <time>2019-08-03T11:37:18Z</time>
      </trkpt>
      <trkpt lat="47.76729" lon="0.46747">
        <ele>121</ele>
        <time>2019-08-03T11:37:30Z</time>
      </trkpt>
      <trkpt lat="47.76746" lon="0.46748">
        <ele>121</ele>
        <time>2019-08-03T11:37:38Z</time>
      </trkpt>
      <trkpt lat="47.76762" lon="0.46761">
        <ele>122</ele>
        <time>2019-08-03T11:37:53Z</time>
      </trkpt>
      <trkpt lat="47.7677" lon="0.46771">
        <ele>120</ele>
        <time>2019-08-03T11:38:01Z</time>
      </trkpt>
      <trkpt lat="47.76787" lon="0.46781">
        <ele>119</ele>
        <time>2019-08-03T11:38:12Z</time>
      </trkpt>
      <trkpt lat="47.76824" lon="0.46808">
        <ele>116</ele>
        <time>2019-08-03T11:38:43Z</time>
      </trkpt>
      <trkpt lat="47.76833" lon="0.46812">
        <ele>118</ele>
        <time>2019-08-03T11:38:59Z</time>
      </trkpt>
      <trkpt lat="47.76861" lon="0.46792">
        <ele>115</ele>
        <time>2019-08-03T11:39:22Z</time>
      </trkpt>
      <trkpt lat="47.76878" lon="0.46787">
        <ele>115</ele>
        <time>2019-08-03T11:39:39Z</time>
      </trkpt>
      <trkpt lat="47.76898" lon="0.46788">
        <ele>116</ele>
        <time>2019-08-03T11:39:57Z</time>
      </trkpt>
      <trkpt lat="47.76907" lon="0.4679">
        <ele>116</ele>
        <time>2019-08-03T11:40:02Z</time>
      </trkpt>
      <trkpt lat="47.76916" lon="0.46788">
        <ele>113</ele>
        <time>2019-08-03T11:40:13Z</time>
      </trkpt>
      <trkpt lat="47.76925" lon="0.46783">
        <ele>110</ele>
        <time>2019-08-03T11:40:21Z</time>
      </trkpt>
      <trkpt lat="47.76936" lon="0.46782">
        <ele>109</ele>
        <time>2019-08-03T11:40:28Z</time>
      </trkpt>
      <trkpt lat="47.76947" lon="0.46786">
        <ele>109</ele>
        <time>2019-08-03T11:40:35Z</time>
      </trkpt>
      <trkpt lat="47.76955" lon="0.46796">
        <ele>111</ele>
        <time>2019-08-03T11:40:45Z</time>
      </trkpt>
      <trkpt lat="47.76964" lon="0.46804">
        <ele>112</ele>
        <time>2019-08-03T11:40:51Z</time>
      </trkpt>
      <trkpt lat="47.76974" lon="0.46809">
        <ele>116</ele>
        <time>2019-08-03T11:40:56Z</time>
      </trkpt>
      <trkpt lat="47.76981" lon="0.46818">
        <ele>114</ele>
        <time>2019-08-03T11:41:05Z</time>
      </trkpt>
      <trkpt lat="47.76984" lon="0.4683">
        <ele>112</ele>
        <time>2019-08-03T11:41:13Z</time>
      </trkpt>
      <trkpt lat="47.76992" lon="0.46838">
        <ele>112</ele>
        <time>2019-08-03T11:41:22Z</time>
      </trkpt>
      <trkpt lat="47.77" lon="0.46849">
        <ele>114</ele>
        <time>2019-08-03T11:41:30Z</time>
      </trkpt>
      <trkpt lat="47.77006" lon="0.46859">
        <ele>111</ele>
        <time>2019-08-03T11:41:39Z</time>
      </trkpt>
      <trkpt lat="47.77013" lon="0.46868">
        <ele>111</ele>
        <time>2019-08-03T11:41:50Z</time>
      </trkpt>
      <trkpt lat="47.77019" lon="0.46879">
        <ele>111</ele>
        <time>2019-08-03T11:41:58Z</time>
      </trkpt>
      <trkpt lat="47.77037" lon="0.4689">
        <ele>110</ele>
        <time>2019-08-03T11:42:10Z</time>
      </trkpt>
      <trkpt lat="47.77047" lon="0.46893">
        <ele>109</ele>
        <time>2019-08-03T11:42:18Z</time>
      </trkpt>
      <trkpt lat="47.77056" lon="0.46897">
        <ele>107</ele>
        <time>2019-08-03T11:42:28Z</time>
      </trkpt>
      <trkpt lat="47.77061" lon="0.46908">
        <ele>103</ele>
        <time>2019-08-03T11:42:44Z</time>
      </trkpt>
      <trkpt lat="47.7707" lon="0.46904">
        <ele>102</ele>
        <time>2019-08-03T11:43:01Z</time>
      </trkpt>
      <trkpt lat="47.77076" lon="0.46892">
        <ele>106</ele>
        <time>2019-08-03T11:43:10Z</time>
      </trkpt>
      <trkpt lat="47.7708" lon="0.46878">
        <ele>107</ele>
        <time>2019-08-03T11:43:18Z</time>
      </trkpt>
      <trkpt lat="47.77083" lon="0.46864">
        <ele>108</ele>
        <time>2019-08-03T11:43:35Z</time>
      </trkpt>
      <trkpt lat="47.77082" lon="0.46851">
        <ele>109</ele>
        <time>2019-08-03T11:43:44Z</time>
      </trkpt>
      <trkpt lat="47.77073" lon="0.46824">
        <ele>110</ele>
        <time>2019-08-03T11:43:57Z</time>
      </trkpt>
      <trkpt lat="47.77064" lon="0.46801">
        <ele>113</ele>
        <time>2019-08-03T11:44:12Z</time>
      </trkpt>
      <trkpt lat="47.77062" lon="0.46788">
        <ele>115</ele>
        <time>2019-08-03T11:44:24Z</time>
      </trkpt>
      <trkpt lat="47.77063" lon="0.46775">
        <ele>118</ele>
        <time>2019-08-03T11:45:24Z</time>
      </trkpt>
      <trkpt lat="47.77085" lon="0.46753">
        <ele>116</ele>
        <time>2019-08-03T11:45:54Z</time>
      </trkpt>
      <trkpt lat="47.77092" lon="0.46748">
        <ele>117</ele>
        <time>2019-08-03T11:46:00Z</time>
      </trkpt>
      <trkpt lat="47.771" lon="0.4674">
        <ele>117</ele>
        <time>2019-08-03T11:46:09Z</time>
      </trkpt>
      <trkpt lat="47.77107" lon="0.46736">
        <ele>117</ele>
        <time>2019-08-03T11:46:17Z</time>
      </trkpt>
      <trkpt lat="47.77104" lon="0.46733">
        <ele>118</ele>
        <time>2019-08-03T11:46:34Z</time>
      </trkpt>
      <trkpt lat="47.77106" lon="0.46728">
        <ele>117</ele>
        <time>2019-08-03T11:47:01Z</time>
      </trkpt>
      <trkpt lat="47.77118" lon="0.4672">
        <ele>120</ele>
        <time>2019-08-03T11:47:10Z</time>
      </trkpt>
      <trkpt lat="47.77122" lon="0.46718">
        <ele>120</ele>
        <time>2019-08-03T11:47:13Z</time>
      </trkpt>
      <trkpt lat="47.77129" lon="0.46713">
        <ele>122</ele>
        <time>2019-08-03T11:47:19Z</time>
      </trkpt>
      <trkpt lat="47.77136" lon="0.46703">
        <ele>122</ele>
        <time>2019-08-03T11:47:29Z</time>
      </trkpt>
      <trkpt lat="47.77142" lon="0.46699">
        <ele>123</ele>
        <time>2019-08-03T11:47:38Z</time>
      </trkpt>
      <trkpt lat="47.77146" lon="0.46692">
        <ele>122</ele>
        <time>2019-08-03T11:47:44Z</time>
      </trkpt>
      <trkpt lat="47.77156" lon="0.46687">
        <ele>123</ele>
        <time>2019-08-03T11:47:51Z</time>
      </trkpt>
      <trkpt lat="47.77186" lon="0.46688">
        <ele>122</ele>
        <time>2019-08-03T11:48:15Z</time>
      </trkpt>
      <trkpt lat="47.77208" lon="0.46675">
        <ele>125</ele>
        <time>2019-08-03T11:48:34Z</time>
      </trkpt>
      <trkpt lat="47.7721" lon="0.46672">
        <ele>126</ele>
        <time>2019-08-03T11:48:36Z</time>
      </trkpt>
      <trkpt lat="47.77216" lon="0.46663">
        <ele>126</ele>
        <time>2019-08-03T11:48:56Z</time>
      </trkpt>
      <trkpt lat="47.7722" lon="0.46661">
        <ele>127</ele>
        <time>2019-08-03T11:49:00Z</time>
      </trkpt>
      <trkpt lat="47.77246" lon="0.46619">
        <ele>127</ele>
        <time>2019-08-03T11:49:32Z</time>
      </trkpt>
      <trkpt lat="47.77254" lon="0.46604">
        <ele>127</ele>
        <time>2019-08-03T11:49:45Z</time>
      </trkpt>
      <trkpt lat="47.77257" lon="0.466">
        <ele>127</ele>
        <time>2019-08-03T11:49:48Z</time>
      </trkpt>
      <trkpt lat="47.7726" lon="0.46597">
        <ele>127</ele>
        <time>2019-08-03T11:49:52Z</time>
      </trkpt>
      <trkpt lat="47.77275" lon="0.46571">
        <ele>128</ele>
        <time>2019-08-03T11:50:09Z</time>
      </trkpt>
      <trkpt lat="47.7728" lon="0.46563">
        <ele>128</ele>
        <time>2019-08-03T11:50:15Z</time>
      </trkpt>
      <trkpt lat="47.773" lon="0.46542">
        <ele>129</ele>
        <time>2019-08-03T11:50:36Z</time>
      </trkpt>
      <trkpt lat="47.77318" lon="0.46524">
        <ele>130</ele>
        <time>2019-08-03T11:50:54Z</time>
      </trkpt>
      <trkpt lat="47.77321" lon="0.4652">
        <ele>130</ele>
        <time>2019-08-03T11:50:57Z</time>
      </trkpt>
      <trkpt lat="47.7733" lon="0.46512">
        <ele>130</ele>
        <time>2019-08-03T11:51:05Z</time>
      </trkpt>
      <trkpt lat="47.77332" lon="0.4651">
        <ele>130</ele>
        <time>2019-08-03T11:51:08Z</time>
      </trkpt>
      <trkpt lat="47.77336" lon="0.46506">
        <ele>130</ele>
        <time>2019-08-03T11:51:12Z</time>
      </trkpt>
      <trkpt lat="47.77339" lon="0.46503">
        <ele>130</ele>
        <time>2019-08-03T11:51:15Z</time>
      </trkpt>
      <trkpt lat="47.77355" lon="0.46488">
        <ele>131</ele>
        <time>2019-08-03T11:51:30Z</time>
      </trkpt>
      <trkpt lat="47.77378" lon="0.46465">
        <ele>130</ele>
        <time>2019-08-03T11:51:53Z</time>
      </trkpt>
      <trkpt lat="47.77381" lon="0.4646">
        <ele>131</ele>
        <time>2019-08-03T11:51:56Z</time>
      </trkpt>
      <trkpt lat="47.77388" lon="0.46454">
        <ele>131</ele>
        <time>2019-08-03T11:52:03Z</time>
      </trkpt>
      <trkpt lat="47.77391" lon="0.46451">
        <ele>131</ele>
        <time>2019-08-03T11:52:05Z</time>
      </trkpt>
      <trkpt lat="47.77398" lon="0.46446">
        <ele>132</ele>
        <time>2019-08-03T11:52:10Z</time>
      </trkpt>
      <trkpt lat="47.77412" lon="0.46441">
        <ele>131</ele>
        <time>2019-08-03T11:52:19Z</time>
      </trkpt>
      <trkpt lat="47.77416" lon="0.46434">
        <ele>131</ele>
        <time>2019-08-03T11:52:26Z</time>
      </trkpt>
      <trkpt lat="47.77418" lon="0.46426">
        <ele>132</ele>
        <time>2019-08-03T11:52:33Z</time>
      </trkpt>
      <trkpt lat="47.77416" lon="0.46422">
        <ele>132</ele>
        <time>2019-08-03T11:52:36Z</time>
      </trkpt>
      <trkpt lat="47.77418" lon="0.46419">
        <ele>133</ele>
        <time>2019-08-03T11:52:47Z</time>
      </trkpt>
      <trkpt lat="47.77427" lon="0.46417">
        <ele>138</ele>
        <time>2019-08-03T11:52:51Z</time>
      </trkpt>
      <trkpt lat="47.77423" lon="0.46416">
        <ele>137</ele>
        <time>2019-08-03T11:52:56Z</time>
      </trkpt>
      <trkpt lat="47.77426" lon="0.46413">
        <ele>136</ele>
        <time>2019-08-03T11:53:05Z</time>
      </trkpt>
      <trkpt lat="47.77428" lon="0.46409">
        <ele>135</ele>
        <time>2019-08-03T11:53:09Z</time>
      </trkpt>
      <trkpt lat="47.77428" lon="0.46403">
        <ele>134</ele>
        <time>2019-08-03T11:53:13Z</time>
      </trkpt>
      <trkpt lat="47.77431" lon="0.46394">
        <ele>134</ele>
        <time>2019-08-03T11:53:17Z</time>
      </trkpt>
      <trkpt lat="47.77433" lon="0.4639">
        <ele>133</ele>
        <time>2019-08-03T11:53:20Z</time>
      </trkpt>
      <trkpt lat="47.77435" lon="0.46385">
        <ele>133</ele>
        <time>2019-08-03T11:53:23Z</time>
      </trkpt>
      <trkpt lat="47.77444" lon="0.4638">
        <ele>132</ele>
        <time>2019-08-03T11:53:29Z</time>
      </trkpt>
      <trkpt lat="47.7745" lon="0.46372">
        <ele>132</ele>
        <time>2019-08-03T11:53:35Z</time>
      </trkpt>
      <trkpt lat="47.77449" lon="0.46369">
        <ele>131</ele>
        <time>2019-08-03T11:53:49Z</time>
      </trkpt>
      <trkpt lat="47.77448" lon="0.46366">
        <ele>133</ele>
        <time>2019-08-03T11:54:16Z</time>
      </trkpt>
      <trkpt lat="47.7745" lon="0.46362">
        <ele>133</ele>
        <time>2019-08-03T11:55:22Z</time>
      </trkpt>
      <trkpt lat="47.77459" lon="0.46352">
        <ele>132</ele>
        <time>2019-08-03T11:55:30Z</time>
      </trkpt>
      <trkpt lat="47.77464" lon="0.4634">
        <ele>132</ele>
        <time>2019-08-03T11:55:39Z</time>
      </trkpt>
      <trkpt lat="47.77467" lon="0.46335">
        <ele>131</ele>
        <time>2019-08-03T11:55:43Z</time>
      </trkpt>
      <trkpt lat="47.77471" lon="0.46333">
        <ele>130</ele>
        <time>2019-08-03T11:55:46Z</time>
      </trkpt>
      <trkpt lat="47.77478" lon="0.46323">
        <ele>128</ele>
        <time>2019-08-03T11:55:54Z</time>
      </trkpt>
      <trkpt lat="47.7748" lon="0.46311">
        <ele>128</ele>
        <time>2019-08-03T11:56:02Z</time>
      </trkpt>
      <trkpt lat="47.77493" lon="0.46307">
        <ele>126</ele>
        <time>2019-08-03T11:56:10Z</time>
      </trkpt>
      <trkpt lat="47.77497" lon="0.46304">
        <ele>126</ele>
        <time>2019-08-03T11:56:13Z</time>
      </trkpt>
      <trkpt lat="47.77499" lon="0.46299">
        <ele>125</ele>
        <time>2019-08-03T11:56:16Z</time>
      </trkpt>
      <trkpt lat="47.77509" lon="0.4629">
        <ele>127</ele>
        <time>2019-08-03T11:56:22Z</time>
      </trkpt>
      <trkpt lat="47.77515" lon="0.46265">
        <ele>126</ele>
        <time>2019-08-03T11:56:42Z</time>
      </trkpt>
      <trkpt lat="47.77516" lon="0.46257">
        <ele>126</ele>
        <time>2019-08-03T11:56:45Z</time>
      </trkpt>
      <trkpt lat="47.77515" lon="0.46243">
        <ele>127</ele>
        <time>2019-08-03T11:56:52Z</time>
      </trkpt>
      <trkpt lat="47.775" lon="0.46189">
        <ele>129</ele>
        <time>2019-08-03T11:57:22Z</time>
      </trkpt>
      <trkpt lat="47.77484" lon="0.46135">
        <ele>128</ele>
        <time>2019-08-03T11:57:53Z</time>
      </trkpt>
      <trkpt lat="47.77481" lon="0.46119">
        <ele>128</ele>
        <time>2019-08-03T11:58:02Z</time>
      </trkpt>
      <trkpt lat="47.7748" lon="0.46114">
        <ele>128</ele>
        <time>2019-08-03T11:58:04Z</time>
      </trkpt>
      <trkpt lat="47.77478" lon="0.46105">
        <ele>128</ele>
        <time>2019-08-03T11:58:09Z</time>
      </trkpt>
      <trkpt lat="47.77472" lon="0.46089">
        <ele>129</ele>
        <time>2019-08-03T11:58:18Z</time>
      </trkpt>
      <trkpt lat="47.77472" lon="0.46084">
        <ele>128</ele>
        <time>2019-08-03T11:58:20Z</time>
      </trkpt>
      <trkpt lat="47.7747" lon="0.4608">
        <ele>129</ele>
        <time>2019-08-03T11:58:23Z</time>
      </trkpt>
      <trkpt lat="47.77467" lon="0.46077">
        <ele>129</ele>
        <time>2019-08-03T11:58:26Z</time>
      </trkpt>
      <trkpt lat="47.77433" lon="0.46053">
        <ele>129</ele>
        <time>2019-08-03T11:58:57Z</time>
      </trkpt>
      <trkpt lat="47.7743" lon="0.46051">
        <ele>128</ele>
        <time>2019-08-03T11:59:00Z</time>
      </trkpt>
      <trkpt lat="47.77427" lon="0.46047">
        <ele>128</ele>
        <time>2019-08-03T11:59:03Z</time>
      </trkpt>
      <trkpt lat="47.77416" lon="0.46044">
        <ele>128</ele>
        <time>2019-08-03T11:59:12Z</time>
      </trkpt>
      <trkpt lat="47.77405" lon="0.46038">
        <ele>129</ele>
        <time>2019-08-03T11:59:21Z</time>
      </trkpt>
      <trkpt lat="47.77394" lon="0.46033">
        <ele>130</ele>
        <time>2019-08-03T11:59:31Z</time>
      </trkpt>
      <trkpt lat="47.77373" lon="0.46024">
        <ele>129</ele>
        <time>2019-08-03T11:59:50Z</time>
      </trkpt>
      <trkpt lat="47.77351" lon="0.46017">
        <ele>133</ele>
        <time>2019-08-03T12:00:05Z</time>
      </trkpt>
      <trkpt lat="47.77348" lon="0.46015">
        <ele>133</ele>
        <time>2019-08-03T12:00:08Z</time>
      </trkpt>
      <trkpt lat="47.77345" lon="0.46013">
        <ele>134</ele>
        <time>2019-08-03T12:00:11Z</time>
      </trkpt>
      <trkpt lat="47.77342" lon="0.46013">
        <ele>134</ele>
        <time>2019-08-03T12:00:13Z</time>
      </trkpt>
      <trkpt lat="47.77338" lon="0.46014">
        <ele>132</ele>
        <time>2019-08-03T12:00:16Z</time>
      </trkpt>
      <trkpt lat="47.7731" lon="0.4601">
        <ele>129</ele>
        <time>2019-08-03T12:00:37Z</time>
      </trkpt>
      <trkpt lat="47.77307" lon="0.46008">
        <ele>129</ele>
        <time>2019-08-03T12:00:41Z</time>
      </trkpt>
      <trkpt lat="47.77287" lon="0.46003">
        <ele>132</ele>
        <time>2019-08-03T12:00:55Z</time>
      </trkpt>
      <trkpt lat="47.77283" lon="0.46005">
        <ele>132</ele>
        <time>2019-08-03T12:00:57Z</time>
      </trkpt>
      <trkpt lat="47.7728" lon="0.46008">
        <ele>133</ele>
        <time>2019-08-03T12:00:59Z</time>
      </trkpt>
      <trkpt lat="47.77277" lon="0.46009">
        <ele>133</ele>
        <time>2019-08-03T12:01:02Z</time>
      </trkpt>
      <trkpt lat="47.77273" lon="0.46008">
        <ele>134</ele>
        <time>2019-08-03T12:01:05Z</time>
      </trkpt>
      <trkpt lat="47.77266" lon="0.46004">
        <ele>135</ele>
        <time>2019-08-03T12:01:11Z</time>
      </trkpt>
      <trkpt lat="47.77263" lon="0.46005">
        <ele>135</ele>
        <time>2019-08-03T12:01:14Z</time>
      </trkpt>
      <trkpt lat="47.77253" lon="0.46003">
        <ele>134</ele>
        <time>2019-08-03T12:01:21Z</time>
      </trkpt>
      <trkpt lat="47.77244" lon="0.46002">
        <ele>135</ele>
        <time>2019-08-03T12:01:27Z</time>
      </trkpt>
      <trkpt lat="47.77237" lon="0.45999">
        <ele>135</ele>
        <time>2019-08-03T12:01:33Z</time>
      </trkpt>
      <trkpt lat="47.77234" lon="0.45997">
        <ele>134</ele>
        <time>2019-08-03T12:01:36Z</time>
      </trkpt>
      <trkpt lat="47.77227" lon="0.45986">
        <ele>134</ele>
        <time>2019-08-03T12:01:42Z</time>
      </trkpt>
      <trkpt lat="47.77194" lon="0.45965">
        <ele>130</ele>
        <time>2019-08-03T12:02:12Z</time>
      </trkpt>
      <trkpt lat="47.77181" lon="0.45957">
        <ele>129</ele>
        <time>2019-08-03T12:02:24Z</time>
      </trkpt>
      <trkpt lat="47.77168" lon="0.45953">
        <ele>133</ele>
        <time>2019-08-03T12:02:33Z</time>
      </trkpt>
      <trkpt lat="47.77158" lon="0.45953">
        <ele>131</ele>
        <time>2019-08-03T12:02:41Z</time>
      </trkpt>
      <trkpt lat="47.77151" lon="0.45951">
        <ele>131</ele>
        <time>2019-08-03T12:02:45Z</time>
      </trkpt>
      <trkpt lat="47.77131" lon="0.45951">
        <ele>132</ele>
        <time>2019-08-03T12:03:00Z</time>
      </trkpt>
      <trkpt lat="47.77125" lon="0.45953">
        <ele>132</ele>
        <time>2019-08-03T12:03:05Z</time>
      </trkpt>
      <trkpt lat="47.7711" lon="0.45953">
        <ele>132</ele>
        <time>2019-08-03T12:03:16Z</time>
      </trkpt>
      <trkpt lat="47.77104" lon="0.45949">
        <ele>131</ele>
        <time>2019-08-03T12:03:22Z</time>
      </trkpt>
      <trkpt lat="47.77094" lon="0.45943">
        <ele>131</ele>
        <time>2019-08-03T12:03:30Z</time>
      </trkpt>
      <trkpt lat="47.7708" lon="0.45927">
        <ele>130</ele>
        <time>2019-08-03T12:03:45Z</time>
      </trkpt>
      <trkpt lat="47.77076" lon="0.45927">
        <ele>129</ele>
        <time>2019-08-03T12:03:48Z</time>
      </trkpt>
      <trkpt lat="47.77073" lon="0.45924">
        <ele>130</ele>
        <time>2019-08-03T12:03:50Z</time>
      </trkpt>
      <trkpt lat="47.77069" lon="0.4591">
        <ele>130</ele>
        <time>2019-08-03T12:03:57Z</time>
      </trkpt>
      <trkpt lat="47.77069" lon="0.45906">
        <ele>130</ele>
        <time>2019-08-03T12:03:59Z</time>
      </trkpt>
      <trkpt lat="47.77062" lon="0.45895">
        <ele>133</ele>
        <time>2019-08-03T12:04:05Z</time>
      </trkpt>
      <trkpt lat="47.77059" lon="0.45894">
        <ele>133</ele>
        <time>2019-08-03T12:04:07Z</time>
      </trkpt>
      <trkpt lat="47.77055" lon="0.45892">
        <ele>133</ele>
        <time>2019-08-03T12:04:10Z</time>
      </trkpt>
      <trkpt lat="47.77053" lon="0.45888">
        <ele>132</ele>
        <time>2019-08-03T12:04:14Z</time>
      </trkpt>
      <trkpt lat="47.77048" lon="0.45888">
        <ele>131</ele>
        <time>2019-08-03T12:04:17Z</time>
      </trkpt>
      <trkpt lat="47.77046" lon="0.45884">
        <ele>131</ele>
        <time>2019-08-03T12:04:20Z</time>
      </trkpt>
      <trkpt lat="47.77041" lon="0.45877">
        <ele>131</ele>
        <time>2019-08-03T12:04:26Z</time>
      </trkpt>
      <trkpt lat="47.77038" lon="0.45876">
        <ele>133</ele>
        <time>2019-08-03T12:04:28Z</time>
      </trkpt>
      <trkpt lat="47.77036" lon="0.45873">
        <ele>135</ele>
        <time>2019-08-03T12:04:31Z</time>
      </trkpt>
      <trkpt lat="47.77023" lon="0.4587">
        <ele>136</ele>
        <time>2019-08-03T12:04:41Z</time>
      </trkpt>
      <trkpt lat="47.77019" lon="0.4587">
        <ele>137</ele>
        <time>2019-08-03T12:04:44Z</time>
      </trkpt>
      <trkpt lat="47.77015" lon="0.45869">
        <ele>136</ele>
        <time>2019-08-03T12:04:48Z</time>
      </trkpt>
      <trkpt lat="47.76996" lon="0.45865">
        <ele>132</ele>
        <time>2019-08-03T12:05:03Z</time>
      </trkpt>
      <trkpt lat="47.76991" lon="0.4586">
        <ele>133</ele>
        <time>2019-08-03T12:05:08Z</time>
      </trkpt>
      <trkpt lat="47.76968" lon="0.45847">
        <ele>127</ele>
        <time>2019-08-03T12:05:27Z</time>
      </trkpt>
      <trkpt lat="47.76953" lon="0.45836">
        <ele>132</ele>
        <time>2019-08-03T12:05:47Z</time>
      </trkpt>
      <trkpt lat="47.76946" lon="0.45831">
        <ele>133</ele>
        <time>2019-08-03T12:05:53Z</time>
      </trkpt>
      <trkpt lat="47.76932" lon="0.45819">
        <ele>133</ele>
        <time>2019-08-03T12:06:05Z</time>
      </trkpt>
      <trkpt lat="47.76932" lon="0.45815">
        <ele>132</ele>
        <time>2019-08-03T12:06:25Z</time>
      </trkpt>
      <trkpt lat="47.7691" lon="0.4581">
        <ele>131</ele>
        <time>2019-08-03T12:06:41Z</time>
      </trkpt>
      <trkpt lat="47.76871" lon="0.45801">
        <ele>135</ele>
        <time>2019-08-03T12:07:12Z</time>
      </trkpt>
      <trkpt lat="47.76867" lon="0.458">
        <ele>135</ele>
        <time>2019-08-03T12:07:14Z</time>
      </trkpt>
      <trkpt lat="47.76864" lon="0.45798">
        <ele>135</ele>
        <time>2019-08-03T12:07:17Z</time>
      </trkpt>
      <trkpt lat="47.76857" lon="0.45798">
        <ele>133</ele>
        <time>2019-08-03T12:07:22Z</time>
      </trkpt>
      <trkpt lat="47.76817" lon="0.45779">
        <ele>131</ele>
        <time>2019-08-03T12:07:53Z</time>
      </trkpt>
      <trkpt lat="47.76814" lon="0.45779">
        <ele>131</ele>
        <time>2019-08-03T12:07:56Z</time>
      </trkpt>
      <trkpt lat="47.76784" lon="0.45763">
        <ele>129</ele>
        <time>2019-08-03T12:08:20Z</time>
      </trkpt>
      <trkpt lat="47.76781" lon="0.45762">
        <ele>130</ele>
        <time>2019-08-03T12:08:23Z</time>
      </trkpt>
      <trkpt lat="47.76779" lon="0.45759">
        <ele>131</ele>
        <time>2019-08-03T12:08:25Z</time>
      </trkpt>
      <trkpt lat="47.76776" lon="0.45758">
        <ele>130</ele>
        <time>2019-08-03T12:08:28Z</time>
      </trkpt>
      <trkpt lat="47.76764" lon="0.45761">
        <ele>128</ele>
        <time>2019-08-03T12:08:37Z</time>
      </trkpt>
      <trkpt lat="47.76762" lon="0.45762">
        <ele>128</ele>
        <time>2019-08-03T12:08:39Z</time>
      </trkpt>
      <trkpt lat="47.76753" lon="0.45768">
        <ele>128</ele>
        <time>2019-08-03T12:08:45Z</time>
      </trkpt>
      <trkpt lat="47.76741" lon="0.4578">
        <ele>129</ele>
        <time>2019-08-03T12:08:56Z</time>
      </trkpt>
      <trkpt lat="47.76728" lon="0.45788">
        <ele>129</ele>
        <time>2019-08-03T12:09:07Z</time>
      </trkpt>
      <trkpt lat="47.7671" lon="0.45799">
        <ele>130</ele>
        <time>2019-08-03T12:09:22Z</time>
      </trkpt>
      <trkpt lat="47.76676" lon="0.45821">
        <ele>127</ele>
        <time>2019-08-03T12:09:52Z</time>
      </trkpt>
      <trkpt lat="47.76651" lon="0.45842">
        <ele>127</ele>
        <time>2019-08-03T12:10:14Z</time>
      </trkpt>
      <trkpt lat="47.76638" lon="0.45844">
        <ele>127</ele>
        <time>2019-08-03T12:10:24Z</time>
      </trkpt>
      <trkpt lat="47.76634" lon="0.45842">
        <ele>126</ele>
        <time>2019-08-03T12:10:27Z</time>
      </trkpt>
      <trkpt lat="47.76628" lon="0.45836">
        <ele>126</ele>
        <time>2019-08-03T12:10:33Z</time>
      </trkpt>
      <trkpt lat="47.76597" lon="0.45808">
        <ele>124</ele>
        <time>2019-08-03T12:11:03Z</time>
      </trkpt>
      <trkpt lat="47.76592" lon="0.45797">
        <ele>123</ele>
        <time>2019-08-03T12:11:12Z</time>
      </trkpt>
      <trkpt lat="47.76589" lon="0.45793">
        <ele>124</ele>
        <time>2019-08-03T12:11:30Z</time>
      </trkpt>
      <trkpt lat="47.76581" lon="0.45783">
        <ele>123</ele>
        <time>2019-08-03T12:11:40Z</time>
      </trkpt>
      <trkpt lat="47.76569" lon="0.45777">
        <ele>122</ele>
        <time>2019-08-03T12:11:54Z</time>
      </trkpt>
      <trkpt lat="47.76559" lon="0.45771">
        <ele>123</ele>
        <time>2019-08-03T12:12:02Z</time>
      </trkpt>
      <trkpt lat="47.76556" lon="0.45773">
        <ele>123</ele>
        <time>2019-08-03T12:12:09Z</time>
      </trkpt>
      <trkpt lat="47.76554" lon="0.45769">
        <ele>125</ele>
        <time>2019-08-03T12:12:23Z</time>
      </trkpt>
      <trkpt lat="47.76548" lon="0.45767">
        <ele>127</ele>
        <time>2019-08-03T12:12:34Z</time>
      </trkpt>
      <trkpt lat="47.76545" lon="0.45767">
        <ele>126</ele>
        <time>2019-08-03T12:12:37Z</time>
      </trkpt>
      <trkpt lat="47.76526" lon="0.4576">
        <ele>124</ele>
        <time>2019-08-03T12:12:52Z</time>
      </trkpt>
      <trkpt lat="47.76516" lon="0.45759">
        <ele>123</ele>
        <time>2019-08-03T12:12:59Z</time>
      </trkpt>
      <trkpt lat="47.76492" lon="0.45746">
        <ele>125</ele>
        <time>2019-08-03T12:13:18Z</time>
      </trkpt>
      <trkpt lat="47.76481" lon="0.45735">
        <ele>125</ele>
        <time>2019-08-03T12:13:30Z</time>
      </trkpt>
      <trkpt lat="47.76479" lon="0.45729">
        <ele>122</ele>
        <time>2019-08-03T12:13:33Z</time>
      </trkpt>
      <trkpt lat="47.76478" lon="0.4572">
        <ele>122</ele>
        <time>2019-08-03T12:13:37Z</time>
      </trkpt>
      <trkpt lat="47.76475" lon="0.45716">
        <ele>121</ele>
        <time>2019-08-03T12:13:40Z</time>
      </trkpt>
      <trkpt lat="47.76472" lon="0.45714">
        <ele>122</ele>
        <time>2019-08-03T12:13:42Z</time>
      </trkpt>
      <trkpt lat="47.76469" lon="0.45711">
        <ele>122</ele>
        <time>2019-08-03T12:13:44Z</time>
      </trkpt>
      <trkpt lat="47.76466" lon="0.45708">
        <ele>121</ele>
        <time>2019-08-03T12:13:47Z</time>
      </trkpt>
      <trkpt lat="47.76465" lon="0.45705">
        <ele>120</ele>
        <time>2019-08-03T12:13:50Z</time>
      </trkpt>
      <trkpt lat="47.76455" lon="0.45697">
        <ele>117</ele>
        <time>2019-08-03T12:13:58Z</time>
      </trkpt>
      <trkpt lat="47.76453" lon="0.45694">
        <ele>118</ele>
        <time>2019-08-03T12:14:00Z</time>
      </trkpt>
      <trkpt lat="47.76447" lon="0.45688">
        <ele>120</ele>
        <time>2019-08-03T12:14:05Z</time>
      </trkpt>
      <trkpt lat="47.76436" lon="0.45676">
        <ele>120</ele>
        <time>2019-08-03T12:14:16Z</time>
      </trkpt>
      <trkpt lat="47.76417" lon="0.45655">
        <ele>122</ele>
        <time>2019-08-03T12:14:35Z</time>
      </trkpt>
      <trkpt lat="47.76408" lon="0.45648">
        <ele>119</ele>
        <time>2019-08-03T12:14:44Z</time>
      </trkpt>
      <trkpt lat="47.76404" lon="0.45645">
        <ele>118</ele>
        <time>2019-08-03T12:14:47Z</time>
      </trkpt>
      <trkpt lat="47.76396" lon="0.45634">
        <ele>116</ele>
        <time>2019-08-03T12:14:56Z</time>
      </trkpt>
      <trkpt lat="47.76394" lon="0.4563">
        <ele>116</ele>
        <time>2019-08-03T12:14:58Z</time>
      </trkpt>
      <trkpt lat="47.76391" lon="0.45626">
        <ele>114</ele>
        <time>2019-08-03T12:15:01Z</time>
      </trkpt>
      <trkpt lat="47.76382" lon="0.4562">
        <ele>111</ele>
        <time>2019-08-03T12:15:10Z</time>
      </trkpt>
      <trkpt lat="47.76378" lon="0.45616">
        <ele>110</ele>
        <time>2019-08-03T12:15:13Z</time>
      </trkpt>
      <trkpt lat="47.76346" lon="0.4562">
        <ele>108</ele>
        <time>2019-08-03T12:15:40Z</time>
      </trkpt>
      <trkpt lat="47.76334" lon="0.45628">
        <ele>103</ele>
        <time>2019-08-03T12:15:52Z</time>
      </trkpt>
      <trkpt lat="47.76324" lon="0.45628">
        <ele>100</ele>
        <time>2019-08-03T12:16:01Z</time>
      </trkpt>
      <trkpt lat="47.76315" lon="0.45622">
        <ele>100</ele>
        <time>2019-08-03T12:16:10Z</time>
      </trkpt>
      <trkpt lat="47.76313" lon="0.45619">
        <ele>100</ele>
        <time>2019-08-03T12:16:14Z</time>
      </trkpt>
      <trkpt lat="47.7631" lon="0.45617">
        <ele>100</ele>
        <time>2019-08-03T12:16:20Z</time>
      </trkpt>
      <trkpt lat="47.76295" lon="0.456">
        <ele>96</ele>
        <time>2019-08-03T12:16:34Z</time>
      </trkpt>
      <trkpt lat="47.76292" lon="0.45595">
        <ele>96</ele>
        <time>2019-08-03T12:16:38Z</time>
      </trkpt>
      <trkpt lat="47.76287" lon="0.45587">
        <ele>97</ele>
        <time>2019-08-03T12:16:43Z</time>
      </trkpt>
      <trkpt lat="47.76283" lon="0.45584">
        <ele>96</ele>
        <time>2019-08-03T12:16:46Z</time>
      </trkpt>
      <trkpt lat="47.76275" lon="0.45582">
        <ele>94</ele>
        <time>2019-08-03T12:16:54Z</time>
      </trkpt>
      <trkpt lat="47.76268" lon="0.45584">
        <ele>91</ele>
        <time>2019-08-03T12:17:00Z</time>
      </trkpt>
      <trkpt lat="47.76265" lon="0.45587">
        <ele>89</ele>
        <time>2019-08-03T12:17:03Z</time>
      </trkpt>
      <trkpt lat="47.76262" lon="0.45591">
        <ele>88</ele>
        <time>2019-08-03T12:17:06Z</time>
      </trkpt>
      <trkpt lat="47.76255" lon="0.45597">
        <ele>88</ele>
        <time>2019-08-03T12:17:12Z</time>
      </trkpt>
      <trkpt lat="47.76252" lon="0.45598">
        <ele>87</ele>
        <time>2019-08-03T12:17:16Z</time>
      </trkpt>
      <trkpt lat="47.7625" lon="0.45602">
        <ele>86</ele>
        <time>2019-08-03T12:17:30Z</time>
      </trkpt>
      <trkpt lat="47.76246" lon="0.45604">
        <ele>86</ele>
        <time>2019-08-03T12:17:33Z</time>
      </trkpt>
      <trkpt lat="47.76212" lon="0.4561">
        <ele>86</ele>
        <time>2019-08-03T12:18:03Z</time>
      </trkpt>
      <trkpt lat="47.76206" lon="0.45613">
        <ele>86</ele>
        <time>2019-08-03T12:18:10Z</time>
      </trkpt>
      <trkpt lat="47.76189" lon="0.45622">
        <ele>84</ele>
        <time>2019-08-03T12:18:31Z</time>
      </trkpt>
      <trkpt lat="47.76184" lon="0.45631">
        <ele>85</ele>
        <time>2019-08-03T12:18:37Z</time>
      </trkpt>
      <trkpt lat="47.76184" lon="0.45636">
        <ele>85</ele>
        <time>2019-08-03T12:18:40Z</time>
      </trkpt>
      <trkpt lat="47.76184" lon="0.45641">
        <ele>85</ele>
        <time>2019-08-03T12:18:42Z</time>
      </trkpt>
      <trkpt lat="47.76191" lon="0.45698">
        <ele>91</ele>
        <time>2019-08-03T12:19:11Z</time>
      </trkpt>
      <trkpt lat="47.76194" lon="0.45708">
        <ele>91</ele>
        <time>2019-08-03T12:19:17Z</time>
      </trkpt>
      <trkpt lat="47.76196" lon="0.45718">
        <ele>92</ele>
        <time>2019-08-03T12:19:23Z</time>
      </trkpt>
      <trkpt lat="47.76197" lon="0.45728">
        <ele>93</ele>
        <time>2019-08-03T12:19:36Z</time>
      </trkpt>
      <trkpt lat="47.76198" lon="0.45733">
        <ele>92</ele>
        <time>2019-08-03T12:19:38Z</time>
      </trkpt>
      <trkpt lat="47.762" lon="0.45742">
        <ele>92</ele>
        <time>2019-08-03T12:19:44Z</time>
      </trkpt>
      <trkpt lat="47.76199" lon="0.45747">
        <ele>92</ele>
        <time>2019-08-03T12:19:48Z</time>
      </trkpt>
      <trkpt lat="47.76195" lon="0.4575">
        <ele>89</ele>
        <time>2019-08-03T12:51:22Z</time>
      </trkpt>
      <trkpt lat="47.76195" lon="0.4575">
        <ele>89</ele>
        <time>2019-08-03T12:51:23Z</time>
      </trkpt>
      <trkpt lat="47.7618" lon="0.45758">
        <ele>89</ele>
        <time>2019-08-03T12:51:49Z</time>
      </trkpt>
      <trkpt lat="47.76176" lon="0.45761">
        <ele>90</ele>
        <time>2019-08-03T12:51:53Z</time>
      </trkpt>
      <trkpt lat="47.76173" lon="0.45762">
        <ele>93</ele>
        <time>2019-08-03T12:51:57Z</time>
      </trkpt>
      <trkpt lat="47.7617" lon="0.45763">
        <ele>94</ele>
        <time>2019-08-03T12:52:02Z</time>
      </trkpt>
      <trkpt lat="47.7616" lon="0.45774">
        <ele>100</ele>
        <time>2019-08-03T12:52:17Z</time>
      </trkpt>
      <trkpt lat="47.7616" lon="0.45788">
        <ele>101</ele>
        <time>2019-08-03T12:52:26Z</time>
      </trkpt>
      <trkpt lat="47.76161" lon="0.45801">
        <ele>102</ele>
        <time>2019-08-03T12:52:36Z</time>
      </trkpt>
      <trkpt lat="47.76168" lon="0.45827">
        <ele>104</ele>
        <time>2019-08-03T12:52:52Z</time>
      </trkpt>
      <trkpt lat="47.76167" lon="0.4584">
        <ele>102</ele>
        <time>2019-08-03T12:52:58Z</time>
      </trkpt>
      <trkpt lat="47.76172" lon="0.45853">
        <ele>103</ele>
        <time>2019-08-03T12:53:06Z</time>
      </trkpt>
      <trkpt lat="47.7618" lon="0.45878">
        <ele>106</ele>
        <time>2019-08-03T12:53:24Z</time>
      </trkpt>
      <trkpt lat="47.76184" lon="0.4589">
        <ele>107</ele>
        <time>2019-08-03T12:53:31Z</time>
      </trkpt>
      <trkpt lat="47.76192" lon="0.45898">
        <ele>110</ele>
        <time>2019-08-03T12:53:41Z</time>
      </trkpt>
      <trkpt lat="47.76193" lon="0.45911">
        <ele>114</ele>
        <time>2019-08-03T12:53:48Z</time>
      </trkpt>
      <trkpt lat="47.76194" lon="0.45925">
        <ele>113</ele>
        <time>2019-08-03T12:53:54Z</time>
      </trkpt>
      <trkpt lat="47.76195" lon="0.45939">
        <ele>110</ele>
        <time>2019-08-03T12:54:00Z</time>
      </trkpt>
      <trkpt lat="47.76197" lon="0.45952">
        <ele>108</ele>
        <time>2019-08-03T12:54:08Z</time>
      </trkpt>
      <trkpt lat="47.76199" lon="0.45966">
        <ele>110</ele>
        <time>2019-08-03T12:54:18Z</time>
      </trkpt>
      <trkpt lat="47.76204" lon="0.45975">
        <ele>114</ele>
        <time>2019-08-03T12:54:27Z</time>
      </trkpt>
      <trkpt lat="47.76206" lon="0.4599">
        <ele>120</ele>
        <time>2019-08-03T12:54:36Z</time>
      </trkpt>
      <trkpt lat="47.76204" lon="0.46003">
        <ele>119</ele>
        <time>2019-08-03T12:54:44Z</time>
      </trkpt>
      <trkpt lat="47.76201" lon="0.46029">
        <ele>116</ele>
        <time>2019-08-03T12:54:59Z</time>
      </trkpt>
      <trkpt lat="47.76197" lon="0.46042">
        <ele>124</ele>
        <time>2019-08-03T12:55:09Z</time>
      </trkpt>
      <trkpt lat="47.76189" lon="0.46048">
        <ele>127</ele>
        <time>2019-08-03T12:55:16Z</time>
      </trkpt>
      <trkpt lat="47.76155" lon="0.4608">
        <ele>131</ele>
        <time>2019-08-03T12:55:47Z</time>
      </trkpt>
      <trkpt lat="47.76132" lon="0.46113">
        <ele>126</ele>
        <time>2019-08-03T12:56:10Z</time>
      </trkpt>
      <trkpt lat="47.76131" lon="0.46117">
        <ele>125</ele>
        <time>2019-08-03T12:56:13Z</time>
      </trkpt>
      <trkpt lat="47.76128" lon="0.46122">
        <ele>125</ele>
        <time>2019-08-03T12:56:16Z</time>
      </trkpt>
      <trkpt lat="47.76118" lon="0.46131">
        <ele>126</ele>
        <time>2019-08-03T12:56:24Z</time>
      </trkpt>
      <trkpt lat="47.76115" lon="0.46133">
        <ele>126</ele>
        <time>2019-08-03T12:56:26Z</time>
      </trkpt>
      <trkpt lat="47.76107" lon="0.46139">
        <ele>129</ele>
        <time>2019-08-03T12:56:32Z</time>
      </trkpt>
      <trkpt lat="47.76105" lon="0.46142">
        <ele>129</ele>
        <time>2019-08-03T12:56:34Z</time>
      </trkpt>
      <trkpt lat="47.76102" lon="0.46146">
        <ele>129</ele>
        <time>2019-08-03T12:56:37Z</time>
      </trkpt>
      <trkpt lat="47.76097" lon="0.46153">
        <ele>128</ele>
        <time>2019-08-03T12:56:43Z</time>
      </trkpt>
      <trkpt lat="47.76094" lon="0.46163">
        <ele>126</ele>
        <time>2019-08-03T12:56:49Z</time>
      </trkpt>
      <trkpt lat="47.76094" lon="0.46167">
        <ele>127</ele>
        <time>2019-08-03T12:56:51Z</time>
      </trkpt>
      <trkpt lat="47.76104" lon="0.46198">
        <ele>128</ele>
        <time>2019-08-03T12:57:09Z</time>
      </trkpt>
      <trkpt lat="47.76105" lon="0.46202">
        <ele>128</ele>
        <time>2019-08-03T12:57:12Z</time>
      </trkpt>
      <trkpt lat="47.76106" lon="0.46208">
        <ele>129</ele>
        <time>2019-08-03T12:57:15Z</time>
      </trkpt>
      <trkpt lat="47.76108" lon="0.46212">
        <ele>129</ele>
        <time>2019-08-03T12:57:18Z</time>
      </trkpt>
      <trkpt lat="47.76108" lon="0.46217">
        <ele>129</ele>
        <time>2019-08-03T12:57:21Z</time>
      </trkpt>
      <trkpt lat="47.76106" lon="0.46222">
        <ele>129</ele>
        <time>2019-08-03T12:57:37Z</time>
      </trkpt>
      <trkpt lat="47.76104" lon="0.46224">
        <ele>129</ele>
        <time>2019-08-03T12:57:40Z</time>
      </trkpt>
      <trkpt lat="47.76098" lon="0.46228">
        <ele>130</ele>
        <time>2019-08-03T12:57:46Z</time>
      </trkpt>
      <trkpt lat="47.76059" lon="0.4624">
        <ele>130</ele>
        <time>2019-08-03T12:58:18Z</time>
      </trkpt>
      <trkpt lat="47.76024" lon="0.46251">
        <ele>128</ele>
        <time>2019-08-03T12:58:48Z</time>
      </trkpt>
      <trkpt lat="47.76021" lon="0.46251">
        <ele>128</ele>
        <time>2019-08-03T12:58:52Z</time>
      </trkpt>
      <trkpt lat="47.76017" lon="0.46252">
        <ele>128</ele>
        <time>2019-08-03T12:58:56Z</time>
      </trkpt>
      <trkpt lat="47.76011" lon="0.46253">
        <ele>129</ele>
        <time>2019-08-03T12:59:01Z</time>
      </trkpt>
      <trkpt lat="47.75997" lon="0.46248">
        <ele>126</ele>
        <time>2019-08-03T12:59:13Z</time>
      </trkpt>
      <trkpt lat="47.75953" lon="0.46227">
        <ele>125</ele>
        <time>2019-08-03T12:59:49Z</time>
      </trkpt>
      <trkpt lat="47.75938" lon="0.46213">
        <ele>127</ele>
        <time>2019-08-03T13:00:04Z</time>
      </trkpt>
      <trkpt lat="47.75936" lon="0.46209">
        <ele>126</ele>
        <time>2019-08-03T13:00:06Z</time>
      </trkpt>
      <trkpt lat="47.75934" lon="0.46206">
        <ele>126</ele>
        <time>2019-08-03T13:00:08Z</time>
      </trkpt>
      <trkpt lat="47.75921" lon="0.46191">
        <ele>132</ele>
        <time>2019-08-03T13:00:23Z</time>
      </trkpt>
      <trkpt lat="47.75917" lon="0.46184">
        <ele>132</ele>
        <time>2019-08-03T13:00:29Z</time>
      </trkpt>
      <trkpt lat="47.75916" lon="0.46179">
        <ele>131</ele>
        <time>2019-08-03T13:00:32Z</time>
      </trkpt>
      <trkpt lat="47.75903" lon="0.46156">
        <ele>128</ele>
        <time>2019-08-03T13:00:45Z</time>
      </trkpt>
      <trkpt lat="47.75898" lon="0.46149">
        <ele>127</ele>
        <time>2019-08-03T13:00:51Z</time>
      </trkpt>
      <trkpt lat="47.75879" lon="0.46122">
        <ele>127</ele>
        <time>2019-08-03T13:01:07Z</time>
      </trkpt>
      <trkpt lat="47.75875" lon="0.4612">
        <ele>127</ele>
        <time>2019-08-03T13:01:10Z</time>
      </trkpt>
      <trkpt lat="47.75851" lon="0.46092">
        <ele>128</ele>
        <time>2019-08-03T13:01:35Z</time>
      </trkpt>
      <trkpt lat="47.75849" lon="0.46088">
        <ele>128</ele>
        <time>2019-08-03T13:01:37Z</time>
      </trkpt>
      <trkpt lat="47.75846" lon="0.46085">
        <ele>129</ele>
        <time>2019-08-03T13:01:40Z</time>
      </trkpt>
      <trkpt lat="47.7582" lon="0.46072">
        <ele>129</ele>
        <time>2019-08-03T13:02:04Z</time>
      </trkpt>
      <trkpt lat="47.75816" lon="0.4607">
        <ele>128</ele>
        <time>2019-08-03T13:02:07Z</time>
      </trkpt>
      <trkpt lat="47.75799" lon="0.46063">
        <ele>127</ele>
        <time>2019-08-03T13:02:22Z</time>
      </trkpt>
      <trkpt lat="47.75782" lon="0.46053">
        <ele>129</ele>
        <time>2019-08-03T13:02:34Z</time>
      </trkpt>
      <trkpt lat="47.75779" lon="0.4605">
        <ele>128</ele>
        <time>2019-08-03T13:02:37Z</time>
      </trkpt>
      <trkpt lat="47.75773" lon="0.46044">
        <ele>129</ele>
        <time>2019-08-03T13:02:43Z</time>
      </trkpt>
      <trkpt lat="47.75769" lon="0.46035">
        <ele>129</ele>
        <time>2019-08-03T13:02:49Z</time>
      </trkpt>
      <trkpt lat="47.75769" lon="0.46031">
        <ele>129</ele>
        <time>2019-08-03T13:02:52Z</time>
      </trkpt>
      <trkpt lat="47.75767" lon="0.46027">
        <ele>128</ele>
        <time>2019-08-03T13:02:55Z</time>
      </trkpt>
      <trkpt lat="47.75764" lon="0.46023">
        <ele>128</ele>
        <time>2019-08-03T13:02:58Z</time>
      </trkpt>
      <trkpt lat="47.75759" lon="0.46015">
        <ele>128</ele>
        <time>2019-08-03T13:03:08Z</time>
      </trkpt>
      <trkpt lat="47.75756" lon="0.46013">
        <ele>129</ele>
        <time>2019-08-03T13:03:12Z</time>
      </trkpt>
      <trkpt lat="47.7575" lon="0.46012">
        <ele>128</ele>
        <time>2019-08-03T13:03:18Z</time>
      </trkpt>
      <trkpt lat="47.75745" lon="0.46014">
        <ele>127</ele>
        <time>2019-08-03T13:03:20Z</time>
      </trkpt>
      <trkpt lat="47.7574" lon="0.46015">
        <ele>127</ele>
        <time>2019-08-03T13:03:23Z</time>
      </trkpt>
      <trkpt lat="47.75706" lon="0.46038">
        <ele>130</ele>
        <time>2019-08-03T13:03:57Z</time>
      </trkpt>
      <trkpt lat="47.75684" lon="0.46055">
        <ele>129</ele>
        <time>2019-08-03T13:04:14Z</time>
      </trkpt>
      <trkpt lat="47.75681" lon="0.46056">
        <ele>129</ele>
        <time>2019-08-03T13:04:16Z</time>
      </trkpt>
      <trkpt lat="47.7566" lon="0.46074">
        <ele>130</ele>
        <time>2019-08-03T13:04:35Z</time>
      </trkpt>
      <trkpt lat="47.75643" lon="0.4608">
        <ele>131</ele>
        <time>2019-08-03T13:04:50Z</time>
      </trkpt>
      <trkpt lat="47.75635" lon="0.46076">
        <ele>131</ele>
        <time>2019-08-03T13:04:58Z</time>
      </trkpt>
      <trkpt lat="47.75633" lon="0.46072">
        <ele>131</ele>
        <time>2019-08-03T13:05:01Z</time>
      </trkpt>
      <trkpt lat="47.75631" lon="0.46067">
        <ele>129</ele>
        <time>2019-08-03T13:05:04Z</time>
      </trkpt>
      <trkpt lat="47.75622" lon="0.46054">
        <ele>130</ele>
        <time>2019-08-03T13:05:17Z</time>
      </trkpt>
      <trkpt lat="47.7562" lon="0.46051">
        <ele>130</ele>
        <time>2019-08-03T13:05:20Z</time>
      </trkpt>
      <trkpt lat="47.75611" lon="0.4604">
        <ele>128</ele>
        <time>2019-08-03T13:05:33Z</time>
      </trkpt>
      <trkpt lat="47.75606" lon="0.46032">
        <ele>128</ele>
        <time>2019-08-03T13:05:37Z</time>
      </trkpt>
      <trkpt lat="47.75597" lon="0.46024">
        <ele>127</ele>
        <time>2019-08-03T13:05:43Z</time>
      </trkpt>
      <trkpt lat="47.75586" lon="0.46013">
        <ele>127</ele>
        <time>2019-08-03T13:05:51Z</time>
      </trkpt>
      <trkpt lat="47.75583" lon="0.4601">
        <ele>126</ele>
        <time>2019-08-03T13:05:56Z</time>
      </trkpt>
      <trkpt lat="47.7558" lon="0.46007">
        <ele>126</ele>
        <time>2019-08-03T13:05:59Z</time>
      </trkpt>
      <trkpt lat="47.75577" lon="0.46003">
        <ele>125</ele>
        <time>2019-08-03T13:06:03Z</time>
      </trkpt>
      <trkpt lat="47.75574" lon="0.46002">
        <ele>125</ele>
        <time>2019-08-03T13:06:05Z</time>
      </trkpt>
      <trkpt lat="47.75571" lon="0.45999">
        <ele>125</ele>
        <time>2019-08-03T13:06:10Z</time>
      </trkpt>
      <trkpt lat="47.75561" lon="0.45987">
        <ele>127</ele>
        <time>2019-08-03T13:06:18Z</time>
      </trkpt>
      <trkpt lat="47.75558" lon="0.45985">
        <ele>127</ele>
        <time>2019-08-03T13:06:21Z</time>
      </trkpt>
      <trkpt lat="47.75549" lon="0.45977">
        <ele>128</ele>
        <time>2019-08-03T13:06:31Z</time>
      </trkpt>
      <trkpt lat="47.75544" lon="0.45968">
        <ele>128</ele>
        <time>2019-08-03T13:06:35Z</time>
      </trkpt>
      <trkpt lat="47.75541" lon="0.45965">
        <ele>128</ele>
        <time>2019-08-03T13:06:37Z</time>
      </trkpt>
      <trkpt lat="47.75538" lon="0.45961">
        <ele>126</ele>
        <time>2019-08-03T13:06:40Z</time>
      </trkpt>
      <trkpt lat="47.75537" lon="0.45957">
        <ele>126</ele>
        <time>2019-08-03T13:06:43Z</time>
      </trkpt>
      <trkpt lat="47.75534" lon="0.4594">
        <ele>121</ele>
        <time>2019-08-03T13:06:54Z</time>
      </trkpt>
      <trkpt lat="47.7553" lon="0.4592">
        <ele>124</ele>
        <time>2019-08-03T13:07:04Z</time>
      </trkpt>
      <trkpt lat="47.75528" lon="0.45917">
        <ele>124</ele>
        <time>2019-08-03T13:07:06Z</time>
      </trkpt>
      <trkpt lat="47.75525" lon="0.45872">
        <ele>121</ele>
        <time>2019-08-03T13:07:27Z</time>
      </trkpt>
      <trkpt lat="47.75526" lon="0.45867">
        <ele>121</ele>
        <time>2019-08-03T13:07:30Z</time>
      </trkpt>
      <trkpt lat="47.75528" lon="0.45863">
        <ele>121</ele>
        <time>2019-08-03T13:07:33Z</time>
      </trkpt>
      <trkpt lat="47.75529" lon="0.45859">
        <ele>121</ele>
        <time>2019-08-03T13:07:35Z</time>
      </trkpt>
      <trkpt lat="47.7553" lon="0.45855">
        <ele>121</ele>
        <time>2019-08-03T13:07:37Z</time>
      </trkpt>
      <trkpt lat="47.7553" lon="0.4585">
        <ele>120</ele>
        <time>2019-08-03T13:07:42Z</time>
      </trkpt>
      <trkpt lat="47.75531" lon="0.45839">
        <ele>120</ele>
        <time>2019-08-03T13:07:47Z</time>
      </trkpt>
      <trkpt lat="47.75529" lon="0.45834">
        <ele>120</ele>
        <time>2019-08-03T13:07:50Z</time>
      </trkpt>
      <trkpt lat="47.75528" lon="0.45829">
        <ele>120</ele>
        <time>2019-08-03T13:07:53Z</time>
      </trkpt>
      <trkpt lat="47.75529" lon="0.45824">
        <ele>119</ele>
        <time>2019-08-03T13:07:58Z</time>
      </trkpt>
      <trkpt lat="47.75526" lon="0.45809">
        <ele>121</ele>
        <time>2019-08-03T13:08:07Z</time>
      </trkpt>
      <trkpt lat="47.75526" lon="0.458">
        <ele>119</ele>
        <time>2019-08-03T13:08:12Z</time>
      </trkpt>
      <trkpt lat="47.75527" lon="0.45793">
        <ele>118</ele>
        <time>2019-08-03T13:08:15Z</time>
      </trkpt>
      <trkpt lat="47.75534" lon="0.4578">
        <ele>117</ele>
        <time>2019-08-03T13:08:23Z</time>
      </trkpt>
      <trkpt lat="47.75534" lon="0.45775">
        <ele>116</ele>
        <time>2019-08-03T13:08:27Z</time>
      </trkpt>
      <trkpt lat="47.75534" lon="0.45763">
        <ele>113</ele>
        <time>2019-08-03T13:08:33Z</time>
      </trkpt>
      <trkpt lat="47.75536" lon="0.4576">
        <ele>114</ele>
        <time>2019-08-03T13:08:36Z</time>
      </trkpt>
      <trkpt lat="47.75535" lon="0.45755">
        <ele>115</ele>
        <time>2019-08-03T13:08:38Z</time>
      </trkpt>
      <trkpt lat="47.75535" lon="0.45751">
        <ele>115</ele>
        <time>2019-08-03T13:08:40Z</time>
      </trkpt>
      <trkpt lat="47.75535" lon="0.45736">
        <ele>116</ele>
        <time>2019-08-03T13:08:48Z</time>
      </trkpt>
      <trkpt lat="47.75535" lon="0.45731">
        <ele>116</ele>
        <time>2019-08-03T13:08:50Z</time>
      </trkpt>
      <trkpt lat="47.7554" lon="0.45724">
        <ele>115</ele>
        <time>2019-08-03T13:08:55Z</time>
      </trkpt>
      <trkpt lat="47.75543" lon="0.45721">
        <ele>113</ele>
        <time>2019-08-03T13:09:00Z</time>
      </trkpt>
      <trkpt lat="47.75543" lon="0.45717">
        <ele>109</ele>
        <time>2019-08-03T13:09:36Z</time>
      </trkpt>
      <trkpt lat="47.75543" lon="0.45713">
        <ele>108</ele>
        <time>2019-08-03T13:09:43Z</time>
      </trkpt>
      <trkpt lat="47.75541" lon="0.4571">
        <ele>105</ele>
        <time>2019-08-03T13:09:51Z</time>
      </trkpt>
      <trkpt lat="47.7554" lon="0.45706">
        <ele>103</ele>
        <time>2019-08-03T13:10:06Z</time>
      </trkpt>
      <trkpt lat="47.75543" lon="0.45703">
        <ele>102</ele>
        <time>2019-08-03T13:10:12Z</time>
      </trkpt>
      <trkpt lat="47.75553" lon="0.45697">
        <ele>119</ele>
        <time>2019-08-03T13:11:51Z</time>
      </trkpt>
      <trkpt lat="47.75554" lon="0.45693">
        <ele>118</ele>
        <time>2019-08-03T13:11:53Z</time>
      </trkpt>
      <trkpt lat="47.75555" lon="0.45688">
        <ele>113</ele>
        <time>2019-08-03T13:12:01Z</time>
      </trkpt>
      <trkpt lat="47.75557" lon="0.45665">
        <ele>106</ele>
        <time>2019-08-03T13:12:22Z</time>
      </trkpt>
      <trkpt lat="47.75558" lon="0.45607">
        <ele>96</ele>
        <time>2019-08-03T13:12:53Z</time>
      </trkpt>
      <trkpt lat="47.75559" lon="0.45597">
        <ele>97</ele>
        <time>2019-08-03T13:12:58Z</time>
      </trkpt>
      <trkpt lat="47.75561" lon="0.45592">
        <ele>97</ele>
        <time>2019-08-03T13:13:01Z</time>
      </trkpt>
      <trkpt lat="47.75563" lon="0.45573">
        <ele>99</ele>
        <time>2019-08-03T13:13:11Z</time>
      </trkpt>
      <trkpt lat="47.75562" lon="0.45567">
        <ele>99</ele>
        <time>2019-08-03T13:13:14Z</time>
      </trkpt>
      <trkpt lat="47.75563" lon="0.45562">
        <ele>99</ele>
        <time>2019-08-03T13:13:18Z</time>
      </trkpt>
      <trkpt lat="47.75563" lon="0.45556">
        <ele>100</ele>
        <time>2019-08-03T13:13:21Z</time>
      </trkpt>
      <trkpt lat="47.75563" lon="0.4555">
        <ele>96</ele>
        <time>2019-08-03T13:13:24Z</time>
      </trkpt>
      <trkpt lat="47.75564" lon="0.45539">
        <ele>95</ele>
        <time>2019-08-03T13:13:28Z</time>
      </trkpt>
      <trkpt lat="47.75566" lon="0.45534">
        <ele>96</ele>
        <time>2019-08-03T13:13:30Z</time>
      </trkpt>
      <trkpt lat="47.75567" lon="0.45524">
        <ele>95</ele>
        <time>2019-08-03T13:13:35Z</time>
      </trkpt>
      <trkpt lat="47.75568" lon="0.45514">
        <ele>94</ele>
        <time>2019-08-03T13:13:39Z</time>
      </trkpt>
      <trkpt lat="47.7557" lon="0.45478">
        <ele>88</ele>
        <time>2019-08-03T13:13:57Z</time>
      </trkpt>
      <trkpt lat="47.75568" lon="0.45473">
        <ele>89</ele>
        <time>2019-08-03T13:13:59Z</time>
      </trkpt>
      <trkpt lat="47.75565" lon="0.45469">
        <ele>90</ele>
        <time>2019-08-03T13:14:01Z</time>
      </trkpt>
      <trkpt lat="47.75563" lon="0.45465">
        <ele>91</ele>
        <time>2019-08-03T13:14:03Z</time>
      </trkpt>
      <trkpt lat="47.75561" lon="0.45453">
        <ele>90</ele>
        <time>2019-08-03T13:14:12Z</time>
      </trkpt>
      <trkpt lat="47.75565" lon="0.45439">
        <ele>89</ele>
        <time>2019-08-03T13:14:19Z</time>
      </trkpt>
      <trkpt lat="47.75567" lon="0.45435">
        <ele>86</ele>
        <time>2019-08-03T13:14:22Z</time>
      </trkpt>
      <trkpt lat="47.75569" lon="0.4543">
        <ele>85</ele>
        <time>2019-08-03T13:14:24Z</time>
      </trkpt>
      <trkpt lat="47.75568" lon="0.45414">
        <ele>84</ele>
        <time>2019-08-03T13:14:32Z</time>
      </trkpt>
      <trkpt lat="47.75568" lon="0.45409">
        <ele>84</ele>
        <time>2019-08-03T13:14:34Z</time>
      </trkpt>
      <trkpt lat="47.75567" lon="0.45389">
        <ele>82</ele>
        <time>2019-08-03T13:14:44Z</time>
      </trkpt>
      <trkpt lat="47.75567" lon="0.45383">
        <ele>81</ele>
        <time>2019-08-03T13:14:47Z</time>
      </trkpt>
      <trkpt lat="47.75568" lon="0.45379">
        <ele>81</ele>
        <time>2019-08-03T13:14:50Z</time>
      </trkpt>
      <trkpt lat="47.75568" lon="0.45374">
        <ele>81</ele>
        <time>2019-08-03T13:14:53Z</time>
      </trkpt>
      <trkpt lat="47.75568" lon="0.45369">
        <ele>81</ele>
        <time>2019-08-03T13:14:56Z</time>
      </trkpt>
      <trkpt lat="47.75568" lon="0.45364">
        <ele>80</ele>
        <time>2019-08-03T13:15:07Z</time>
      </trkpt>
      <trkpt lat="47.75569" lon="0.45359">
        <ele>79</ele>
        <time>2019-08-03T13:15:11Z</time>
      </trkpt>
      <trkpt lat="47.75567" lon="0.45354">
        <ele>78</ele>
        <time>2019-08-03T13:15:14Z</time>
      </trkpt>
      <trkpt lat="47.75567" lon="0.45306">
        <ele>76</ele>
        <time>2019-08-03T13:15:38Z</time>
      </trkpt>
      <trkpt lat="47.75566" lon="0.45296">
        <ele>75</ele>
        <time>2019-08-03T13:15:42Z</time>
      </trkpt>
      <trkpt lat="47.75567" lon="0.45291">
        <ele>76</ele>
        <time>2019-08-03T13:15:45Z</time>
      </trkpt>
      <trkpt lat="47.75568" lon="0.45287">
        <ele>76</ele>
        <time>2019-08-03T13:15:49Z</time>
      </trkpt>
      <trkpt lat="47.7557" lon="0.45282">
        <ele>75</ele>
        <time>2019-08-03T13:15:53Z</time>
      </trkpt>
      <trkpt lat="47.75573" lon="0.45268">
        <ele>74</ele>
        <time>2019-08-03T13:16:03Z</time>
      </trkpt>
      <trkpt lat="47.75574" lon="0.45262">
        <ele>74</ele>
        <time>2019-08-03T13:16:06Z</time>
      </trkpt>
      <trkpt lat="47.75573" lon="0.45246">
        <ele>74</ele>
        <time>2019-08-03T13:16:19Z</time>
      </trkpt>
      <trkpt lat="47.75574" lon="0.4524">
        <ele>73</ele>
        <time>2019-08-03T13:16:22Z</time>
      </trkpt>
      <trkpt lat="47.75575" lon="0.45235">
        <ele>73</ele>
        <time>2019-08-03T13:16:24Z</time>
      </trkpt>
      <trkpt lat="47.75571" lon="0.45185">
        <ele>78</ele>
        <time>2019-08-03T13:16:50Z</time>
      </trkpt>
      <trkpt lat="47.75569" lon="0.45179">
        <ele>79</ele>
        <time>2019-08-03T13:16:53Z</time>
      </trkpt>
      <trkpt lat="47.75569" lon="0.45175">
        <ele>80</ele>
        <time>2019-08-03T13:16:56Z</time>
      </trkpt>
      <trkpt lat="47.75571" lon="0.45169">
        <ele>79</ele>
        <time>2019-08-03T13:16:59Z</time>
      </trkpt>
      <trkpt lat="47.75572" lon="0.45166">
        <ele>76</ele>
        <time>2019-08-03T13:17:01Z</time>
      </trkpt>
      <trkpt lat="47.75596" lon="0.45149">
        <ele>74</ele>
        <time>2019-08-03T13:17:21Z</time>
      </trkpt>
      <trkpt lat="47.75599" lon="0.45149">
        <ele>75</ele>
        <time>2019-08-03T13:17:24Z</time>
      </trkpt>
      <trkpt lat="47.75602" lon="0.45148">
        <ele>75</ele>
        <time>2019-08-03T13:17:27Z</time>
      </trkpt>
      <trkpt lat="47.75613" lon="0.45143">
        <ele>76</ele>
        <time>2019-08-03T13:17:36Z</time>
      </trkpt>
      <trkpt lat="47.7565" lon="0.45132">
        <ele>76</ele>
        <time>2019-08-03T13:18:06Z</time>
      </trkpt>
      <trkpt lat="47.75659" lon="0.45129">
        <ele>78</ele>
        <time>2019-08-03T13:18:16Z</time>
      </trkpt>
      <trkpt lat="47.75663" lon="0.45127">
        <ele>78</ele>
        <time>2019-08-03T13:18:19Z</time>
      </trkpt>
      <trkpt lat="47.7567" lon="0.45123">
        <ele>79</ele>
        <time>2019-08-03T13:18:25Z</time>
      </trkpt>
      <trkpt lat="47.75674" lon="0.4512">
        <ele>79</ele>
        <time>2019-08-03T13:18:28Z</time>
      </trkpt>
      <trkpt lat="47.75677" lon="0.45118">
        <ele>79</ele>
        <time>2019-08-03T13:18:31Z</time>
      </trkpt>
      <trkpt lat="47.75701" lon="0.45104">
        <ele>79</ele>
        <time>2019-08-03T13:18:50Z</time>
      </trkpt>
      <trkpt lat="47.75705" lon="0.45105">
        <ele>79</ele>
        <time>2019-08-03T13:18:53Z</time>
      </trkpt>
      <trkpt lat="47.75728" lon="0.45089">
        <ele>77</ele>
        <time>2019-08-03T13:19:12Z</time>
      </trkpt>
      <trkpt lat="47.75753" lon="0.45069">
        <ele>76</ele>
        <time>2019-08-03T13:19:35Z</time>
      </trkpt>
      <trkpt lat="47.75769" lon="0.45056">
        <ele>75</ele>
        <time>2019-08-03T13:19:48Z</time>
      </trkpt>
      <trkpt lat="47.75779" lon="0.45048">
        <ele>76</ele>
        <time>2019-08-03T13:19:57Z</time>
      </trkpt>
      <trkpt lat="47.75782" lon="0.45045">
        <ele>76</ele>
        <time>2019-08-03T13:20:00Z</time>
      </trkpt>
      <trkpt lat="47.75784" lon="0.45043">
        <ele>77</ele>
        <time>2019-08-03T13:20:02Z</time>
      </trkpt>
      <trkpt lat="47.75787" lon="0.45039">
        <ele>77</ele>
        <time>2019-08-03T13:20:05Z</time>
      </trkpt>
      <trkpt lat="47.75788" lon="0.45033">
        <ele>76</ele>
        <time>2019-08-03T13:20:08Z</time>
      </trkpt>
      <trkpt lat="47.75787" lon="0.45028">
        <ele>76</ele>
        <time>2019-08-03T13:20:11Z</time>
      </trkpt>
      <trkpt lat="47.75785" lon="0.45025">
        <ele>76</ele>
        <time>2019-08-03T13:20:14Z</time>
      </trkpt>
      <trkpt lat="47.75763" lon="0.44995">
        <ele>78</ele>
        <time>2019-08-03T13:20:40Z</time>
      </trkpt>
      <trkpt lat="47.75759" lon="0.44991">
        <ele>78</ele>
        <time>2019-08-03T13:20:43Z</time>
      </trkpt>
      <trkpt lat="47.7574" lon="0.44974">
        <ele>83</ele>
        <time>2019-08-03T13:21:01Z</time>
      </trkpt>
      <trkpt lat="47.75737" lon="0.4497">
        <ele>83</ele>
        <time>2019-08-03T13:21:04Z</time>
      </trkpt>
      <trkpt lat="47.75735" lon="0.44966">
        <ele>84</ele>
        <time>2019-08-03T13:21:07Z</time>
      </trkpt>
      <trkpt lat="47.75731" lon="0.44958">
        <ele>82</ele>
        <time>2019-08-03T13:21:12Z</time>
      </trkpt>
      <trkpt lat="47.7573" lon="0.44954">
        <ele>81</ele>
        <time>2019-08-03T13:21:16Z</time>
      </trkpt>
      <trkpt lat="47.75731" lon="0.44949">
        <ele>81</ele>
        <time>2019-08-03T13:21:19Z</time>
      </trkpt>
      <trkpt lat="47.75734" lon="0.44947">
        <ele>80</ele>
        <time>2019-08-03T13:21:22Z</time>
      </trkpt>
      <trkpt lat="47.75737" lon="0.44946">
        <ele>80</ele>
        <time>2019-08-03T13:21:24Z</time>
      </trkpt>
      <trkpt lat="47.7576" lon="0.44942">
        <ele>80</ele>
        <time>2019-08-03T13:21:46Z</time>
      </trkpt>
      <trkpt lat="47.75764" lon="0.4494">
        <ele>80</ele>
        <time>2019-08-03T13:21:49Z</time>
      </trkpt>
      <trkpt lat="47.75796" lon="0.44932">
        <ele>78</ele>
        <time>2019-08-03T13:22:16Z</time>
      </trkpt>
      <trkpt lat="47.75805" lon="0.44926">
        <ele>76</ele>
        <time>2019-08-03T13:22:22Z</time>
      </trkpt>
      <trkpt lat="47.75808" lon="0.44922">
        <ele>77</ele>
        <time>2019-08-03T13:22:25Z</time>
      </trkpt>
      <trkpt lat="47.75808" lon="0.44916">
        <ele>77</ele>
        <time>2019-08-03T13:22:28Z</time>
      </trkpt>
      <trkpt lat="47.75799" lon="0.44861">
        <ele>82</ele>
        <time>2019-08-03T13:23:00Z</time>
      </trkpt>
      <trkpt lat="47.75798" lon="0.44857">
        <ele>84</ele>
        <time>2019-08-03T13:23:03Z</time>
      </trkpt>
      <trkpt lat="47.75799" lon="0.44852">
        <ele>84</ele>
        <time>2019-08-03T13:23:07Z</time>
      </trkpt>
      <trkpt lat="47.75799" lon="0.44842">
        <ele>82</ele>
        <time>2019-08-03T13:23:13Z</time>
      </trkpt>
      <trkpt lat="47.75795" lon="0.44824">
        <ele>81</ele>
        <time>2019-08-03T13:23:25Z</time>
      </trkpt>
      <trkpt lat="47.75794" lon="0.4482">
        <ele>82</ele>
        <time>2019-08-03T13:23:28Z</time>
      </trkpt>
      <trkpt lat="47.75789" lon="0.448">
        <ele>86</ele>
        <time>2019-08-03T13:23:41Z</time>
      </trkpt>
      <trkpt lat="47.75788" lon="0.44794">
        <ele>87</ele>
        <time>2019-08-03T13:23:44Z</time>
      </trkpt>
      <trkpt lat="47.75788" lon="0.44789">
        <ele>86</ele>
        <time>2019-08-03T13:23:48Z</time>
      </trkpt>
      <trkpt lat="47.75791" lon="0.4476">
        <ele>86</ele>
        <time>2019-08-03T13:24:06Z</time>
      </trkpt>
      <trkpt lat="47.75792" lon="0.44755">
        <ele>87</ele>
        <time>2019-08-03T13:24:10Z</time>
      </trkpt>
      <trkpt lat="47.75793" lon="0.44744">
        <ele>91</ele>
        <time>2019-08-03T13:24:18Z</time>
      </trkpt>
      <trkpt lat="47.75795" lon="0.44739">
        <ele>92</ele>
        <time>2019-08-03T13:24:22Z</time>
      </trkpt>
      <trkpt lat="47.75797" lon="0.44729">
        <ele>96</ele>
        <time>2019-08-03T13:24:29Z</time>
      </trkpt>
      <trkpt lat="47.75799" lon="0.4472">
        <ele>98</ele>
        <time>2019-08-03T13:24:34Z</time>
      </trkpt>
      <trkpt lat="47.75809" lon="0.447">
        <ele>97</ele>
        <time>2019-08-03T13:24:49Z</time>
      </trkpt>
      <trkpt lat="47.7581" lon="0.44696">
        <ele>96</ele>
        <time>2019-08-03T13:24:52Z</time>
      </trkpt>
      <trkpt lat="47.75823" lon="0.44663">
        <ele>98</ele>
        <time>2019-08-03T13:25:23Z</time>
      </trkpt>
      <trkpt lat="47.75826" lon="0.4466">
        <ele>96</ele>
        <time>2019-08-03T13:25:25Z</time>
      </trkpt>
      <trkpt lat="47.7583" lon="0.44652">
        <ele>97</ele>
        <time>2019-08-03T13:25:31Z</time>
      </trkpt>
      <trkpt lat="47.75835" lon="0.44638">
        <ele>97</ele>
        <time>2019-08-03T13:25:41Z</time>
      </trkpt>
      <trkpt lat="47.75838" lon="0.44634">
        <ele>97</ele>
        <time>2019-08-03T13:25:44Z</time>
      </trkpt>
      <trkpt lat="47.75842" lon="0.4462">
        <ele>100</ele>
        <time>2019-08-03T13:25:54Z</time>
      </trkpt>
      <trkpt lat="47.75844" lon="0.44616">
        <ele>102</ele>
        <time>2019-08-03T13:26:01Z</time>
      </trkpt>
      <trkpt lat="47.75848" lon="0.44607">
        <ele>102</ele>
        <time>2019-08-03T13:26:06Z</time>
      </trkpt>
      <trkpt lat="47.75851" lon="0.44599">
        <ele>105</ele>
        <time>2019-08-03T13:26:13Z</time>
      </trkpt>
      <trkpt lat="47.75859" lon="0.44589">
        <ele>107</ele>
        <time>2019-08-03T13:26:22Z</time>
      </trkpt>
      <trkpt lat="47.75866" lon="0.44577">
        <ele>109</ele>
        <time>2019-08-03T13:26:32Z</time>
      </trkpt>
      <trkpt lat="47.75868" lon="0.44573">
        <ele>110</ele>
        <time>2019-08-03T13:26:37Z</time>
      </trkpt>
      <trkpt lat="47.7587" lon="0.44569">
        <ele>110</ele>
        <time>2019-08-03T13:26:40Z</time>
      </trkpt>
      <trkpt lat="47.75872" lon="0.44565">
        <ele>108</ele>
        <time>2019-08-03T13:26:45Z</time>
      </trkpt>
      <trkpt lat="47.75874" lon="0.44561">
        <ele>107</ele>
        <time>2019-08-03T13:26:49Z</time>
      </trkpt>
      <trkpt lat="47.75876" lon="0.44557">
        <ele>106</ele>
        <time>2019-08-03T13:26:51Z</time>
      </trkpt>
      <trkpt lat="47.75882" lon="0.44552">
        <ele>107</ele>
        <time>2019-08-03T13:26:56Z</time>
      </trkpt>
      <trkpt lat="47.75885" lon="0.44548">
        <ele>109</ele>
        <time>2019-08-03T13:27:00Z</time>
      </trkpt>
      <trkpt lat="47.7589" lon="0.44541">
        <ele>111</ele>
        <time>2019-08-03T13:27:07Z</time>
      </trkpt>
      <trkpt lat="47.75896" lon="0.44538">
        <ele>110</ele>
        <time>2019-08-03T13:27:11Z</time>
      </trkpt>
      <trkpt lat="47.75911" lon="0.4452">
        <ele>108</ele>
        <time>2019-08-03T13:27:25Z</time>
      </trkpt>
      <trkpt lat="47.75911" lon="0.44514">
        <ele>108</ele>
        <time>2019-08-03T13:27:28Z</time>
      </trkpt>
      <trkpt lat="47.75911" lon="0.44499">
        <ele>109</ele>
        <time>2019-08-03T13:27:37Z</time>
      </trkpt>
      <trkpt lat="47.75912" lon="0.44494">
        <ele>109</ele>
        <time>2019-08-03T13:27:41Z</time>
      </trkpt>
      <trkpt lat="47.75917" lon="0.44485">
        <ele>115</ele>
        <time>2019-08-03T13:27:51Z</time>
      </trkpt>
      <trkpt lat="47.75925" lon="0.44477">
        <ele>115</ele>
        <time>2019-08-03T13:28:00Z</time>
      </trkpt>
      <trkpt lat="47.75933" lon="0.44476">
        <ele>115</ele>
        <time>2019-08-03T13:28:06Z</time>
      </trkpt>
      <trkpt lat="47.75935" lon="0.44473">
        <ele>117</ele>
        <time>2019-08-03T13:28:08Z</time>
      </trkpt>
      <trkpt lat="47.75942" lon="0.44473">
        <ele>117</ele>
        <time>2019-08-03T13:28:13Z</time>
      </trkpt>
      <trkpt lat="47.75948" lon="0.44472">
        <ele>118</ele>
        <time>2019-08-03T13:28:19Z</time>
      </trkpt>
      <trkpt lat="47.75952" lon="0.4447">
        <ele>118</ele>
        <time>2019-08-03T13:28:22Z</time>
      </trkpt>
      <trkpt lat="47.75958" lon="0.4447">
        <ele>118</ele>
        <time>2019-08-03T13:28:27Z</time>
      </trkpt>
      <trkpt lat="47.75961" lon="0.4447">
        <ele>117</ele>
        <time>2019-08-03T13:28:30Z</time>
      </trkpt>
      <trkpt lat="47.75971" lon="0.44468">
        <ele>117</ele>
        <time>2019-08-03T13:28:37Z</time>
      </trkpt>
      <trkpt lat="47.75978" lon="0.44469">
        <ele>117</ele>
        <time>2019-08-03T13:28:42Z</time>
      </trkpt>
      <trkpt lat="47.76015" lon="0.44459">
        <ele>119</ele>
        <time>2019-08-03T13:29:13Z</time>
      </trkpt>
      <trkpt lat="47.76018" lon="0.44459">
        <ele>119</ele>
        <time>2019-08-03T13:29:16Z</time>
      </trkpt>
      <trkpt lat="47.76025" lon="0.44455">
        <ele>120</ele>
        <time>2019-08-03T13:29:22Z</time>
      </trkpt>
      <trkpt lat="47.76056" lon="0.44447">
        <ele>120</ele>
        <time>2019-08-03T13:29:46Z</time>
      </trkpt>
      <trkpt lat="47.76072" lon="0.44435">
        <ele>123</ele>
        <time>2019-08-03T13:29:59Z</time>
      </trkpt>
      <trkpt lat="47.76077" lon="0.44429">
        <ele>123</ele>
        <time>2019-08-03T13:30:05Z</time>
      </trkpt>
      <trkpt lat="47.76081" lon="0.44425">
        <ele>123</ele>
        <time>2019-08-03T13:30:08Z</time>
      </trkpt>
      <trkpt lat="47.76084" lon="0.44422">
        <ele>122</ele>
        <time>2019-08-03T13:30:11Z</time>
      </trkpt>
      <trkpt lat="47.76096" lon="0.44404">
        <ele>122</ele>
        <time>2019-08-03T13:30:26Z</time>
      </trkpt>
      <trkpt lat="47.76101" lon="0.44399">
        <ele>122</ele>
        <time>2019-08-03T13:30:32Z</time>
      </trkpt>
      <trkpt lat="47.76106" lon="0.44393">
        <ele>122</ele>
        <time>2019-08-03T13:30:37Z</time>
      </trkpt>
      <trkpt lat="47.76112" lon="0.44387">
        <ele>122</ele>
        <time>2019-08-03T13:30:43Z</time>
      </trkpt>
      <trkpt lat="47.76114" lon="0.44382">
        <ele>123</ele>
        <time>2019-08-03T13:30:46Z</time>
      </trkpt>
      <trkpt lat="47.76121" lon="0.44372">
        <ele>124</ele>
        <time>2019-08-03T13:30:53Z</time>
      </trkpt>
      <trkpt lat="47.76139" lon="0.44363">
        <ele>126</ele>
        <time>2019-08-03T13:31:08Z</time>
      </trkpt>
      <trkpt lat="47.76158" lon="0.44365">
        <ele>122</ele>
        <time>2019-08-03T13:31:22Z</time>
      </trkpt>
      <trkpt lat="47.76161" lon="0.44364">
        <ele>121</ele>
        <time>2019-08-03T13:31:24Z</time>
      </trkpt>
      <trkpt lat="47.76164" lon="0.44364">
        <ele>121</ele>
        <time>2019-08-03T13:31:26Z</time>
      </trkpt>
      <trkpt lat="47.76183" lon="0.44361">
        <ele>118</ele>
        <time>2019-08-03T13:31:41Z</time>
      </trkpt>
      <trkpt lat="47.76189" lon="0.4436">
        <ele>117</ele>
        <time>2019-08-03T13:31:46Z</time>
      </trkpt>
      <trkpt lat="47.762" lon="0.44352">
        <ele>119</ele>
        <time>2019-08-03T13:31:55Z</time>
      </trkpt>
      <trkpt lat="47.76203" lon="0.4435">
        <ele>119</ele>
        <time>2019-08-03T13:31:58Z</time>
      </trkpt>
      <trkpt lat="47.76226" lon="0.44338">
        <ele>118</ele>
        <time>2019-08-03T13:32:18Z</time>
      </trkpt>
      <trkpt lat="47.7623" lon="0.44335">
        <ele>115</ele>
        <time>2019-08-03T13:32:23Z</time>
      </trkpt>
      <trkpt lat="47.76234" lon="0.44327">
        <ele>115</ele>
        <time>2019-08-03T13:32:28Z</time>
      </trkpt>
      <trkpt lat="47.76237" lon="0.44329">
        <ele>115</ele>
        <time>2019-08-03T13:32:32Z</time>
      </trkpt>
      <trkpt lat="47.76239" lon="0.44332">
        <ele>116</ele>
        <time>2019-08-03T13:32:41Z</time>
      </trkpt>
      <trkpt lat="47.76242" lon="0.44334">
        <ele>117</ele>
        <time>2019-08-03T13:33:08Z</time>
      </trkpt>
      <trkpt lat="47.76249" lon="0.44345">
        <ele>115</ele>
        <time>2019-08-03T13:33:18Z</time>
      </trkpt>
      <trkpt lat="47.76259" lon="0.44363">
        <ele>114</ele>
        <time>2019-08-03T13:33:30Z</time>
      </trkpt>
      <trkpt lat="47.76261" lon="0.44367">
        <ele>112</ele>
        <time>2019-08-03T13:33:33Z</time>
      </trkpt>
      <trkpt lat="47.76269" lon="0.44376">
        <ele>110</ele>
        <time>2019-08-03T13:33:42Z</time>
      </trkpt>
      <trkpt lat="47.76271" lon="0.44381">
        <ele>109</ele>
        <time>2019-08-03T13:33:45Z</time>
      </trkpt>
      <trkpt lat="47.76274" lon="0.44385">
        <ele>110</ele>
        <time>2019-08-03T13:33:48Z</time>
      </trkpt>
      <trkpt lat="47.76277" lon="0.44389">
        <ele>110</ele>
        <time>2019-08-03T13:33:51Z</time>
      </trkpt>
      <trkpt lat="47.76281" lon="0.44396">
        <ele>109</ele>
        <time>2019-08-03T13:33:57Z</time>
      </trkpt>
      <trkpt lat="47.76282" lon="0.44401">
        <ele>110</ele>
        <time>2019-08-03T13:34:00Z</time>
      </trkpt>
      <trkpt lat="47.76283" lon="0.44405">
        <ele>110</ele>
        <time>2019-08-03T13:34:03Z</time>
      </trkpt>
      <trkpt lat="47.76286" lon="0.44416">
        <ele>110</ele>
        <time>2019-08-03T13:34:09Z</time>
      </trkpt>
      <trkpt lat="47.76293" lon="0.4444">
        <ele>109</ele>
        <time>2019-08-03T13:34:20Z</time>
      </trkpt>
      <trkpt lat="47.76297" lon="0.44448">
        <ele>106</ele>
        <time>2019-08-03T13:34:27Z</time>
      </trkpt>
      <trkpt lat="47.76298" lon="0.44453">
        <ele>106</ele>
        <time>2019-08-03T13:34:31Z</time>
      </trkpt>
      <trkpt lat="47.76301" lon="0.44456">
        <ele>105</ele>
        <time>2019-08-03T13:34:34Z</time>
      </trkpt>
      <trkpt lat="47.76314" lon="0.44487">
        <ele>100</ele>
        <time>2019-08-03T13:34:57Z</time>
      </trkpt>
      <trkpt lat="47.76314" lon="0.44501">
        <ele>99</ele>
        <time>2019-08-03T13:35:09Z</time>
      </trkpt>
      <trkpt lat="47.76326" lon="0.44521">
        <ele>95</ele>
        <time>2019-08-03T13:35:24Z</time>
      </trkpt>
      <trkpt lat="47.76336" lon="0.44542">
        <ele>91</ele>
        <time>2019-08-03T13:35:38Z</time>
      </trkpt>
      <trkpt lat="47.76337" lon="0.44546">
        <ele>90</ele>
        <time>2019-08-03T13:35:41Z</time>
      </trkpt>
      <trkpt lat="47.76339" lon="0.44549">
        <ele>87</ele>
        <time>2019-08-03T13:35:44Z</time>
      </trkpt>
      <trkpt lat="47.76342" lon="0.44554">
        <ele>85</ele>
        <time>2019-08-03T13:35:48Z</time>
      </trkpt>
      <trkpt lat="47.76354" lon="0.44573">
        <ele>79</ele>
        <time>2019-08-03T13:36:04Z</time>
      </trkpt>
      <trkpt lat="47.76358" lon="0.4458">
        <ele>78</ele>
        <time>2019-08-03T13:36:09Z</time>
      </trkpt>
      <trkpt lat="47.76359" lon="0.44584">
        <ele>78</ele>
        <time>2019-08-03T13:36:11Z</time>
      </trkpt>
      <trkpt lat="47.76361" lon="0.44588">
        <ele>78</ele>
        <time>2019-08-03T13:36:13Z</time>
      </trkpt>
      <trkpt lat="47.76372" lon="0.44602">
        <ele>75</ele>
        <time>2019-08-03T13:36:26Z</time>
      </trkpt>
      <trkpt lat="47.76378" lon="0.44607">
        <ele>77</ele>
        <time>2019-08-03T13:36:31Z</time>
      </trkpt>
      <trkpt lat="47.76381" lon="0.44605">
        <ele>77</ele>
        <time>2019-08-03T13:36:34Z</time>
      </trkpt>
      <trkpt lat="47.76411" lon="0.44566">
        <ele>76</ele>
        <time>2019-08-03T13:37:04Z</time>
      </trkpt>
      <trkpt lat="47.76422" lon="0.44552">
        <ele>77</ele>
        <time>2019-08-03T13:37:16Z</time>
      </trkpt>
      <trkpt lat="47.76423" lon="0.44548">
        <ele>77</ele>
        <time>2019-08-03T13:37:19Z</time>
      </trkpt>
      <trkpt lat="47.76432" lon="0.44533">
        <ele>76</ele>
        <time>2019-08-03T13:37:31Z</time>
      </trkpt>
      <trkpt lat="47.76457" lon="0.44491">
        <ele>76</ele>
        <time>2019-08-03T13:38:01Z</time>
      </trkpt>
      <trkpt lat="47.76468" lon="0.44471">
        <ele>77</ele>
        <time>2019-08-03T13:38:14Z</time>
      </trkpt>
      <trkpt lat="47.76481" lon="0.4446">
        <ele>78</ele>
        <time>2019-08-03T13:38:26Z</time>
      </trkpt>
      <trkpt lat="47.76483" lon="0.44458">
        <ele>79</ele>
        <time>2019-08-03T13:38:29Z</time>
      </trkpt>
      <trkpt lat="47.76485" lon="0.44454">
        <ele>79</ele>
        <time>2019-08-03T13:38:38Z</time>
      </trkpt>
      <trkpt lat="47.76494" lon="0.4445">
        <ele>80</ele>
        <time>2019-08-03T13:38:44Z</time>
      </trkpt>
      <trkpt lat="47.76496" lon="0.44448">
        <ele>80</ele>
        <time>2019-08-03T13:38:46Z</time>
      </trkpt>
      <trkpt lat="47.76502" lon="0.44443">
        <ele>80</ele>
        <time>2019-08-03T13:38:50Z</time>
      </trkpt>
      <trkpt lat="47.76504" lon="0.4444">
        <ele>80</ele>
        <time>2019-08-03T13:38:52Z</time>
      </trkpt>
      <trkpt lat="47.76522" lon="0.4442">
        <ele>82</ele>
        <time>2019-08-03T13:39:08Z</time>
      </trkpt>
      <trkpt lat="47.76526" lon="0.44414">
        <ele>81</ele>
        <time>2019-08-03T13:39:14Z</time>
      </trkpt>
      <trkpt lat="47.7653" lon="0.4441">
        <ele>81</ele>
        <time>2019-08-03T13:39:17Z</time>
      </trkpt>
      <trkpt lat="47.76539" lon="0.44392">
        <ele>83</ele>
        <time>2019-08-03T13:39:28Z</time>
      </trkpt>
      <trkpt lat="47.76547" lon="0.44384">
        <ele>84</ele>
        <time>2019-08-03T13:39:37Z</time>
      </trkpt>
      <trkpt lat="47.76561" lon="0.44361">
        <ele>85</ele>
        <time>2019-08-03T13:39:53Z</time>
      </trkpt>
      <trkpt lat="47.76573" lon="0.44348">
        <ele>82</ele>
        <time>2019-08-03T13:40:03Z</time>
      </trkpt>
      <trkpt lat="47.76578" lon="0.44341">
        <ele>83</ele>
        <time>2019-08-03T13:40:07Z</time>
      </trkpt>
      <trkpt lat="47.7658" lon="0.44336">
        <ele>84</ele>
        <time>2019-08-03T13:40:11Z</time>
      </trkpt>
      <trkpt lat="47.76571" lon="0.44303">
        <ele>82</ele>
        <time>2019-08-03T13:40:32Z</time>
      </trkpt>
      <trkpt lat="47.7657" lon="0.44299">
        <ele>83</ele>
        <time>2019-08-03T13:40:35Z</time>
      </trkpt>
      <trkpt lat="47.76568" lon="0.44295">
        <ele>83</ele>
        <time>2019-08-03T13:40:39Z</time>
      </trkpt>
      <trkpt lat="47.76558" lon="0.44251">
        <ele>87</ele>
        <time>2019-08-03T13:41:10Z</time>
      </trkpt>
      <trkpt lat="47.76551" lon="0.44217">
        <ele>91</ele>
        <time>2019-08-03T13:41:32Z</time>
      </trkpt>
      <trkpt lat="47.76549" lon="0.44213">
        <ele>91</ele>
        <time>2019-08-03T13:41:35Z</time>
      </trkpt>
      <trkpt lat="47.76546" lon="0.44193">
        <ele>95</ele>
        <time>2019-08-03T13:41:49Z</time>
      </trkpt>
      <trkpt lat="47.7654" lon="0.44174">
        <ele>96</ele>
        <time>2019-08-03T13:42:04Z</time>
      </trkpt>
      <trkpt lat="47.76537" lon="0.44164">
        <ele>98</ele>
        <time>2019-08-03T13:42:12Z</time>
      </trkpt>
      <trkpt lat="47.76537" lon="0.44157">
        <ele>97</ele>
        <time>2019-08-03T13:42:18Z</time>
      </trkpt>
      <trkpt lat="47.76526" lon="0.44109">
        <ele>103</ele>
        <time>2019-08-03T13:42:50Z</time>
      </trkpt>
      <trkpt lat="47.76526" lon="0.44103">
        <ele>102</ele>
        <time>2019-08-03T13:42:53Z</time>
      </trkpt>
      <trkpt lat="47.76525" lon="0.44099">
        <ele>102</ele>
        <time>2019-08-03T13:42:56Z</time>
      </trkpt>
      <trkpt lat="47.76525" lon="0.44085">
        <ele>103</ele>
        <time>2019-08-03T13:43:05Z</time>
      </trkpt>
      <trkpt lat="47.76528" lon="0.44057">
        <ele>111</ele>
        <time>2019-08-03T13:43:24Z</time>
      </trkpt>
      <trkpt lat="47.76529" lon="0.44047">
        <ele>111</ele>
        <time>2019-08-03T13:43:29Z</time>
      </trkpt>
      <trkpt lat="47.76529" lon="0.44042">
        <ele>110</ele>
        <time>2019-08-03T13:43:32Z</time>
      </trkpt>
      <trkpt lat="47.76529" lon="0.44037">
        <ele>110</ele>
        <time>2019-08-03T13:43:35Z</time>
      </trkpt>
      <trkpt lat="47.76531" lon="0.44034">
        <ele>111</ele>
        <time>2019-08-03T13:43:38Z</time>
      </trkpt>
      <trkpt lat="47.76535" lon="0.44032">
        <ele>111</ele>
        <time>2019-08-03T13:43:41Z</time>
      </trkpt>
      <trkpt lat="47.76546" lon="0.43967">
        <ele>119.4</ele>
      </trkpt>
      <trkpt lat="47.76555" lon="0.43931">
        <ele>121.5</ele>
      </trkpt>
      <trkpt lat="47.76561" lon="0.43891">
        <ele>122.7</ele>
      </trkpt>
      <trkpt lat="47.76558" lon="0.43865">
        <ele>123.8</ele>
      </trkpt>
      <trkpt lat="47.76515" lon="0.4379">
        <ele>128.1</ele>
      </trkpt>
      <trkpt lat="47.7647" lon="0.43724">
        <ele>132.2</ele>
      </trkpt>
      <trkpt lat="47.76379" lon="0.43671">
        <ele>136.4</ele>
      </trkpt>
      <trkpt lat="47.76345" lon="0.43652">
        <ele>137</ele>
      </trkpt>
      <trkpt lat="47.76303" lon="0.43621">
        <ele>138</ele>
      </trkpt>
      <trkpt lat="47.76263" lon="0.43591">
        <ele>134</ele>
        <time>2019-08-03T13:54:49Z</time>
      </trkpt>
      <trkpt lat="47.76263" lon="0.43591">
        <ele>134</ele>
        <time>2019-08-03T13:54:50Z</time>
      </trkpt>
      <trkpt lat="47.76261" lon="0.43586">
        <ele>133</ele>
        <time>2019-08-03T13:56:06Z</time>
      </trkpt>
      <trkpt lat="47.76257" lon="0.43585">
        <ele>132</ele>
        <time>2019-08-03T13:56:09Z</time>
      </trkpt>
      <trkpt lat="47.76254" lon="0.43583">
        <ele>131</ele>
        <time>2019-08-03T13:56:12Z</time>
      </trkpt>
      <trkpt lat="47.76252" lon="0.4358">
        <ele>131</ele>
        <time>2019-08-03T13:56:15Z</time>
      </trkpt>
      <trkpt lat="47.76242" lon="0.43574">
        <ele>131</ele>
        <time>2019-08-03T13:56:24Z</time>
      </trkpt>
      <trkpt lat="47.7624" lon="0.4357">
        <ele>131</ele>
        <time>2019-08-03T13:56:28Z</time>
      </trkpt>
      <trkpt lat="47.76206" lon="0.43537">
        <ele>133</ele>
        <time>2019-08-03T13:56:58Z</time>
      </trkpt>
      <trkpt lat="47.7617" lon="0.43505">
        <ele>131</ele>
        <time>2019-08-03T13:57:30Z</time>
      </trkpt>
      <trkpt lat="47.76139" lon="0.43479">
        <ele>129</ele>
        <time>2019-08-03T13:58:00Z</time>
      </trkpt>
      <trkpt lat="47.76132" lon="0.43475">
        <ele>130</ele>
        <time>2019-08-03T13:58:06Z</time>
      </trkpt>
      <trkpt lat="47.76128" lon="0.43473">
        <ele>131</ele>
        <time>2019-08-03T13:58:08Z</time>
      </trkpt>
      <trkpt lat="47.76115" lon="0.43459">
        <ele>132</ele>
        <time>2019-08-03T13:58:19Z</time>
      </trkpt>
      <trkpt lat="47.76111" lon="0.43457">
        <ele>132</ele>
        <time>2019-08-03T13:58:22Z</time>
      </trkpt>
      <trkpt lat="47.76105" lon="0.43453">
        <ele>131</ele>
        <time>2019-08-03T13:58:28Z</time>
      </trkpt>
      <trkpt lat="47.76102" lon="0.43451">
        <ele>131</ele>
        <time>2019-08-03T13:58:31Z</time>
      </trkpt>
      <trkpt lat="47.76096" lon="0.43444">
        <ele>134</ele>
        <time>2019-08-03T13:58:36Z</time>
      </trkpt>
      <trkpt lat="47.76094" lon="0.4344">
        <ele>133</ele>
        <time>2019-08-03T13:58:39Z</time>
      </trkpt>
      <trkpt lat="47.76086" lon="0.43425">
        <ele>134</ele>
        <time>2019-08-03T13:58:53Z</time>
      </trkpt>
      <trkpt lat="47.76021" lon="0.43332">
        <ele>126.9</ele>
      </trkpt>
      <trkpt lat="47.75973" lon="0.43359">
        <ele>127.9</ele>
      </trkpt>
      <trkpt lat="47.75933" lon="0.43362">
        <ele>127.6</ele>
      </trkpt>
      <trkpt lat="47.75923" lon="0.43356">
        <ele>127</ele>
      </trkpt>
      <trkpt lat="47.75915" lon="0.43349">
        <ele>126.5</ele>
      </trkpt>
      <trkpt lat="47.75913" lon="0.43346">
        <ele>100</ele>
        <time>2019-08-03T14:03:28Z</time>
      </trkpt>
      <trkpt lat="47.7591" lon="0.43343">
        <ele>111</ele>
        <time>2019-08-03T14:03:35Z</time>
      </trkpt>
      <trkpt lat="47.75905" lon="0.43339">
        <ele>115</ele>
        <time>2019-08-03T14:03:41Z</time>
      </trkpt>
      <trkpt lat="47.75902" lon="0.43335">
        <ele>117</ele>
        <time>2019-08-03T14:03:43Z</time>
      </trkpt>
      <trkpt lat="47.75894" lon="0.43325">
        <ele>120</ele>
        <time>2019-08-03T14:03:51Z</time>
      </trkpt>
      <trkpt lat="47.75891" lon="0.43322">
        <ele>120</ele>
        <time>2019-08-03T14:03:53Z</time>
      </trkpt>
      <trkpt lat="47.75885" lon="0.43315">
        <ele>121</ele>
        <time>2019-08-03T14:04:02Z</time>
      </trkpt>
      <trkpt lat="47.75881" lon="0.43313">
        <ele>120</ele>
        <time>2019-08-03T14:04:05Z</time>
      </trkpt>
      <trkpt lat="47.7587" lon="0.43309">
        <ele>120</ele>
        <time>2019-08-03T14:04:14Z</time>
      </trkpt>
      <trkpt lat="47.75867" lon="0.43308">
        <ele>119</ele>
        <time>2019-08-03T14:04:17Z</time>
      </trkpt>
      <trkpt lat="47.75863" lon="0.43306">
        <ele>118</ele>
        <time>2019-08-03T14:04:20Z</time>
      </trkpt>
      <trkpt lat="47.75857" lon="0.43305">
        <ele>117</ele>
        <time>2019-08-03T14:04:25Z</time>
      </trkpt>
      <trkpt lat="47.75854" lon="0.43304">
        <ele>117</ele>
        <time>2019-08-03T14:04:27Z</time>
      </trkpt>
      <trkpt lat="47.75851" lon="0.43303">
        <ele>117</ele>
        <time>2019-08-03T14:04:30Z</time>
      </trkpt>
      <trkpt lat="47.75848" lon="0.43302">
        <ele>117</ele>
        <time>2019-08-03T14:04:33Z</time>
      </trkpt>
      <trkpt lat="47.75846" lon="0.43302">
        <ele>118</ele>
        <time>2019-08-03T14:04:35Z</time>
      </trkpt>
      <trkpt lat="47.75845" lon="0.43299">
        <ele>116</ele>
        <time>2019-08-03T14:06:58Z</time>
      </trkpt>
      <trkpt lat="47.75846" lon="0.43295">
        <ele>117</ele>
        <time>2019-08-03T14:07:02Z</time>
      </trkpt>
      <trkpt lat="47.75846" lon="0.43291">
        <ele>117</ele>
        <time>2019-08-03T14:07:05Z</time>
      </trkpt>
      <trkpt lat="47.75844" lon="0.43287">
        <ele>117</ele>
        <time>2019-08-03T14:07:07Z</time>
      </trkpt>
      <trkpt lat="47.75842" lon="0.43282">
        <ele>117</ele>
        <time>2019-08-03T14:07:09Z</time>
      </trkpt>
      <trkpt lat="47.75843" lon="0.43264">
        <ele>114</ele>
        <time>2019-08-03T14:07:18Z</time>
      </trkpt>
      <trkpt lat="47.75849" lon="0.43245">
        <ele>112</ele>
        <time>2019-08-03T14:07:29Z</time>
      </trkpt>
      <trkpt lat="47.75851" lon="0.43241">
        <ele>112</ele>
        <time>2019-08-03T14:07:32Z</time>
      </trkpt>
      <trkpt lat="47.75868" lon="0.432">
        <ele>118</ele>
        <time>2019-08-03T14:08:02Z</time>
      </trkpt>
      <trkpt lat="47.7587" lon="0.43191">
        <ele>119</ele>
        <time>2019-08-03T14:08:09Z</time>
      </trkpt>
      <trkpt lat="47.7587" lon="0.43186">
        <ele>120</ele>
        <time>2019-08-03T14:08:13Z</time>
      </trkpt>
      <trkpt lat="47.75869" lon="0.43182">
        <ele>120</ele>
        <time>2019-08-03T14:08:16Z</time>
      </trkpt>
      <trkpt lat="47.75865" lon="0.43176">
        <ele>120</ele>
        <time>2019-08-03T14:08:23Z</time>
      </trkpt>
      <trkpt lat="47.75863" lon="0.43172">
        <ele>121</ele>
        <time>2019-08-03T14:08:27Z</time>
      </trkpt>
      <trkpt lat="47.7586" lon="0.43168">
        <ele>121</ele>
        <time>2019-08-03T14:08:31Z</time>
      </trkpt>
      <trkpt lat="47.75859" lon="0.43164">
        <ele>120</ele>
        <time>2019-08-03T14:08:38Z</time>
      </trkpt>
      <trkpt lat="47.75856" lon="0.43162">
        <ele>119</ele>
        <time>2019-08-03T14:08:47Z</time>
      </trkpt>
      <trkpt lat="47.75853" lon="0.4316">
        <ele>119</ele>
        <time>2019-08-03T14:09:00Z</time>
      </trkpt>
      <trkpt lat="47.75842" lon="0.43147">
        <ele>119</ele>
        <time>2019-08-03T14:09:13Z</time>
      </trkpt>
      <trkpt lat="47.75839" lon="0.43143">
        <ele>118</ele>
        <time>2019-08-03T14:09:16Z</time>
      </trkpt>
      <trkpt lat="47.75836" lon="0.43142">
        <ele>119</ele>
        <time>2019-08-03T14:09:19Z</time>
      </trkpt>
      <trkpt lat="47.75827" lon="0.43135">
        <ele>120</ele>
        <time>2019-08-03T14:09:28Z</time>
      </trkpt>
      <trkpt lat="47.75824" lon="0.43133">
        <ele>120</ele>
        <time>2019-08-03T14:09:31Z</time>
      </trkpt>
      <trkpt lat="47.75822" lon="0.4313">
        <ele>120</ele>
        <time>2019-08-03T14:09:34Z</time>
      </trkpt>
      <trkpt lat="47.75808" lon="0.43119">
        <ele>119</ele>
        <time>2019-08-03T14:09:49Z</time>
      </trkpt>
      <trkpt lat="47.75805" lon="0.43116">
        <ele>119</ele>
        <time>2019-08-03T14:09:52Z</time>
      </trkpt>
      <trkpt lat="47.75802" lon="0.43114">
        <ele>119</ele>
        <time>2019-08-03T14:09:55Z</time>
      </trkpt>
      <trkpt lat="47.75798" lon="0.43111">
        <ele>123</ele>
        <time>2019-08-03T14:11:38Z</time>
      </trkpt>
      <trkpt lat="47.75792" lon="0.43108">
        <ele>122</ele>
        <time>2019-08-03T14:11:53Z</time>
      </trkpt>
      <trkpt lat="47.75787" lon="0.43102">
        <ele>121</ele>
        <time>2019-08-03T14:11:59Z</time>
      </trkpt>
      <trkpt lat="47.75771" lon="0.43092">
        <ele>122</ele>
        <time>2019-08-03T14:12:13Z</time>
      </trkpt>
      <trkpt lat="47.75765" lon="0.43088">
        <ele>123</ele>
        <time>2019-08-03T14:12:22Z</time>
      </trkpt>
      <trkpt lat="47.75758" lon="0.43084">
        <ele>124</ele>
        <time>2019-08-03T14:12:29Z</time>
      </trkpt>
      <trkpt lat="47.75744" lon="0.4308">
        <ele>129</ele>
        <time>2019-08-03T14:12:41Z</time>
      </trkpt>
      <trkpt lat="47.75723" lon="0.43078">
        <ele>128</ele>
        <time>2019-08-03T14:12:59Z</time>
      </trkpt>
      <trkpt lat="47.7571" lon="0.43077">
        <ele>129</ele>
        <time>2019-08-03T14:13:13Z</time>
      </trkpt>
      <trkpt lat="47.75684" lon="0.43073">
        <ele>129</ele>
        <time>2019-08-03T14:13:34Z</time>
      </trkpt>
      <trkpt lat="47.75677" lon="0.43072">
        <ele>128</ele>
        <time>2019-08-03T14:13:40Z</time>
      </trkpt>
      <trkpt lat="47.7567" lon="0.43073">
        <ele>128</ele>
        <time>2019-08-03T14:13:46Z</time>
      </trkpt>
      <trkpt lat="47.75636" lon="0.43073">
        <ele>128</ele>
        <time>2019-08-03T14:14:17Z</time>
      </trkpt>
      <trkpt lat="47.75633" lon="0.43074">
        <ele>128</ele>
        <time>2019-08-03T14:14:19Z</time>
      </trkpt>
      <trkpt lat="47.75626" lon="0.43077">
        <ele>129</ele>
        <time>2019-08-03T14:14:25Z</time>
      </trkpt>
      <trkpt lat="47.75606" lon="0.43081">
        <ele>129</ele>
        <time>2019-08-03T14:14:40Z</time>
      </trkpt>
      <trkpt lat="47.75603" lon="0.43081">
        <ele>129</ele>
        <time>2019-08-03T14:14:46Z</time>
      </trkpt>
      <trkpt lat="47.75577" lon="0.43087">
        <ele>129</ele>
        <time>2019-08-03T14:15:08Z</time>
      </trkpt>
      <trkpt lat="47.75539" lon="0.43102">
        <ele>130</ele>
        <time>2019-08-03T14:15:38Z</time>
      </trkpt>
      <trkpt lat="47.75519" lon="0.43108">
        <ele>128</ele>
        <time>2019-08-03T14:15:58Z</time>
      </trkpt>
      <trkpt lat="47.75516" lon="0.43107">
        <ele>127</ele>
        <time>2019-08-03T14:16:01Z</time>
      </trkpt>
      <trkpt lat="47.7551" lon="0.431">
        <ele>128</ele>
        <time>2019-08-03T14:16:07Z</time>
      </trkpt>
      <trkpt lat="47.7549" lon="0.43077">
        <ele>130</ele>
        <time>2019-08-03T14:16:31Z</time>
      </trkpt>
      <trkpt lat="47.75488" lon="0.43074">
        <ele>130</ele>
        <time>2019-08-03T14:16:53Z</time>
      </trkpt>
      <trkpt lat="47.75418" lon="0.42994">
        <ele>174</ele>
        <time>2019-08-03T14:21:03Z</time>
      </trkpt>
      <trkpt lat="47.7536" lon="0.42886">
        <ele>153</ele>
        <time>2019-08-03T14:21:06Z</time>
      </trkpt>
      <trkpt lat="47.75345" lon="0.42896">
        <ele>130</ele>
        <time>2019-08-03T14:21:21Z</time>
      </trkpt>
      <trkpt lat="47.75339" lon="0.42904">
        <ele>129</ele>
        <time>2019-08-03T14:21:27Z</time>
      </trkpt>
      <trkpt lat="47.75333" lon="0.42909">
        <ele>129</ele>
        <time>2019-08-03T14:21:34Z</time>
      </trkpt>
      <trkpt lat="47.7532" lon="0.42918">
        <ele>129</ele>
        <time>2019-08-03T14:21:40Z</time>
      </trkpt>
      <trkpt lat="47.75313" lon="0.42928">
        <ele>128</ele>
        <time>2019-08-03T14:21:47Z</time>
      </trkpt>
      <trkpt lat="47.75308" lon="0.42932">
        <ele>128</ele>
        <time>2019-08-03T14:21:53Z</time>
      </trkpt>
      <trkpt lat="47.75304" lon="0.42938">
        <ele>129</ele>
        <time>2019-08-03T14:21:59Z</time>
      </trkpt>
      <trkpt lat="47.75301" lon="0.42939">
        <ele>131</ele>
        <time>2019-08-03T14:22:02Z</time>
      </trkpt>
      <trkpt lat="47.75292" lon="0.42946">
        <ele>129</ele>
        <time>2019-08-03T14:22:09Z</time>
      </trkpt>
      <trkpt lat="47.75285" lon="0.42951">
        <ele>129</ele>
        <time>2019-08-03T14:22:14Z</time>
      </trkpt>
      <trkpt lat="47.75276" lon="0.42959">
        <ele>128</ele>
        <time>2019-08-03T14:22:21Z</time>
      </trkpt>
      <trkpt lat="47.75266" lon="0.42969">
        <ele>129</ele>
        <time>2019-08-03T14:22:30Z</time>
      </trkpt>
      <trkpt lat="47.7526" lon="0.42971">
        <ele>129</ele>
        <time>2019-08-03T14:22:34Z</time>
      </trkpt>
      <trkpt lat="47.75256" lon="0.42972">
        <ele>129</ele>
        <time>2019-08-03T14:22:37Z</time>
      </trkpt>
      <trkpt lat="47.75252" lon="0.4297">
        <ele>128</ele>
        <time>2019-08-03T14:22:40Z</time>
      </trkpt>
      <trkpt lat="47.75248" lon="0.42968">
        <ele>128</ele>
        <time>2019-08-03T14:22:43Z</time>
      </trkpt>
      <trkpt lat="47.75224" lon="0.4294">
        <ele>128</ele>
        <time>2019-08-03T14:23:06Z</time>
      </trkpt>
      <trkpt lat="47.75219" lon="0.42936">
        <ele>128</ele>
        <time>2019-08-03T14:23:13Z</time>
      </trkpt>
      <trkpt lat="47.75213" lon="0.4293">
        <ele>127</ele>
        <time>2019-08-03T14:23:19Z</time>
      </trkpt>
      <trkpt lat="47.75205" lon="0.4292">
        <ele>127</ele>
        <time>2019-08-03T14:23:25Z</time>
      </trkpt>
      <trkpt lat="47.75182" lon="0.42901">
        <ele>125</ele>
        <time>2019-08-03T14:23:45Z</time>
      </trkpt>
      <trkpt lat="47.75172" lon="0.42899">
        <ele>125</ele>
        <time>2019-08-03T14:23:54Z</time>
      </trkpt>
      <trkpt lat="47.75169" lon="0.42898">
        <ele>124</ele>
        <time>2019-08-03T14:23:57Z</time>
      </trkpt>
      <trkpt lat="47.75159" lon="0.42893">
        <ele>123</ele>
        <time>2019-08-03T14:24:05Z</time>
      </trkpt>
      <trkpt lat="47.75156" lon="0.42892">
        <ele>123</ele>
        <time>2019-08-03T14:24:07Z</time>
      </trkpt>
      <trkpt lat="47.75153" lon="0.42889">
        <ele>122</ele>
        <time>2019-08-03T14:24:19Z</time>
      </trkpt>
      <trkpt lat="47.75149" lon="0.42886">
        <ele>123</ele>
        <time>2019-08-03T14:24:22Z</time>
      </trkpt>
      <trkpt lat="47.75132" lon="0.42865">
        <ele>119</ele>
        <time>2019-08-03T14:24:40Z</time>
      </trkpt>
      <trkpt lat="47.75129" lon="0.42862">
        <ele>119</ele>
        <time>2019-08-03T14:24:42Z</time>
      </trkpt>
      <trkpt lat="47.75126" lon="0.42858">
        <ele>119</ele>
        <time>2019-08-03T14:24:45Z</time>
      </trkpt>
      <trkpt lat="47.75121" lon="0.42849">
        <ele>118</ele>
        <time>2019-08-03T14:24:51Z</time>
      </trkpt>
      <trkpt lat="47.75115" lon="0.42842">
        <ele>116</ele>
        <time>2019-08-03T14:24:55Z</time>
      </trkpt>
      <trkpt lat="47.7511" lon="0.42829">
        <ele>114</ele>
        <time>2019-08-03T14:25:02Z</time>
      </trkpt>
      <trkpt lat="47.75093" lon="0.42806">
        <ele>114</ele>
        <time>2019-08-03T14:25:20Z</time>
      </trkpt>
      <trkpt lat="47.7509" lon="0.42797">
        <ele>113</ele>
        <time>2019-08-03T14:25:24Z</time>
      </trkpt>
      <trkpt lat="47.75088" lon="0.42788">
        <ele>113</ele>
        <time>2019-08-03T14:25:28Z</time>
      </trkpt>
      <trkpt lat="47.75085" lon="0.4278">
        <ele>114</ele>
        <time>2019-08-03T14:25:32Z</time>
      </trkpt>
      <trkpt lat="47.75078" lon="0.42757">
        <ele>117</ele>
        <time>2019-08-03T14:25:44Z</time>
      </trkpt>
      <trkpt lat="47.75076" lon="0.42746">
        <ele>117</ele>
        <time>2019-08-03T14:25:50Z</time>
      </trkpt>
      <trkpt lat="47.75078" lon="0.42697">
        <ele>114</ele>
        <time>2019-08-03T14:26:14Z</time>
      </trkpt>
      <trkpt lat="47.75083" lon="0.42664">
        <ele>112</ele>
        <time>2019-08-03T14:26:32Z</time>
      </trkpt>
      <trkpt lat="47.75084" lon="0.42636">
        <ele>109</ele>
        <time>2019-08-03T14:26:47Z</time>
      </trkpt>
      <trkpt lat="47.75085" lon="0.4263">
        <ele>108</ele>
        <time>2019-08-03T14:26:50Z</time>
      </trkpt>
      <trkpt lat="47.75086" lon="0.42625">
        <ele>109</ele>
        <time>2019-08-03T14:26:53Z</time>
      </trkpt>
      <trkpt lat="47.75082" lon="0.42615">
        <ele>108</ele>
        <time>2019-08-03T14:26:59Z</time>
      </trkpt>
      <trkpt lat="47.75082" lon="0.42605">
        <ele>109</ele>
        <time>2019-08-03T14:27:04Z</time>
      </trkpt>
      <trkpt lat="47.75081" lon="0.4258">
        <ele>111</ele>
        <time>2019-08-03T14:27:19Z</time>
      </trkpt>
      <trkpt lat="47.7508" lon="0.42574">
        <ele>111</ele>
        <time>2019-08-03T14:27:21Z</time>
      </trkpt>
      <trkpt lat="47.75078" lon="0.42552">
        <ele>112</ele>
        <time>2019-08-03T14:27:32Z</time>
      </trkpt>
      <trkpt lat="47.75077" lon="0.42514">
        <ele>115</ele>
        <time>2019-08-03T14:27:54Z</time>
      </trkpt>
      <trkpt lat="47.75077" lon="0.42509">
        <ele>113</ele>
        <time>2019-08-03T14:27:57Z</time>
      </trkpt>
      <trkpt lat="47.75075" lon="0.42503">
        <ele>113</ele>
        <time>2019-08-03T14:28:00Z</time>
      </trkpt>
      <trkpt lat="47.75074" lon="0.425">
        <ele>114</ele>
        <time>2019-08-03T14:28:02Z</time>
      </trkpt>
      <trkpt lat="47.75066" lon="0.42462">
        <ele>112</ele>
        <time>2019-08-03T14:28:21Z</time>
      </trkpt>
      <trkpt lat="47.75061" lon="0.42453">
        <ele>112</ele>
        <time>2019-08-03T14:28:26Z</time>
      </trkpt>
      <trkpt lat="47.75056" lon="0.42446">
        <ele>109</ele>
        <time>2019-08-03T14:28:32Z</time>
      </trkpt>
      <trkpt lat="47.75052" lon="0.42444">
        <ele>108</ele>
        <time>2019-08-03T14:28:35Z</time>
      </trkpt>
      <trkpt lat="47.75042" lon="0.4244">
        <ele>106</ele>
        <time>2019-08-03T14:28:43Z</time>
      </trkpt>
      <trkpt lat="47.75038" lon="0.42438">
        <ele>106</ele>
        <time>2019-08-03T14:28:46Z</time>
      </trkpt>
      <trkpt lat="47.75034" lon="0.42438">
        <ele>105</ele>
        <time>2019-08-03T14:28:48Z</time>
      </trkpt>
      <trkpt lat="47.75031" lon="0.4244">
        <ele>105</ele>
        <time>2019-08-03T14:28:51Z</time>
      </trkpt>
      <trkpt lat="47.75028" lon="0.4244">
        <ele>105</ele>
        <time>2019-08-03T14:28:54Z</time>
      </trkpt>
      <trkpt lat="47.75021" lon="0.4244">
        <ele>105</ele>
        <time>2019-08-03T14:29:00Z</time>
      </trkpt>
      <trkpt lat="47.75017" lon="0.42438">
        <ele>105</ele>
        <time>2019-08-03T14:29:03Z</time>
      </trkpt>
      <trkpt lat="47.75006" lon="0.4244">
        <ele>107</ele>
        <time>2019-08-03T14:29:12Z</time>
      </trkpt>
      <trkpt lat="47.75" lon="0.42442">
        <ele>106</ele>
        <time>2019-08-03T14:29:18Z</time>
      </trkpt>
      <trkpt lat="47.74992" lon="0.42446">
        <ele>106</ele>
        <time>2019-08-03T14:29:26Z</time>
      </trkpt>
      <trkpt lat="47.74989" lon="0.42446">
        <ele>108</ele>
        <time>2019-08-03T14:29:30Z</time>
      </trkpt>
      <trkpt lat="47.74971" lon="0.42445">
        <ele>107</ele>
        <time>2019-08-03T14:29:42Z</time>
      </trkpt>
      <trkpt lat="47.74968" lon="0.42445">
        <ele>107</ele>
        <time>2019-08-03T14:29:44Z</time>
      </trkpt>
      <trkpt lat="47.74957" lon="0.42444">
        <ele>107</ele>
        <time>2019-08-03T14:29:50Z</time>
      </trkpt>
      <trkpt lat="47.7495" lon="0.42444">
        <ele>108</ele>
        <time>2019-08-03T14:29:55Z</time>
      </trkpt>
      <trkpt lat="47.74929" lon="0.42451">
        <ele>109</ele>
        <time>2019-08-03T14:30:12Z</time>
      </trkpt>
      <trkpt lat="47.74925" lon="0.42454">
        <ele>109</ele>
        <time>2019-08-03T14:30:15Z</time>
      </trkpt>
      <trkpt lat="47.74904" lon="0.42467">
        <ele>109</ele>
        <time>2019-08-03T14:30:33Z</time>
      </trkpt>
      <trkpt lat="47.749" lon="0.4247">
        <ele>110</ele>
        <time>2019-08-03T14:30:36Z</time>
      </trkpt>
      <trkpt lat="47.74868" lon="0.42487">
        <ele>109</ele>
        <time>2019-08-03T14:31:02Z</time>
      </trkpt>
      <trkpt lat="47.74864" lon="0.42489">
        <ele>109</ele>
        <time>2019-08-03T14:31:06Z</time>
      </trkpt>
      <trkpt lat="47.74848" lon="0.42494">
        <ele>108</ele>
        <time>2019-08-03T14:31:19Z</time>
      </trkpt>
      <trkpt lat="47.74835" lon="0.42496">
        <ele>107</ele>
        <time>2019-08-03T14:31:30Z</time>
      </trkpt>
      <trkpt lat="47.74824" lon="0.425">
        <ele>107</ele>
        <time>2019-08-03T14:31:37Z</time>
      </trkpt>
      <trkpt lat="47.74814" lon="0.42502">
        <ele>105</ele>
        <time>2019-08-03T14:32:09Z</time>
      </trkpt>
      <trkpt lat="47.74811" lon="0.42503">
        <ele>104</ele>
        <time>2019-08-03T14:32:12Z</time>
      </trkpt>
      <trkpt lat="47.7479" lon="0.42497">
        <ele>102</ele>
        <time>2019-08-03T14:32:27Z</time>
      </trkpt>
      <trkpt lat="47.74772" lon="0.42496">
        <ele>99</ele>
        <time>2019-08-03T14:32:40Z</time>
      </trkpt>
      <trkpt lat="47.74752" lon="0.42494">
        <ele>100</ele>
        <time>2019-08-03T14:32:54Z</time>
      </trkpt>
      <trkpt lat="47.74742" lon="0.42497">
        <ele>96</ele>
        <time>2019-08-03T14:33:03Z</time>
      </trkpt>
      <trkpt lat="47.74727" lon="0.42493">
        <ele>97</ele>
        <time>2019-08-03T14:33:12Z</time>
      </trkpt>
      <trkpt lat="47.7472" lon="0.42494">
        <ele>98</ele>
        <time>2019-08-03T14:33:16Z</time>
      </trkpt>
      <trkpt lat="47.74717" lon="0.42494">
        <ele>99</ele>
        <time>2019-08-03T14:33:18Z</time>
      </trkpt>
      <trkpt lat="47.74711" lon="0.42495">
        <ele>99</ele>
        <time>2019-08-03T14:33:23Z</time>
      </trkpt>
      <trkpt lat="47.74708" lon="0.42494">
        <ele>99</ele>
        <time>2019-08-03T14:33:26Z</time>
      </trkpt>
      <trkpt lat="47.74705" lon="0.42495">
        <ele>99</ele>
        <time>2019-08-03T14:33:29Z</time>
      </trkpt>
      <trkpt lat="47.74694" lon="0.42493">
        <ele>100</ele>
        <time>2019-08-03T14:33:37Z</time>
      </trkpt>
      <trkpt lat="47.74698" lon="0.42491">
        <ele>104</ele>
        <time>2019-08-03T14:33:47Z</time>
      </trkpt>
      <trkpt lat="47.74701" lon="0.42492">
        <ele>106</ele>
        <time>2019-08-03T14:34:11Z</time>
      </trkpt>
      <trkpt lat="47.74706" lon="0.42501">
        <ele>107</ele>
        <time>2019-08-03T14:34:17Z</time>
      </trkpt>
      <trkpt lat="47.74709" lon="0.42504">
        <ele>108</ele>
        <time>2019-08-03T14:34:20Z</time>
      </trkpt>
      <trkpt lat="47.74715" lon="0.42512">
        <ele>108</ele>
        <time>2019-08-03T14:34:26Z</time>
      </trkpt>
      <trkpt lat="47.74721" lon="0.42518">
        <ele>108</ele>
        <time>2019-08-03T14:34:32Z</time>
      </trkpt>
      <trkpt lat="47.74727" lon="0.42526">
        <ele>109</ele>
        <time>2019-08-03T14:34:38Z</time>
      </trkpt>
      <trkpt lat="47.7473" lon="0.42529">
        <ele>109</ele>
        <time>2019-08-03T14:34:41Z</time>
      </trkpt>
      <trkpt lat="47.74733" lon="0.42533">
        <ele>109</ele>
        <time>2019-08-03T14:34:44Z</time>
      </trkpt>
      <trkpt lat="47.74736" lon="0.42537">
        <ele>109</ele>
        <time>2019-08-03T14:34:47Z</time>
      </trkpt>
      <trkpt lat="47.74738" lon="0.4254">
        <ele>108</ele>
        <time>2019-08-03T14:34:52Z</time>
      </trkpt>
      <trkpt lat="47.74747" lon="0.42553">
        <ele>107</ele>
        <time>2019-08-03T14:35:01Z</time>
      </trkpt>
      <trkpt lat="47.74753" lon="0.42559">
        <ele>107</ele>
        <time>2019-08-03T14:35:08Z</time>
      </trkpt>
      <trkpt lat="47.74767" lon="0.42572">
        <ele>107</ele>
        <time>2019-08-03T14:35:19Z</time>
      </trkpt>
      <trkpt lat="47.74773" lon="0.42578">
        <ele>107</ele>
        <time>2019-08-03T14:35:26Z</time>
      </trkpt>
      <trkpt lat="47.74785" lon="0.42584">
        <ele>107</ele>
        <time>2019-08-03T14:35:35Z</time>
      </trkpt>
      <trkpt lat="47.74792" lon="0.42589">
        <ele>107</ele>
        <time>2019-08-03T14:35:41Z</time>
      </trkpt>
      <trkpt lat="47.74797" lon="0.42602">
        <ele>106</ele>
        <time>2019-08-03T14:35:49Z</time>
      </trkpt>
      <trkpt lat="47.74799" lon="0.42606">
        <ele>108</ele>
        <time>2019-08-03T14:35:52Z</time>
      </trkpt>
      <trkpt lat="47.74797" lon="0.42632">
        <ele>109</ele>
        <time>2019-08-03T14:36:06Z</time>
      </trkpt>
      <trkpt lat="47.74792" lon="0.4266">
        <ele>110</ele>
        <time>2019-08-03T14:36:19Z</time>
      </trkpt>
      <trkpt lat="47.74792" lon="0.42665">
        <ele>110</ele>
        <time>2019-08-03T14:36:23Z</time>
      </trkpt>
      <trkpt lat="47.74791" lon="0.4267">
        <ele>108</ele>
        <time>2019-08-03T14:36:27Z</time>
      </trkpt>
      <trkpt lat="47.7479" lon="0.4268">
        <ele>109</ele>
        <time>2019-08-03T14:36:34Z</time>
      </trkpt>
      <trkpt lat="47.74789" lon="0.42691">
        <ele>109</ele>
        <time>2019-08-03T14:36:39Z</time>
      </trkpt>
      <trkpt lat="47.74788" lon="0.42696">
        <ele>107</ele>
        <time>2019-08-03T14:36:41Z</time>
      </trkpt>
      <trkpt lat="47.74786" lon="0.42705">
        <ele>106</ele>
        <time>2019-08-03T14:36:48Z</time>
      </trkpt>
      <trkpt lat="47.74783" lon="0.42721">
        <ele>104</ele>
        <time>2019-08-03T14:36:57Z</time>
      </trkpt>
      <trkpt lat="47.74782" lon="0.42725">
        <ele>104</ele>
        <time>2019-08-03T14:37:01Z</time>
      </trkpt>
      <trkpt lat="47.74778" lon="0.42733">
        <ele>103</ele>
        <time>2019-08-03T14:37:06Z</time>
      </trkpt>
      <trkpt lat="47.74775" lon="0.42741">
        <ele>104</ele>
        <time>2019-08-03T14:37:12Z</time>
      </trkpt>
      <trkpt lat="47.74773" lon="0.42745">
        <ele>104</ele>
        <time>2019-08-03T14:37:37Z</time>
      </trkpt>
      <trkpt lat="47.74769" lon="0.42753">
        <ele>102</ele>
        <time>2019-08-03T14:37:45Z</time>
      </trkpt>
      <trkpt lat="47.74767" lon="0.42756">
        <ele>101</ele>
        <time>2019-08-03T14:38:02Z</time>
      </trkpt>
      <trkpt lat="47.74762" lon="0.42781">
        <ele>103</ele>
        <time>2019-08-03T14:38:19Z</time>
      </trkpt>
      <trkpt lat="47.74763" lon="0.4279">
        <ele>110</ele>
        <time>2019-08-03T14:38:29Z</time>
      </trkpt>
      <trkpt lat="47.74763" lon="0.42795">
        <ele>110</ele>
        <time>2019-08-03T14:38:34Z</time>
      </trkpt>
      <trkpt lat="47.74763" lon="0.42799">
        <ele>109</ele>
        <time>2019-08-03T14:38:49Z</time>
      </trkpt>
      <trkpt lat="47.74759" lon="0.42808">
        <ele>107</ele>
        <time>2019-08-03T14:38:59Z</time>
      </trkpt>
      <trkpt lat="47.74757" lon="0.42811">
        <ele>108</ele>
        <time>2019-08-03T14:39:02Z</time>
      </trkpt>
      <trkpt lat="47.74754" lon="0.42824">
        <ele>108</ele>
        <time>2019-08-03T14:39:18Z</time>
      </trkpt>
      <trkpt lat="47.74751" lon="0.42833">
        <ele>109</ele>
        <time>2019-08-03T14:39:25Z</time>
      </trkpt>
      <trkpt lat="47.74745" lon="0.42839">
        <ele>108</ele>
        <time>2019-08-03T14:39:31Z</time>
      </trkpt>
      <trkpt lat="47.74729" lon="0.42848">
        <ele>108</ele>
        <time>2019-08-03T14:39:47Z</time>
      </trkpt>
      <trkpt lat="47.74726" lon="0.42856">
        <ele>110</ele>
        <time>2019-08-03T14:39:53Z</time>
      </trkpt>
      <trkpt lat="47.74724" lon="0.42866">
        <ele>110</ele>
        <time>2019-08-03T14:39:58Z</time>
      </trkpt>
      <trkpt lat="47.74719" lon="0.42872">
        <ele>110</ele>
        <time>2019-08-03T14:40:05Z</time>
      </trkpt>
      <trkpt lat="47.74717" lon="0.42876">
        <ele>110</ele>
        <time>2019-08-03T14:40:08Z</time>
      </trkpt>
      <trkpt lat="47.74713" lon="0.4288">
        <ele>107</ele>
        <time>2019-08-03T14:40:11Z</time>
      </trkpt>
      <trkpt lat="47.74701" lon="0.42885">
        <ele>104</ele>
        <time>2019-08-03T14:40:20Z</time>
      </trkpt>
      <trkpt lat="47.74697" lon="0.42887">
        <ele>104</ele>
        <time>2019-08-03T14:40:23Z</time>
      </trkpt>
      <trkpt lat="47.74687" lon="0.42887">
        <ele>104</ele>
        <time>2019-08-03T14:40:32Z</time>
      </trkpt>
      <trkpt lat="47.7468" lon="0.42891">
        <ele>104</ele>
        <time>2019-08-03T14:40:37Z</time>
      </trkpt>
      <trkpt lat="47.74662" lon="0.4289">
        <ele>99</ele>
        <time>2019-08-03T14:40:50Z</time>
      </trkpt>
      <trkpt lat="47.74641" lon="0.42891">
        <ele>98</ele>
        <time>2019-08-03T14:41:07Z</time>
      </trkpt>
      <trkpt lat="47.74638" lon="0.42893">
        <ele>98</ele>
        <time>2019-08-03T14:41:10Z</time>
      </trkpt>
      <trkpt lat="47.74635" lon="0.42897">
        <ele>98</ele>
        <time>2019-08-03T14:41:14Z</time>
      </trkpt>
      <trkpt lat="47.74635" lon="0.42908">
        <ele>98</ele>
        <time>2019-08-03T14:41:19Z</time>
      </trkpt>
      <trkpt lat="47.74634" lon="0.42913">
        <ele>98</ele>
        <time>2019-08-03T14:41:22Z</time>
      </trkpt>
      <trkpt lat="47.74636" lon="0.4292">
        <ele>99</ele>
        <time>2019-08-03T14:41:29Z</time>
      </trkpt>
      <trkpt lat="47.7464" lon="0.42929">
        <ele>103</ele>
        <time>2019-08-03T14:41:35Z</time>
      </trkpt>
      <trkpt lat="47.74635" lon="0.42937">
        <ele>103</ele>
        <time>2019-08-03T14:41:41Z</time>
      </trkpt>
      <trkpt lat="47.74633" lon="0.4294">
        <ele>101</ele>
        <time>2019-08-03T14:41:44Z</time>
      </trkpt>
      <trkpt lat="47.7463" lon="0.4294">
        <ele>99</ele>
        <time>2019-08-03T14:42:10Z</time>
      </trkpt>
      <trkpt lat="47.74628" lon="0.42944">
        <ele>98</ele>
        <time>2019-08-03T14:42:51Z</time>
      </trkpt>
      <trkpt lat="47.74629" lon="0.42949">
        <ele>97</ele>
        <time>2019-08-03T14:42:54Z</time>
      </trkpt>
      <trkpt lat="47.74627" lon="0.42953">
        <ele>97</ele>
        <time>2019-08-03T14:42:57Z</time>
      </trkpt>
      <trkpt lat="47.74624" lon="0.42957">
        <ele>97</ele>
        <time>2019-08-03T14:43:00Z</time>
      </trkpt>
      <trkpt lat="47.74623" lon="0.42961">
        <ele>98</ele>
        <time>2019-08-03T14:43:03Z</time>
      </trkpt>
      <trkpt lat="47.74615" lon="0.42968">
        <ele>99</ele>
        <time>2019-08-03T14:43:12Z</time>
      </trkpt>
      <trkpt lat="47.74611" lon="0.42968">
        <ele>99</ele>
        <time>2019-08-03T14:43:15Z</time>
      </trkpt>
      <trkpt lat="47.74598" lon="0.42967">
        <ele>100</ele>
        <time>2019-08-03T14:43:47Z</time>
      </trkpt>
      <trkpt lat="47.74595" lon="0.42967">
        <ele>101</ele>
        <time>2019-08-03T14:43:50Z</time>
      </trkpt>
      <trkpt lat="47.74578" lon="0.42973">
        <ele>107</ele>
        <time>2019-08-03T14:44:09Z</time>
      </trkpt>
      <trkpt lat="47.74572" lon="0.42979">
        <ele>109</ele>
        <time>2019-08-03T14:44:15Z</time>
      </trkpt>
      <trkpt lat="47.74569" lon="0.42982">
        <ele>110</ele>
        <time>2019-08-03T14:44:18Z</time>
      </trkpt>
      <trkpt lat="47.74567" lon="0.42986">
        <ele>111</ele>
        <time>2019-08-03T14:44:21Z</time>
      </trkpt>
      <trkpt lat="47.74566" lon="0.4299">
        <ele>112</ele>
        <time>2019-08-03T14:44:24Z</time>
      </trkpt>
      <trkpt lat="47.74566" lon="0.42995">
        <ele>113</ele>
        <time>2019-08-03T14:44:27Z</time>
      </trkpt>
      <trkpt lat="47.74568" lon="0.43">
        <ele>113</ele>
        <time>2019-08-03T14:44:31Z</time>
      </trkpt>
      <trkpt lat="47.74577" lon="0.43016">
        <ele>115</ele>
        <time>2019-08-03T14:44:46Z</time>
      </trkpt>
      <trkpt lat="47.74588" lon="0.43038">
        <ele>117</ele>
        <time>2019-08-03T14:45:06Z</time>
      </trkpt>
      <trkpt lat="47.74594" lon="0.43057">
        <ele>117</ele>
        <time>2019-08-03T14:45:19Z</time>
      </trkpt>
      <trkpt lat="47.74598" lon="0.43087">
        <ele>117</ele>
        <time>2019-08-03T14:45:40Z</time>
      </trkpt>
      <trkpt lat="47.74598" lon="0.43092">
        <ele>118</ele>
        <time>2019-08-03T14:45:44Z</time>
      </trkpt>
      <trkpt lat="47.74598" lon="0.43097">
        <ele>119</ele>
        <time>2019-08-03T14:45:47Z</time>
      </trkpt>
      <trkpt lat="47.74598" lon="0.43102">
        <ele>119</ele>
        <time>2019-08-03T14:45:51Z</time>
      </trkpt>
      <trkpt lat="47.746" lon="0.43107">
        <ele>120</ele>
        <time>2019-08-03T14:45:54Z</time>
      </trkpt>
      <trkpt lat="47.74611" lon="0.43139">
        <ele>121</ele>
        <time>2019-08-03T14:46:15Z</time>
      </trkpt>
      <trkpt lat="47.74613" lon="0.43143">
        <ele>122</ele>
        <time>2019-08-03T14:46:18Z</time>
      </trkpt>
      <trkpt lat="47.74615" lon="0.43149">
        <ele>123</ele>
        <time>2019-08-03T14:46:21Z</time>
      </trkpt>
      <trkpt lat="47.74616" lon="0.43153">
        <ele>123</ele>
        <time>2019-08-03T14:46:24Z</time>
      </trkpt>
      <trkpt lat="47.74616" lon="0.43175">
        <ele>125</ele>
        <time>2019-08-03T14:46:36Z</time>
      </trkpt>
      <trkpt lat="47.74616" lon="0.4318">
        <ele>125</ele>
        <time>2019-08-03T14:46:39Z</time>
      </trkpt>
      <trkpt lat="47.74614" lon="0.43212">
        <ele>130</ele>
        <time>2019-08-03T14:47:00Z</time>
      </trkpt>
      <trkpt lat="47.74614" lon="0.43217">
        <ele>130</ele>
        <time>2019-08-03T14:47:03Z</time>
      </trkpt>
      <trkpt lat="47.74611" lon="0.43218">
        <ele>131</ele>
        <time>2019-08-03T14:47:18Z</time>
      </trkpt>
      <trkpt lat="47.7461" lon="0.4322">
        <ele>132</ele>
        <time>2019-08-03T14:47:44Z</time>
      </trkpt>
      <trkpt lat="47.74612" lon="0.43224">
        <ele>132</ele>
        <time>2019-08-03T14:47:48Z</time>
      </trkpt>
      <trkpt lat="47.74612" lon="0.43229">
        <ele>131</ele>
        <time>2019-08-03T14:47:51Z</time>
      </trkpt>
      <trkpt lat="47.74615" lon="0.43239">
        <ele>131</ele>
        <time>2019-08-03T14:47:58Z</time>
      </trkpt>
      <trkpt lat="47.74624" lon="0.43253">
        <ele>131</ele>
        <time>2019-08-03T14:48:08Z</time>
      </trkpt>
      <trkpt lat="47.7463" lon="0.4326">
        <ele>130</ele>
        <time>2019-08-03T14:48:14Z</time>
      </trkpt>
      <trkpt lat="47.7465" lon="0.43299">
        <ele>127</ele>
        <time>2019-08-03T14:48:38Z</time>
      </trkpt>
      <trkpt lat="47.74653" lon="0.4331">
        <ele>127</ele>
        <time>2019-08-03T14:48:43Z</time>
      </trkpt>
      <trkpt lat="47.74653" lon="0.43315">
        <ele>128</ele>
        <time>2019-08-03T14:48:46Z</time>
      </trkpt>
      <trkpt lat="47.74652" lon="0.4332">
        <ele>128</ele>
        <time>2019-08-03T14:48:49Z</time>
      </trkpt>
      <trkpt lat="47.74624" lon="0.43346">
        <ele>128</ele>
        <time>2019-08-03T14:49:12Z</time>
      </trkpt>
      <trkpt lat="47.74615" lon="0.43352">
        <ele>129</ele>
        <time>2019-08-03T14:49:18Z</time>
      </trkpt>
      <trkpt lat="47.74581" lon="0.43385">
        <ele>127</ele>
        <time>2019-08-03T14:49:50Z</time>
      </trkpt>
      <trkpt lat="47.74557" lon="0.43409">
        <ele>126</ele>
        <time>2019-08-03T14:50:12Z</time>
      </trkpt>
      <trkpt lat="47.74539" lon="0.43427">
        <ele>127</ele>
        <time>2019-08-03T14:50:29Z</time>
      </trkpt>
      <trkpt lat="47.7452" lon="0.43446">
        <ele>125</ele>
        <time>2019-08-03T14:50:47Z</time>
      </trkpt>
      <trkpt lat="47.74482" lon="0.43479">
        <ele>126</ele>
        <time>2019-08-03T14:51:18Z</time>
      </trkpt>
      <trkpt lat="47.7445" lon="0.43509">
        <ele>126</ele>
        <time>2019-08-03T14:51:48Z</time>
      </trkpt>
      <trkpt lat="47.74438" lon="0.43521">
        <ele>127</ele>
        <time>2019-08-03T14:51:59Z</time>
      </trkpt>
      <trkpt lat="47.74407" lon="0.43549">
        <ele>127</ele>
        <time>2019-08-03T14:52:29Z</time>
      </trkpt>
      <trkpt lat="47.74375" lon="0.43577">
        <ele>127</ele>
        <time>2019-08-03T14:52:59Z</time>
      </trkpt>
      <trkpt lat="47.74339" lon="0.43602">
        <ele>125</ele>
        <time>2019-08-03T14:53:30Z</time>
      </trkpt>
      <trkpt lat="47.74298" lon="0.43622">
        <ele>126</ele>
        <time>2019-08-03T14:54:02Z</time>
      </trkpt>
      <trkpt lat="47.74294" lon="0.43623">
        <ele>127</ele>
        <time>2019-08-03T14:54:05Z</time>
      </trkpt>
      <trkpt lat="47.7429" lon="0.43623">
        <ele>127</ele>
        <time>2019-08-03T14:54:08Z</time>
      </trkpt>
      <trkpt lat="47.74286" lon="0.43623">
        <ele>127</ele>
        <time>2019-08-03T14:54:11Z</time>
      </trkpt>
      <trkpt lat="47.7428" lon="0.43627">
        <ele>127</ele>
        <time>2019-08-03T14:54:16Z</time>
      </trkpt>
      <trkpt lat="47.74264" lon="0.43636">
        <ele>128</ele>
        <time>2019-08-03T14:54:30Z</time>
      </trkpt>
      <trkpt lat="47.74256" lon="0.43642">
        <ele>127</ele>
        <time>2019-08-03T14:54:36Z</time>
      </trkpt>
      <trkpt lat="47.74242" lon="0.43647">
        <ele>126</ele>
        <time>2019-08-03T14:54:46Z</time>
      </trkpt>
      <trkpt lat="47.74203" lon="0.43667">
        <ele>122</ele>
        <time>2019-08-03T14:55:17Z</time>
      </trkpt>
      <trkpt lat="47.74193" lon="0.43672">
        <ele>122</ele>
        <time>2019-08-03T14:55:25Z</time>
      </trkpt>
      <trkpt lat="47.74186" lon="0.43674">
        <ele>123</ele>
        <time>2019-08-03T14:55:29Z</time>
      </trkpt>
      <trkpt lat="47.74183" lon="0.43676">
        <ele>123</ele>
        <time>2019-08-03T14:55:31Z</time>
      </trkpt>
      <trkpt lat="47.7417" lon="0.43682">
        <ele>124</ele>
        <time>2019-08-03T14:55:41Z</time>
      </trkpt>
      <trkpt lat="47.74152" lon="0.43691">
        <ele>123</ele>
        <time>2019-08-03T14:55:55Z</time>
      </trkpt>
      <trkpt lat="47.7415" lon="0.43692">
        <ele>123</ele>
        <time>2019-08-03T14:55:57Z</time>
      </trkpt>
      <trkpt lat="47.7414" lon="0.43698">
        <ele>122</ele>
        <time>2019-08-03T14:56:05Z</time>
      </trkpt>
      <trkpt lat="47.74139" lon="0.43709">
        <ele>122</ele>
        <time>2019-08-03T14:56:11Z</time>
      </trkpt>
      <trkpt lat="47.7414" lon="0.43772">
        <ele>124</ele>
        <time>2019-08-03T14:56:42Z</time>
      </trkpt>
      <trkpt lat="47.74141" lon="0.43798">
        <ele>124</ele>
        <time>2019-08-03T14:56:56Z</time>
      </trkpt>
      <trkpt lat="47.74141" lon="0.43803">
        <ele>125</ele>
        <time>2019-08-03T14:56:59Z</time>
      </trkpt>
      <trkpt lat="47.74141" lon="0.43812">
        <ele>125</ele>
        <time>2019-08-03T14:57:03Z</time>
      </trkpt>
      <trkpt lat="47.7414" lon="0.43827">
        <ele>125</ele>
        <time>2019-08-03T14:57:10Z</time>
      </trkpt>
      <trkpt lat="47.7414" lon="0.43863">
        <ele>132</ele>
        <time>2019-08-03T14:57:28Z</time>
      </trkpt>
      <trkpt lat="47.7414" lon="0.43868">
        <ele>132</ele>
        <time>2019-08-03T14:57:31Z</time>
      </trkpt>
      <trkpt lat="47.74139" lon="0.43909">
        <ele>127</ele>
        <time>2019-08-03T14:57:52Z</time>
      </trkpt>
      <trkpt lat="47.7414" lon="0.43939">
        <ele>128</ele>
        <time>2019-08-03T14:58:07Z</time>
      </trkpt>
      <trkpt lat="47.74135" lon="0.44">
        <ele>126</ele>
        <time>2019-08-03T14:58:39Z</time>
      </trkpt>
      <trkpt lat="47.74134" lon="0.44006">
        <ele>127</ele>
        <time>2019-08-03T14:58:42Z</time>
      </trkpt>
      <trkpt lat="47.74131" lon="0.44026">
        <ele>127</ele>
        <time>2019-08-03T14:58:52Z</time>
      </trkpt>
      <trkpt lat="47.74129" lon="0.44042">
        <ele>127</ele>
        <time>2019-08-03T14:59:00Z</time>
      </trkpt>
      <trkpt lat="47.74129" lon="0.44048">
        <ele>128</ele>
        <time>2019-08-03T14:59:04Z</time>
      </trkpt>
      <trkpt lat="47.7413" lon="0.44059">
        <ele>128</ele>
        <time>2019-08-03T14:59:09Z</time>
      </trkpt>
      <trkpt lat="47.74131" lon="0.44116">
        <ele>126</ele>
        <time>2019-08-03T14:59:37Z</time>
      </trkpt>
      <trkpt lat="47.74124" lon="0.44152">
        <ele>127</ele>
        <time>2019-08-03T14:59:56Z</time>
      </trkpt>
      <trkpt lat="47.74112" lon="0.44186">
        <ele>126</ele>
        <time>2019-08-03T15:00:15Z</time>
      </trkpt>
      <trkpt lat="47.74111" lon="0.44191">
        <ele>126</ele>
        <time>2019-08-03T15:00:18Z</time>
      </trkpt>
      <trkpt lat="47.74105" lon="0.44205">
        <ele>126</ele>
        <time>2019-08-03T15:00:28Z</time>
      </trkpt>
      <trkpt lat="47.74107" lon="0.44209">
        <ele>126</ele>
        <time>2019-08-03T15:00:31Z</time>
      </trkpt>
      <trkpt lat="47.74108" lon="0.44214">
        <ele>126</ele>
        <time>2019-08-03T15:00:59Z</time>
      </trkpt>
      <trkpt lat="47.74102" lon="0.4422">
        <ele>126</ele>
        <time>2019-08-03T15:01:09Z</time>
      </trkpt>
      <trkpt lat="47.74096" lon="0.44225">
        <ele>127</ele>
        <time>2019-08-03T15:01:14Z</time>
      </trkpt>
      <trkpt lat="47.74093" lon="0.4423">
        <ele>126</ele>
        <time>2019-08-03T15:01:18Z</time>
      </trkpt>
      <trkpt lat="47.7409" lon="0.44239">
        <ele>128</ele>
        <time>2019-08-03T15:01:22Z</time>
      </trkpt>
      <trkpt lat="47.74084" lon="0.44264">
        <ele>127</ele>
        <time>2019-08-03T15:01:41Z</time>
      </trkpt>
      <trkpt lat="47.74075" lon="0.44309">
        <ele>125</ele>
        <time>2019-08-03T15:02:06Z</time>
      </trkpt>
      <trkpt lat="47.74073" lon="0.44319">
        <ele>125</ele>
        <time>2019-08-03T15:02:11Z</time>
      </trkpt>
      <trkpt lat="47.7407" lon="0.4434">
        <ele>124</ele>
        <time>2019-08-03T15:02:21Z</time>
      </trkpt>
      <trkpt lat="47.74072" lon="0.4435">
        <ele>124</ele>
        <time>2019-08-03T15:02:28Z</time>
      </trkpt>
      <trkpt lat="47.74071" lon="0.44354">
        <ele>126</ele>
        <time>2019-08-03T15:02:36Z</time>
      </trkpt>
      <trkpt lat="47.74068" lon="0.44356">
        <ele>126</ele>
        <time>2019-08-03T15:02:39Z</time>
      </trkpt>
      <trkpt lat="47.74065" lon="0.44354">
        <ele>126</ele>
        <time>2019-08-03T15:03:24Z</time>
      </trkpt>
      <trkpt lat="47.74062" lon="0.44354">
        <ele>126</ele>
        <time>2019-08-03T15:03:26Z</time>
      </trkpt>
      <trkpt lat="47.74059" lon="0.44352">
        <ele>126</ele>
        <time>2019-08-03T15:03:28Z</time>
      </trkpt>
      <trkpt lat="47.74042" lon="0.44341">
        <ele>126</ele>
        <time>2019-08-03T15:03:41Z</time>
      </trkpt>
      <trkpt lat="47.74039" lon="0.44337">
        <ele>126</ele>
        <time>2019-08-03T15:03:44Z</time>
      </trkpt>
      <trkpt lat="47.7403" lon="0.4433">
        <ele>125</ele>
        <time>2019-08-03T15:03:53Z</time>
      </trkpt>
      <trkpt lat="47.74026" lon="0.44328">
        <ele>125</ele>
        <time>2019-08-03T15:03:56Z</time>
      </trkpt>
      <trkpt lat="47.74023" lon="0.44325">
        <ele>125</ele>
        <time>2019-08-03T15:03:58Z</time>
      </trkpt>
      <trkpt lat="47.74005" lon="0.44314">
        <ele>127</ele>
        <time>2019-08-03T15:04:10Z</time>
      </trkpt>
      <trkpt lat="47.74002" lon="0.44312">
        <ele>127</ele>
        <time>2019-08-03T15:04:13Z</time>
      </trkpt>
      <trkpt lat="47.73999" lon="0.4431">
        <ele>127</ele>
        <time>2019-08-03T15:04:16Z</time>
      </trkpt>
      <trkpt lat="47.73996" lon="0.44307">
        <ele>127</ele>
        <time>2019-08-03T15:04:19Z</time>
      </trkpt>
      <trkpt lat="47.73963" lon="0.44279">
        <ele>125</ele>
        <time>2019-08-03T15:04:50Z</time>
      </trkpt>
      <trkpt lat="47.73951" lon="0.44274">
        <ele>125</ele>
        <time>2019-08-03T15:04:59Z</time>
      </trkpt>
      <trkpt lat="47.73947" lon="0.44272">
        <ele>125</ele>
        <time>2019-08-03T15:05:02Z</time>
      </trkpt>
      <trkpt lat="47.73944" lon="0.4427">
        <ele>125</ele>
        <time>2019-08-03T15:05:05Z</time>
      </trkpt>
      <trkpt lat="47.7394" lon="0.44269">
        <ele>126</ele>
        <time>2019-08-03T15:05:08Z</time>
      </trkpt>
      <trkpt lat="47.73907" lon="0.44248">
        <ele>128</ele>
        <time>2019-08-03T15:05:35Z</time>
      </trkpt>
      <trkpt lat="47.73904" lon="0.44246">
        <ele>127</ele>
        <time>2019-08-03T15:05:38Z</time>
      </trkpt>
      <trkpt lat="47.73867" lon="0.44219">
        <ele>126</ele>
        <time>2019-08-03T15:06:08Z</time>
      </trkpt>
      <trkpt lat="47.73851" lon="0.44212">
        <ele>127</ele>
        <time>2019-08-03T15:06:21Z</time>
      </trkpt>
      <trkpt lat="47.73848" lon="0.4421">
        <ele>127</ele>
        <time>2019-08-03T15:06:24Z</time>
      </trkpt>
      <trkpt lat="47.73845" lon="0.44208">
        <ele>128</ele>
        <time>2019-08-03T15:06:31Z</time>
      </trkpt>
      <trkpt lat="47.73844" lon="0.44204">
        <ele>128</ele>
        <time>2019-08-03T15:06:41Z</time>
      </trkpt>
      <trkpt lat="47.7383" lon="0.44198">
        <ele>129</ele>
        <time>2019-08-03T15:06:55Z</time>
      </trkpt>
      <trkpt lat="47.73826" lon="0.44197">
        <ele>129</ele>
        <time>2019-08-03T15:06:58Z</time>
      </trkpt>
      <trkpt lat="47.73819" lon="0.44196">
        <ele>128</ele>
        <time>2019-08-03T15:07:04Z</time>
      </trkpt>
      <trkpt lat="47.73815" lon="0.44193">
        <ele>128</ele>
        <time>2019-08-03T15:07:07Z</time>
      </trkpt>
      <trkpt lat="47.73805" lon="0.4419">
        <ele>129</ele>
        <time>2019-08-03T15:07:17Z</time>
      </trkpt>
      <trkpt lat="47.73797" lon="0.44189">
        <ele>130</ele>
        <time>2019-08-03T15:07:22Z</time>
      </trkpt>
      <trkpt lat="47.73794" lon="0.44188">
        <ele>129</ele>
        <time>2019-08-03T15:07:25Z</time>
      </trkpt>
      <trkpt lat="47.73791" lon="0.44185">
        <ele>129</ele>
        <time>2019-08-03T15:07:28Z</time>
      </trkpt>
      <trkpt lat="47.73788" lon="0.44184">
        <ele>128</ele>
        <time>2019-08-03T15:07:31Z</time>
      </trkpt>
      <trkpt lat="47.73784" lon="0.44182">
        <ele>128</ele>
        <time>2019-08-03T15:07:34Z</time>
      </trkpt>
      <trkpt lat="47.73767" lon="0.44176">
        <ele>129</ele>
        <time>2019-08-03T15:07:47Z</time>
      </trkpt>
      <trkpt lat="47.73756" lon="0.44172">
        <ele>129</ele>
        <time>2019-08-03T15:07:55Z</time>
      </trkpt>
      <trkpt lat="47.73749" lon="0.44172">
        <ele>129</ele>
        <time>2019-08-03T15:08:01Z</time>
      </trkpt>
      <trkpt lat="47.73745" lon="0.44172">
        <ele>130</ele>
        <time>2019-08-03T15:08:04Z</time>
      </trkpt>
      <trkpt lat="47.7374" lon="0.44167">
        <ele>130</ele>
        <time>2019-08-03T15:08:08Z</time>
      </trkpt>
      <trkpt lat="47.73726" lon="0.44161">
        <ele>131</ele>
        <time>2019-08-03T15:08:19Z</time>
      </trkpt>
      <trkpt lat="47.73711" lon="0.44158">
        <ele>129</ele>
        <time>2019-08-03T15:08:32Z</time>
      </trkpt>
      <trkpt lat="47.73701" lon="0.44152">
        <ele>129</ele>
        <time>2019-08-03T15:08:41Z</time>
      </trkpt>
      <trkpt lat="47.7366" lon="0.44138">
        <ele>129</ele>
        <time>2019-08-03T15:09:13Z</time>
      </trkpt>
      <trkpt lat="47.73627" lon="0.44125">
        <ele>129</ele>
        <time>2019-08-03T15:09:43Z</time>
      </trkpt>
      <trkpt lat="47.73604" lon="0.44118">
        <ele>128</ele>
        <time>2019-08-03T15:10:01Z</time>
      </trkpt>
      <trkpt lat="47.73601" lon="0.44117">
        <ele>128</ele>
        <time>2019-08-03T15:10:03Z</time>
      </trkpt>
      <trkpt lat="47.73564" lon="0.44104">
        <ele>129</ele>
        <time>2019-08-03T15:10:31Z</time>
      </trkpt>
      <trkpt lat="47.73557" lon="0.441">
        <ele>129</ele>
        <time>2019-08-03T15:10:36Z</time>
      </trkpt>
      <trkpt lat="47.73543" lon="0.44096">
        <ele>130</ele>
        <time>2019-08-03T15:10:48Z</time>
      </trkpt>
      <trkpt lat="47.7354" lon="0.44095">
        <ele>129</ele>
        <time>2019-08-03T15:10:50Z</time>
      </trkpt>
      <trkpt lat="47.73525" lon="0.44091">
        <ele>129</ele>
        <time>2019-08-03T15:11:00Z</time>
      </trkpt>
      <trkpt lat="47.73512" lon="0.44086">
        <ele>129</ele>
        <time>2019-08-03T15:11:10Z</time>
      </trkpt>
      <trkpt lat="47.73506" lon="0.44084">
        <ele>129</ele>
        <time>2019-08-03T15:11:14Z</time>
      </trkpt>
      <trkpt lat="47.73484" lon="0.44085">
        <ele>129</ele>
        <time>2019-08-03T15:11:32Z</time>
      </trkpt>
      <trkpt lat="47.73481" lon="0.44088">
        <ele>129</ele>
        <time>2019-08-03T15:11:35Z</time>
      </trkpt>
      <trkpt lat="47.73484" lon="0.44098">
        <ele>129</ele>
        <time>2019-08-03T15:12:00Z</time>
      </trkpt>
      <trkpt lat="47.73484" lon="0.44102">
        <ele>130</ele>
        <time>2019-08-03T15:12:03Z</time>
      </trkpt>
      <trkpt lat="47.73486" lon="0.44112">
        <ele>130</ele>
        <time>2019-08-03T15:12:10Z</time>
      </trkpt>
      <trkpt lat="47.73485" lon="0.44118">
        <ele>130</ele>
        <time>2019-08-03T15:12:13Z</time>
      </trkpt>
      <trkpt lat="47.73484" lon="0.44123">
        <ele>130</ele>
        <time>2019-08-03T15:12:16Z</time>
      </trkpt>
      <trkpt lat="47.7349" lon="0.44153">
        <ele>130</ele>
        <time>2019-08-03T15:12:34Z</time>
      </trkpt>
      <trkpt lat="47.73492" lon="0.44163">
        <ele>130</ele>
        <time>2019-08-03T15:12:39Z</time>
      </trkpt>
      <trkpt lat="47.73495" lon="0.44175">
        <ele>131</ele>
        <time>2019-08-03T15:12:45Z</time>
      </trkpt>
      <trkpt lat="47.73508" lon="0.44213">
        <ele>130</ele>
        <time>2019-08-03T15:13:07Z</time>
      </trkpt>
      <trkpt lat="47.73521" lon="0.44265">
        <ele>129</ele>
        <time>2019-08-03T15:13:35Z</time>
      </trkpt>
      <trkpt lat="47.73522" lon="0.44269">
        <ele>129</ele>
        <time>2019-08-03T15:13:38Z</time>
      </trkpt>
      <trkpt lat="47.7353" lon="0.44287">
        <ele>128</ele>
        <time>2019-08-03T15:13:52Z</time>
      </trkpt>
      <trkpt lat="47.73529" lon="0.44291">
        <ele>128</ele>
        <time>2019-08-03T15:13:56Z</time>
      </trkpt>
      <trkpt lat="47.73531" lon="0.44297">
        <ele>128</ele>
        <time>2019-08-03T15:14:03Z</time>
      </trkpt>
      <trkpt lat="47.73534" lon="0.44311">
        <ele>128</ele>
        <time>2019-08-03T15:14:09Z</time>
      </trkpt>
      <trkpt lat="47.73539" lon="0.44324">
        <ele>130</ele>
        <time>2019-08-03T15:14:17Z</time>
      </trkpt>
      <trkpt lat="47.73539" lon="0.44334">
        <ele>130</ele>
        <time>2019-08-03T15:14:27Z</time>
      </trkpt>
      <trkpt lat="47.7354" lon="0.4434">
        <ele>129</ele>
        <time>2019-08-03T15:14:30Z</time>
      </trkpt>
      <trkpt lat="47.7354" lon="0.44349">
        <ele>129</ele>
        <time>2019-08-03T15:14:34Z</time>
      </trkpt>
      <trkpt lat="47.73542" lon="0.44359">
        <ele>130</ele>
        <time>2019-08-03T15:14:39Z</time>
      </trkpt>
      <trkpt lat="47.73544" lon="0.44363">
        <ele>130</ele>
        <time>2019-08-03T15:14:42Z</time>
      </trkpt>
      <trkpt lat="47.73548" lon="0.44372">
        <ele>130</ele>
        <time>2019-08-03T15:14:47Z</time>
      </trkpt>
      <trkpt lat="47.73546" lon="0.44394">
        <ele>128</ele>
        <time>2019-08-03T15:14:59Z</time>
      </trkpt>
      <trkpt lat="47.73548" lon="0.44399">
        <ele>127</ele>
        <time>2019-08-03T15:15:02Z</time>
      </trkpt>
      <trkpt lat="47.73549" lon="0.4441">
        <ele>127</ele>
        <time>2019-08-03T15:15:07Z</time>
      </trkpt>
      <trkpt lat="47.73553" lon="0.44419">
        <ele>128</ele>
        <time>2019-08-03T15:15:14Z</time>
      </trkpt>
      <trkpt lat="47.73555" lon="0.4444">
        <ele>128</ele>
        <time>2019-08-03T15:15:24Z</time>
      </trkpt>
      <trkpt lat="47.73557" lon="0.44449">
        <ele>128</ele>
        <time>2019-08-03T15:15:30Z</time>
      </trkpt>
      <trkpt lat="47.73554" lon="0.44472">
        <ele>129</ele>
        <time>2019-08-03T15:15:43Z</time>
      </trkpt>
      <trkpt lat="47.73552" lon="0.44483">
        <ele>129</ele>
        <time>2019-08-03T15:15:50Z</time>
      </trkpt>
      <trkpt lat="47.73552" lon="0.44495">
        <ele>128</ele>
        <time>2019-08-03T15:15:57Z</time>
      </trkpt>
      <trkpt lat="47.73549" lon="0.44509">
        <ele>125</ele>
        <time>2019-08-03T15:16:06Z</time>
      </trkpt>
      <trkpt lat="47.73548" lon="0.44525">
        <ele>126</ele>
        <time>2019-08-03T15:16:15Z</time>
      </trkpt>
      <trkpt lat="47.73545" lon="0.44537">
        <ele>125</ele>
        <time>2019-08-03T15:16:21Z</time>
      </trkpt>
      <trkpt lat="47.73542" lon="0.44551">
        <ele>126</ele>
        <time>2019-08-03T15:16:28Z</time>
      </trkpt>
      <trkpt lat="47.73529" lon="0.44604">
        <ele>123</ele>
        <time>2019-08-03T15:16:58Z</time>
      </trkpt>
      <trkpt lat="47.73524" lon="0.44626">
        <ele>121</ele>
        <time>2019-08-03T15:17:10Z</time>
      </trkpt>
      <trkpt lat="47.73519" lon="0.4464">
        <ele>121</ele>
        <time>2019-08-03T15:17:17Z</time>
      </trkpt>
      <trkpt lat="47.73518" lon="0.44645">
        <ele>121</ele>
        <time>2019-08-03T15:17:20Z</time>
      </trkpt>
      <trkpt lat="47.7352" lon="0.4466">
        <ele>120</ele>
        <time>2019-08-03T15:17:29Z</time>
      </trkpt>
      <trkpt lat="47.73524" lon="0.44663">
        <ele>120</ele>
        <time>2019-08-03T15:17:32Z</time>
      </trkpt>
      <trkpt lat="47.73527" lon="0.44663">
        <ele>119</ele>
        <time>2019-08-03T15:17:34Z</time>
      </trkpt>
      <trkpt lat="47.7353" lon="0.44661">
        <ele>119</ele>
        <time>2019-08-03T15:17:36Z</time>
      </trkpt>
      <trkpt lat="47.73535" lon="0.44655">
        <ele>118</ele>
        <time>2019-08-03T15:17:42Z</time>
      </trkpt>
      <trkpt lat="47.73545" lon="0.44646">
        <ele>117</ele>
        <time>2019-08-03T15:17:50Z</time>
      </trkpt>
      <trkpt lat="47.73548" lon="0.44644">
        <ele>117</ele>
        <time>2019-08-03T15:17:53Z</time>
      </trkpt>
      <trkpt lat="47.73551" lon="0.44641">
        <ele>117</ele>
        <time>2019-08-03T15:17:56Z</time>
      </trkpt>
      <trkpt lat="47.73562" lon="0.44638">
        <ele>116</ele>
        <time>2019-08-03T15:18:05Z</time>
      </trkpt>
      <trkpt lat="47.73565" lon="0.4464">
        <ele>116</ele>
        <time>2019-08-03T15:18:09Z</time>
      </trkpt>
      <trkpt lat="47.73567" lon="0.44646">
        <ele>115</ele>
        <time>2019-08-03T15:18:12Z</time>
      </trkpt>
      <trkpt lat="47.73567" lon="0.4465">
        <ele>115</ele>
        <time>2019-08-03T15:18:19Z</time>
      </trkpt>
      <trkpt lat="47.73567" lon="0.44655">
        <ele>115</ele>
        <time>2019-08-03T15:18:21Z</time>
      </trkpt>
      <trkpt lat="47.73572" lon="0.44668">
        <ele>115</ele>
        <time>2019-08-03T15:18:28Z</time>
      </trkpt>
      <trkpt lat="47.73573" lon="0.44679">
        <ele>116</ele>
        <time>2019-08-03T15:18:34Z</time>
      </trkpt>
      <trkpt lat="47.73573" lon="0.4469">
        <ele>114</ele>
        <time>2019-08-03T15:18:39Z</time>
      </trkpt>
      <trkpt lat="47.73574" lon="0.44696">
        <ele>114</ele>
        <time>2019-08-03T15:18:42Z</time>
      </trkpt>
      <trkpt lat="47.73575" lon="0.44701">
        <ele>114</ele>
        <time>2019-08-03T15:18:45Z</time>
      </trkpt>
      <trkpt lat="47.73575" lon="0.44707">
        <ele>112</ele>
        <time>2019-08-03T15:18:49Z</time>
      </trkpt>
      <trkpt lat="47.73578" lon="0.44726">
        <ele>110</ele>
        <time>2019-08-03T15:18:59Z</time>
      </trkpt>
      <trkpt lat="47.73576" lon="0.44731">
        <ele>109</ele>
        <time>2019-08-03T15:19:03Z</time>
      </trkpt>
      <trkpt lat="47.73576" lon="0.44737">
        <ele>109</ele>
        <time>2019-08-03T15:19:06Z</time>
      </trkpt>
      <trkpt lat="47.7358" lon="0.44757">
        <ele>107</ele>
        <time>2019-08-03T15:19:17Z</time>
      </trkpt>
      <trkpt lat="47.7358" lon="0.44767">
        <ele>106</ele>
        <time>2019-08-03T15:19:22Z</time>
      </trkpt>
      <trkpt lat="47.7358" lon="0.44772">
        <ele>106</ele>
        <time>2019-08-03T15:19:25Z</time>
      </trkpt>
      <trkpt lat="47.73581" lon="0.44777">
        <ele>106</ele>
        <time>2019-08-03T15:19:28Z</time>
      </trkpt>
      <trkpt lat="47.7358" lon="0.44788">
        <ele>104</ele>
        <time>2019-08-03T15:19:35Z</time>
      </trkpt>
      <trkpt lat="47.73584" lon="0.44798">
        <ele>103</ele>
        <time>2019-08-03T15:19:40Z</time>
      </trkpt>
      <trkpt lat="47.73586" lon="0.44804">
        <ele>102</ele>
        <time>2019-08-03T15:19:43Z</time>
      </trkpt>
      <trkpt lat="47.73584" lon="0.44814">
        <ele>102</ele>
        <time>2019-08-03T15:19:47Z</time>
      </trkpt>
      <trkpt lat="47.73583" lon="0.4482">
        <ele>102</ele>
        <time>2019-08-03T15:19:50Z</time>
      </trkpt>
      <trkpt lat="47.73584" lon="0.44835">
        <ele>103</ele>
        <time>2019-08-03T15:19:56Z</time>
      </trkpt>
      <trkpt lat="47.73582" lon="0.44839">
        <ele>104</ele>
        <time>2019-08-03T15:19:58Z</time>
      </trkpt>
      <trkpt lat="47.7358" lon="0.44843">
        <ele>103</ele>
        <time>2019-08-03T15:20:00Z</time>
      </trkpt>
      <trkpt lat="47.7358" lon="0.44848">
        <ele>104</ele>
        <time>2019-08-03T15:20:02Z</time>
      </trkpt>
      <trkpt lat="47.73582" lon="0.44854">
        <ele>104</ele>
        <time>2019-08-03T15:20:05Z</time>
      </trkpt>
      <trkpt lat="47.73588" lon="0.4486">
        <ele>104</ele>
        <time>2019-08-03T15:20:10Z</time>
      </trkpt>
      <trkpt lat="47.73597" lon="0.44883">
        <ele>98</ele>
        <time>2019-08-03T15:20:24Z</time>
      </trkpt>
      <trkpt lat="47.73598" lon="0.44888">
        <ele>97</ele>
        <time>2019-08-03T15:20:26Z</time>
      </trkpt>
      <trkpt lat="47.73602" lon="0.44936">
        <ele>94</ele>
        <time>2019-08-03T15:20:49Z</time>
      </trkpt>
      <trkpt lat="47.73602" lon="0.44942">
        <ele>93</ele>
        <time>2019-08-03T15:20:52Z</time>
      </trkpt>
      <trkpt lat="47.73603" lon="0.44947">
        <ele>93</ele>
        <time>2019-08-03T15:20:54Z</time>
      </trkpt>
      <trkpt lat="47.73603" lon="0.44953">
        <ele>93</ele>
        <time>2019-08-03T15:20:56Z</time>
      </trkpt>
      <trkpt lat="47.73606" lon="0.44974">
        <ele>91</ele>
        <time>2019-08-03T15:21:07Z</time>
      </trkpt>
      <trkpt lat="47.73607" lon="0.44985">
        <ele>91</ele>
        <time>2019-08-03T15:21:13Z</time>
      </trkpt>
      <trkpt lat="47.73606" lon="0.45">
        <ele>89</ele>
        <time>2019-08-03T15:21:22Z</time>
      </trkpt>
      <trkpt lat="47.73607" lon="0.45004">
        <ele>88</ele>
        <time>2019-08-03T15:21:24Z</time>
      </trkpt>
      <trkpt lat="47.73608" lon="0.45009">
        <ele>87</ele>
        <time>2019-08-03T15:21:27Z</time>
      </trkpt>
      <trkpt lat="47.73609" lon="0.45014">
        <ele>87</ele>
        <time>2019-08-03T15:21:29Z</time>
      </trkpt>
      <trkpt lat="47.73608" lon="0.45024">
        <ele>87</ele>
        <time>2019-08-03T15:21:33Z</time>
      </trkpt>
      <trkpt lat="47.73607" lon="0.4503">
        <ele>87</ele>
        <time>2019-08-03T15:21:35Z</time>
      </trkpt>
      <trkpt lat="47.73608" lon="0.45048">
        <ele>83</ele>
        <time>2019-08-03T15:21:45Z</time>
      </trkpt>
      <trkpt lat="47.73609" lon="0.45063">
        <ele>82</ele>
        <time>2019-08-03T15:21:54Z</time>
      </trkpt>
      <trkpt lat="47.73609" lon="0.45073">
        <ele>84</ele>
        <time>2019-08-03T15:21:58Z</time>
      </trkpt>
      <trkpt lat="47.73608" lon="0.45078">
        <ele>85</ele>
        <time>2019-08-03T15:22:01Z</time>
      </trkpt>
      <trkpt lat="47.73611" lon="0.45095">
        <ele>84</ele>
        <time>2019-08-03T15:22:10Z</time>
      </trkpt>
      <trkpt lat="47.7361" lon="0.45104">
        <ele>81</ele>
        <time>2019-08-03T15:22:15Z</time>
      </trkpt>
      <trkpt lat="47.73609" lon="0.45111">
        <ele>80</ele>
        <time>2019-08-03T15:22:18Z</time>
      </trkpt>
      <trkpt lat="47.73601" lon="0.45129">
        <ele>75</ele>
        <time>2019-08-03T15:22:46Z</time>
      </trkpt>
      <trkpt lat="47.73597" lon="0.45136">
        <ele>50</ele>
        <time>2019-08-03T15:25:01Z</time>
      </trkpt>
      <trkpt lat="47.73594" lon="0.45153">
        <ele>54</ele>
        <time>2019-08-03T15:25:04Z</time>
      </trkpt>
      <trkpt lat="47.73588" lon="0.45164">
        <ele>74</ele>
        <time>2019-08-03T15:25:31Z</time>
      </trkpt>
      <trkpt lat="47.73576" lon="0.45182">
        <ele>76</ele>
        <time>2019-08-03T15:25:45Z</time>
      </trkpt>
      <trkpt lat="47.73575" lon="0.45186">
        <ele>75</ele>
        <time>2019-08-03T15:25:48Z</time>
      </trkpt>
      <trkpt lat="47.73575" lon="0.45198">
        <ele>74</ele>
        <time>2019-08-03T15:25:53Z</time>
      </trkpt>
      <trkpt lat="47.73575" lon="0.45203">
        <ele>74</ele>
        <time>2019-08-03T15:25:55Z</time>
      </trkpt>
      <trkpt lat="47.73571" lon="0.45206">
        <ele>76</ele>
        <time>2019-08-03T15:25:58Z</time>
      </trkpt>
      <trkpt lat="47.73556" lon="0.45211">
        <ele>75</ele>
        <time>2019-08-03T15:26:07Z</time>
      </trkpt>
      <trkpt lat="47.73554" lon="0.45215">
        <ele>76</ele>
        <time>2019-08-03T15:26:10Z</time>
      </trkpt>
      <trkpt lat="47.73551" lon="0.45217">
        <ele>76</ele>
        <time>2019-08-03T15:26:13Z</time>
      </trkpt>
      <trkpt lat="47.73543" lon="0.45219">
        <ele>76</ele>
        <time>2019-08-03T15:26:18Z</time>
      </trkpt>
      <trkpt lat="47.73535" lon="0.4522">
        <ele>75</ele>
        <time>2019-08-03T15:26:23Z</time>
      </trkpt>
      <trkpt lat="47.73523" lon="0.45227">
        <ele>71</ele>
        <time>2019-08-03T15:26:34Z</time>
      </trkpt>
      <trkpt lat="47.73519" lon="0.45235">
        <ele>71</ele>
        <time>2019-08-03T15:26:39Z</time>
      </trkpt>
      <trkpt lat="47.7351" lon="0.45245">
        <ele>70</ele>
        <time>2019-08-03T15:26:45Z</time>
      </trkpt>
      <trkpt lat="47.73501" lon="0.45248">
        <ele>70</ele>
        <time>2019-08-03T15:26:52Z</time>
      </trkpt>
      <trkpt lat="47.73497" lon="0.45248">
        <ele>70</ele>
        <time>2019-08-03T15:26:54Z</time>
      </trkpt>
      <trkpt lat="47.73494" lon="0.45246">
        <ele>70</ele>
        <time>2019-08-03T15:26:57Z</time>
      </trkpt>
      <trkpt lat="47.73484" lon="0.45244">
        <ele>70</ele>
        <time>2019-08-03T15:27:05Z</time>
      </trkpt>
      <trkpt lat="47.73446" lon="0.45242">
        <ele>68</ele>
        <time>2019-08-03T15:27:37Z</time>
      </trkpt>
      <trkpt lat="47.73429" lon="0.45244">
        <ele>69</ele>
        <time>2019-08-03T15:27:51Z</time>
      </trkpt>
      <trkpt lat="47.73422" lon="0.45244">
        <ele>70</ele>
        <time>2019-08-03T15:27:59Z</time>
      </trkpt>
      <trkpt lat="47.73418" lon="0.45246">
        <ele>70</ele>
        <time>2019-08-03T15:28:02Z</time>
      </trkpt>
      <trkpt lat="47.73414" lon="0.45244">
        <ele>70</ele>
        <time>2019-08-03T15:28:05Z</time>
      </trkpt>
      <trkpt lat="47.73411" lon="0.45244">
        <ele>70</ele>
        <time>2019-08-03T15:28:07Z</time>
      </trkpt>
      <trkpt lat="47.73393" lon="0.45253">
        <ele>69</ele>
        <time>2019-08-03T15:28:20Z</time>
      </trkpt>
      <trkpt lat="47.73384" lon="0.4526">
        <ele>69</ele>
        <time>2019-08-03T15:28:27Z</time>
      </trkpt>
      <trkpt lat="47.73381" lon="0.45263">
        <ele>69</ele>
        <time>2019-08-03T15:28:30Z</time>
      </trkpt>
      <trkpt lat="47.73378" lon="0.45264">
        <ele>69</ele>
        <time>2019-08-03T15:28:41Z</time>
      </trkpt>
      <trkpt lat="47.73375" lon="0.45266">
        <ele>69</ele>
        <time>2019-08-03T15:28:46Z</time>
      </trkpt>
      <trkpt lat="47.73359" lon="0.45275">
        <ele>69</ele>
        <time>2019-08-03T15:28:59Z</time>
      </trkpt>
      <trkpt lat="47.73356" lon="0.45275">
        <ele>70</ele>
        <time>2019-08-03T15:29:03Z</time>
      </trkpt>
      <trkpt lat="47.73353" lon="0.45276">
        <ele>71</ele>
        <time>2019-08-03T15:29:06Z</time>
      </trkpt>
      <trkpt lat="47.73347" lon="0.45281">
        <ele>71</ele>
        <time>2019-08-03T15:29:11Z</time>
      </trkpt>
      <trkpt lat="47.73343" lon="0.45285">
        <ele>71</ele>
        <time>2019-08-03T15:29:14Z</time>
      </trkpt>
      <trkpt lat="47.73341" lon="0.45288">
        <ele>71</ele>
        <time>2019-08-03T15:29:16Z</time>
      </trkpt>
      <trkpt lat="47.73337" lon="0.45292">
        <ele>72</ele>
        <time>2019-08-03T15:29:20Z</time>
      </trkpt>
      <trkpt lat="47.73336" lon="0.45297">
        <ele>72</ele>
        <time>2019-08-03T15:29:25Z</time>
      </trkpt>
      <trkpt lat="47.7334" lon="0.4531">
        <ele>72</ele>
        <time>2019-08-03T15:29:36Z</time>
      </trkpt>
      <trkpt lat="47.73345" lon="0.45318">
        <ele>72</ele>
        <time>2019-08-03T15:29:42Z</time>
      </trkpt>
      <trkpt lat="47.7335" lon="0.45326">
        <ele>71</ele>
        <time>2019-08-03T15:29:48Z</time>
      </trkpt>
      <trkpt lat="47.73351" lon="0.45337">
        <ele>71</ele>
        <time>2019-08-03T15:29:54Z</time>
      </trkpt>
      <trkpt lat="47.73352" lon="0.45343">
        <ele>72</ele>
        <time>2019-08-03T15:29:57Z</time>
      </trkpt>
      <trkpt lat="47.73357" lon="0.45351">
        <ele>73</ele>
        <time>2019-08-03T15:30:03Z</time>
      </trkpt>
      <trkpt lat="47.73364" lon="0.45358">
        <ele>75</ele>
        <time>2019-08-03T15:30:12Z</time>
      </trkpt>
      <trkpt lat="47.73366" lon="0.45367">
        <ele>74</ele>
        <time>2019-08-03T15:30:18Z</time>
      </trkpt>
      <trkpt lat="47.73373" lon="0.4538">
        <ele>73</ele>
        <time>2019-08-03T15:30:24Z</time>
      </trkpt>
      <trkpt lat="47.73376" lon="0.4539">
        <ele>71</ele>
        <time>2019-08-03T15:30:29Z</time>
      </trkpt>
      <trkpt lat="47.73376" lon="0.45396">
        <ele>69</ele>
        <time>2019-08-03T15:30:32Z</time>
      </trkpt>
      <trkpt lat="47.73371" lon="0.4541">
        <ele>67</ele>
        <time>2019-08-03T15:30:40Z</time>
      </trkpt>
      <trkpt lat="47.73366" lon="0.45418">
        <ele>66</ele>
        <time>2019-08-03T15:30:45Z</time>
      </trkpt>
      <trkpt lat="47.73363" lon="0.45421">
        <ele>65</ele>
        <time>2019-08-03T15:30:48Z</time>
      </trkpt>
    </trkseg>
  </trk>
</gpx>